<?xml version="1.0" encoding="UTF-8" standalone="no" ?>
<gpx xmlns="http://www.topografix.com/GPX/1/1" xmlns:xsi="http://www.w3.org/2001/XMLSchema-instance" xsi:schemaLocation="http://www.topografix.com/GPX/1/1 http://www.topografix.com/GPX/1/1/gpx.xsd" version="1.1" creator="VisuGPX - https://www.visugpx.com">
  <metadata>
    <name>5757000-Tour des monges à cheval</name>
  </metadata>
  <trk>
    <name><![CDATA[5757000-Tour des monges à cheval]]></name>
    <extensions>
      <line xmlns="http://www.topografix.com/GPX/gpx_style/0/2">
        <color>0000FF</color>
        <width>4</width>
      </line>
    </extensions>
    <trkseg>
      <trkpt lat="44.24524" lon="6.05248">
        <ele>1123</ele>
        <time>2018-05-16T12:39:14Z</time>
      </trkpt>
      <trkpt lat="44.24501" lon="6.05149">
        <ele>1119</ele>
        <time>2018-05-16T12:40:14Z</time>
      </trkpt>
      <trkpt lat="44.245" lon="6.05051">
        <ele>1123</ele>
        <time>2018-05-16T12:41:14Z</time>
      </trkpt>
      <trkpt lat="44.24492" lon="6.04986">
        <ele>1122</ele>
        <time>2018-05-16T12:42:14Z</time>
      </trkpt>
      <trkpt lat="44.24472" lon="6.0493">
        <ele>1119</ele>
        <time>2018-05-16T12:43:14Z</time>
      </trkpt>
      <trkpt lat="44.2444" lon="6.04857">
        <ele>1112</ele>
        <time>2018-05-16T12:44:14Z</time>
      </trkpt>
      <trkpt lat="44.24437" lon="6.04739">
        <ele>1116</ele>
        <time>2018-05-16T12:45:14Z</time>
      </trkpt>
      <trkpt lat="44.24432" lon="6.04694">
        <ele>1114</ele>
        <time>2018-05-16T12:46:14Z</time>
      </trkpt>
      <trkpt lat="44.24412" lon="6.04618">
        <ele>1109</ele>
        <time>2018-05-16T12:47:14Z</time>
      </trkpt>
      <trkpt lat="44.24414" lon="6.04564">
        <ele>1110</ele>
        <time>2018-05-16T12:48:14Z</time>
      </trkpt>
      <trkpt lat="44.24414" lon="6.04517">
        <ele>1111</ele>
        <time>2018-05-16T12:49:14Z</time>
      </trkpt>
      <trkpt lat="44.244" lon="6.04477">
        <ele>1109</ele>
        <time>2018-05-16T12:50:14Z</time>
      </trkpt>
      <trkpt lat="44.24416" lon="6.04424">
        <ele>1114</ele>
        <time>2018-05-16T12:51:14Z</time>
      </trkpt>
      <trkpt lat="44.24419" lon="6.04378">
        <ele>1115</ele>
        <time>2018-05-16T12:52:14Z</time>
      </trkpt>
      <trkpt lat="44.24427" lon="6.04326">
        <ele>1117</ele>
        <time>2018-05-16T12:53:14Z</time>
      </trkpt>
      <trkpt lat="44.24438" lon="6.04284">
        <ele>1118</ele>
        <time>2018-05-16T12:54:14Z</time>
      </trkpt>
      <trkpt lat="44.24439" lon="6.04241">
        <ele>1118</ele>
        <time>2018-05-16T12:55:14Z</time>
      </trkpt>
      <trkpt lat="44.24438" lon="6.04132">
        <ele>1122</ele>
        <time>2018-05-16T12:56:14Z</time>
      </trkpt>
      <trkpt lat="44.24434" lon="6.04056">
        <ele>1125</ele>
        <time>2018-05-16T12:57:14Z</time>
      </trkpt>
      <trkpt lat="44.24428" lon="6.03991">
        <ele>1126</ele>
        <time>2018-05-16T12:58:14Z</time>
      </trkpt>
      <trkpt lat="44.2444" lon="6.03927">
        <ele>1129</ele>
        <time>2018-05-16T12:59:14Z</time>
      </trkpt>
      <trkpt lat="44.24453" lon="6.03855">
        <ele>1134</ele>
        <time>2018-05-16T13:00:14Z</time>
      </trkpt>
      <trkpt lat="44.2449" lon="6.03769">
        <ele>1143</ele>
        <time>2018-05-16T13:01:14Z</time>
      </trkpt>
      <trkpt lat="44.24518" lon="6.03717">
        <ele>1151</ele>
        <time>2018-05-16T13:02:14Z</time>
      </trkpt>
      <trkpt lat="44.24545" lon="6.03703">
        <ele>1159</ele>
        <time>2018-05-16T13:03:14Z</time>
      </trkpt>
      <trkpt lat="44.24553" lon="6.03672">
        <ele>1162</ele>
        <time>2018-05-16T13:04:14Z</time>
      </trkpt>
      <trkpt lat="44.24566" lon="6.03655">
        <ele>1167</ele>
        <time>2018-05-16T13:05:14Z</time>
      </trkpt>
      <trkpt lat="44.2457" lon="6.0363">
        <ele>1168</ele>
        <time>2018-05-16T13:06:14Z</time>
      </trkpt>
      <trkpt lat="44.24565" lon="6.03609">
        <ele>1168</ele>
        <time>2018-05-16T13:07:14Z</time>
      </trkpt>
      <trkpt lat="44.2457" lon="6.03586">
        <ele>1169</ele>
        <time>2018-05-16T13:08:14Z</time>
      </trkpt>
      <trkpt lat="44.24554" lon="6.03549">
        <ele>1167</ele>
        <time>2018-05-16T13:09:14Z</time>
      </trkpt>
      <trkpt lat="44.24564" lon="6.0349">
        <ele>1167</ele>
        <time>2018-05-16T13:10:14Z</time>
      </trkpt>
      <trkpt lat="44.24576" lon="6.03434">
        <ele>1163</ele>
        <time>2018-05-16T13:11:14Z</time>
      </trkpt>
      <trkpt lat="44.24614" lon="6.03372">
        <ele>1157</ele>
        <time>2018-05-16T13:12:14Z</time>
      </trkpt>
      <trkpt lat="44.2465" lon="6.03338">
        <ele>1150</ele>
        <time>2018-05-16T13:13:14Z</time>
      </trkpt>
      <trkpt lat="44.24683" lon="6.03305">
        <ele>1146</ele>
        <time>2018-05-16T13:14:14Z</time>
      </trkpt>
      <trkpt lat="44.2471" lon="6.03272">
        <ele>1143</ele>
        <time>2018-05-16T13:15:14Z</time>
      </trkpt>
      <trkpt lat="44.2472" lon="6.03228">
        <ele>1136</ele>
        <time>2018-05-16T13:16:14Z</time>
      </trkpt>
      <trkpt lat="44.24755" lon="6.03166">
        <ele>1122</ele>
        <time>2018-05-16T13:17:14Z</time>
      </trkpt>
      <trkpt lat="44.2481" lon="6.03114">
        <ele>1110</ele>
        <time>2018-05-16T13:18:14Z</time>
      </trkpt>
      <trkpt lat="44.24896" lon="6.03067">
        <ele>1089</ele>
        <time>2018-05-16T13:19:14Z</time>
      </trkpt>
      <trkpt lat="44.24927" lon="6.0305">
        <ele>1083</ele>
        <time>2018-05-16T13:20:14Z</time>
      </trkpt>
      <trkpt lat="44.24931" lon="6.03006">
        <ele>1076</ele>
        <time>2018-05-16T13:21:14Z</time>
      </trkpt>
      <trkpt lat="44.2494" lon="6.02936">
        <ele>1067</ele>
        <time>2018-05-16T13:22:14Z</time>
      </trkpt>
      <trkpt lat="44.24961" lon="6.02907">
        <ele>1060</ele>
        <time>2018-05-16T13:23:14Z</time>
      </trkpt>
      <trkpt lat="44.24995" lon="6.02886">
        <ele>1050</ele>
        <time>2018-05-16T13:24:14Z</time>
      </trkpt>
      <trkpt lat="44.2501" lon="6.02861">
        <ele>1045</ele>
        <time>2018-05-16T13:25:14Z</time>
      </trkpt>
      <trkpt lat="44.25037" lon="6.02869">
        <ele>1044</ele>
        <time>2018-05-16T13:26:14Z</time>
      </trkpt>
      <trkpt lat="44.25071" lon="6.02872">
        <ele>1041</ele>
        <time>2018-05-16T13:27:14Z</time>
      </trkpt>
      <trkpt lat="44.25089" lon="6.02886">
        <ele>1043</ele>
        <time>2018-05-16T13:28:14Z</time>
      </trkpt>
      <trkpt lat="44.25124" lon="6.02895">
        <ele>1040</ele>
        <time>2018-05-16T13:29:14Z</time>
      </trkpt>
      <trkpt lat="44.25169" lon="6.02926">
        <ele>1043</ele>
        <time>2018-05-16T13:30:14Z</time>
      </trkpt>
      <trkpt lat="44.25196" lon="6.02967">
        <ele>1048</ele>
        <time>2018-05-16T13:31:14Z</time>
      </trkpt>
      <trkpt lat="44.25207" lon="6.03012">
        <ele>1055</ele>
        <time>2018-05-16T13:32:14Z</time>
      </trkpt>
      <trkpt lat="44.25232" lon="6.03001">
        <ele>1045</ele>
        <time>2018-05-16T13:33:14Z</time>
      </trkpt>
      <trkpt lat="44.25249" lon="6.0296">
        <ele>1032</ele>
        <time>2018-05-16T13:34:14Z</time>
      </trkpt>
      <trkpt lat="44.25269" lon="6.02927">
        <ele>1021</ele>
        <time>2018-05-16T13:35:14Z</time>
      </trkpt>
      <trkpt lat="44.25332" lon="6.02896">
        <ele>1004</ele>
        <time>2018-05-16T13:36:14Z</time>
      </trkpt>
      <trkpt lat="44.25365" lon="6.02868">
        <ele>992</ele>
        <time>2018-05-16T13:37:14Z</time>
      </trkpt>
      <trkpt lat="44.25382" lon="6.0286">
        <ele>988</ele>
        <time>2018-05-16T13:38:14Z</time>
      </trkpt>
      <trkpt lat="44.25407" lon="6.02832">
        <ele>981</ele>
        <time>2018-05-16T13:39:14Z</time>
      </trkpt>
      <trkpt lat="44.2545" lon="6.02835">
        <ele>973</ele>
        <time>2018-05-16T13:40:14Z</time>
      </trkpt>
      <trkpt lat="44.25501" lon="6.02765">
        <ele>954</ele>
        <time>2018-05-16T13:41:14Z</time>
      </trkpt>
      <trkpt lat="44.25524" lon="6.0271">
        <ele>944</ele>
        <time>2018-05-16T13:42:14Z</time>
      </trkpt>
      <trkpt lat="44.25574" lon="6.02608">
        <ele>927</ele>
        <time>2018-05-16T13:43:14Z</time>
      </trkpt>
      <trkpt lat="44.25588" lon="6.02619">
        <ele>926</ele>
        <time>2018-05-16T13:44:14Z</time>
      </trkpt>
      <trkpt lat="44.25616" lon="6.0262">
        <ele>922</ele>
        <time>2018-05-16T13:45:14Z</time>
      </trkpt>
      <trkpt lat="44.25646" lon="6.02604">
        <ele>917</ele>
        <time>2018-05-16T13:46:14Z</time>
      </trkpt>
      <trkpt lat="44.25685" lon="6.02559">
        <ele>911</ele>
        <time>2018-05-16T13:47:14Z</time>
      </trkpt>
      <trkpt lat="44.25704" lon="6.02532">
        <ele>908</ele>
        <time>2018-05-16T13:48:14Z</time>
      </trkpt>
      <trkpt lat="44.25714" lon="6.02516">
        <ele>908</ele>
        <time>2018-05-16T13:49:14Z</time>
      </trkpt>
      <trkpt lat="44.25733" lon="6.02496">
        <ele>907</ele>
        <time>2018-05-16T13:50:14Z</time>
      </trkpt>
      <trkpt lat="44.25758" lon="6.02353">
        <ele>896</ele>
        <time>2018-05-16T13:51:14Z</time>
      </trkpt>
      <trkpt lat="44.25758" lon="6.02304">
        <ele>886</ele>
        <time>2018-05-16T13:52:14Z</time>
      </trkpt>
      <trkpt lat="44.25796" lon="6.02259">
        <ele>878</ele>
        <time>2018-05-16T13:53:14Z</time>
      </trkpt>
      <trkpt lat="44.25812" lon="6.02216">
        <ele>867</ele>
        <time>2018-05-16T13:54:14Z</time>
      </trkpt>
      <trkpt lat="44.2583" lon="6.02193">
        <ele>862</ele>
        <time>2018-05-16T13:55:14Z</time>
      </trkpt>
      <trkpt lat="44.25861" lon="6.02175">
        <ele>859</ele>
        <time>2018-05-16T13:56:14Z</time>
      </trkpt>
      <trkpt lat="44.25888" lon="6.0216">
        <ele>858</ele>
        <time>2018-05-16T13:57:14Z</time>
      </trkpt>
      <trkpt lat="44.25919" lon="6.02129">
        <ele>854</ele>
        <time>2018-05-16T13:58:14Z</time>
      </trkpt>
      <trkpt lat="44.25935" lon="6.02115">
        <ele>850</ele>
        <time>2018-05-16T13:59:14Z</time>
      </trkpt>
      <trkpt lat="44.25967" lon="6.02087">
        <ele>844</ele>
        <time>2018-05-16T14:00:14Z</time>
      </trkpt>
      <trkpt lat="44.25977" lon="6.02056">
        <ele>839</ele>
        <time>2018-05-16T14:01:14Z</time>
      </trkpt>
      <trkpt lat="44.2598" lon="6.0202">
        <ele>833</ele>
        <time>2018-05-16T14:02:14Z</time>
      </trkpt>
      <trkpt lat="44.26019" lon="6.019">
        <ele>814</ele>
        <time>2018-05-16T14:03:14Z</time>
      </trkpt>
      <trkpt lat="44.26028" lon="6.01878">
        <ele>810</ele>
        <time>2018-05-16T14:04:14Z</time>
      </trkpt>
      <trkpt lat="44.26045" lon="6.01876">
        <ele>811</ele>
        <time>2018-05-16T14:05:14Z</time>
      </trkpt>
      <trkpt lat="44.2607" lon="6.01884">
        <ele>815</ele>
        <time>2018-05-16T14:06:14Z</time>
      </trkpt>
      <trkpt lat="44.26089" lon="6.01869">
        <ele>813</ele>
        <time>2018-05-16T14:07:14Z</time>
      </trkpt>
      <trkpt lat="44.26103" lon="6.01832">
        <ele>807</ele>
        <time>2018-05-16T14:08:14Z</time>
      </trkpt>
      <trkpt lat="44.26127" lon="6.01795">
        <ele>799</ele>
        <time>2018-05-16T14:09:14Z</time>
      </trkpt>
      <trkpt lat="44.26152" lon="6.01765">
        <ele>795</ele>
        <time>2018-05-16T14:10:14Z</time>
      </trkpt>
      <trkpt lat="44.26167" lon="6.01755">
        <ele>795</ele>
        <time>2018-05-16T14:11:14Z</time>
      </trkpt>
      <trkpt lat="44.26177" lon="6.01737">
        <ele>791</ele>
        <time>2018-05-16T14:12:14Z</time>
      </trkpt>
      <trkpt lat="44.26203" lon="6.01722">
        <ele>789</ele>
        <time>2018-05-16T14:13:14Z</time>
      </trkpt>
      <trkpt lat="44.26234" lon="6.01691">
        <ele>785</ele>
        <time>2018-05-16T14:14:14Z</time>
      </trkpt>
      <trkpt lat="44.26241" lon="6.01647">
        <ele>781</ele>
        <time>2018-05-16T14:15:14Z</time>
      </trkpt>
      <trkpt lat="44.26255" lon="6.01609">
        <ele>775</ele>
        <time>2018-05-16T14:16:14Z</time>
      </trkpt>
      <trkpt lat="44.26286" lon="6.01559">
        <ele>764</ele>
        <time>2018-05-16T14:17:14Z</time>
      </trkpt>
      <trkpt lat="44.26321" lon="6.01517">
        <ele>756</ele>
        <time>2018-05-16T14:18:14Z</time>
      </trkpt>
      <trkpt lat="44.26373" lon="6.01475">
        <ele>749</ele>
        <time>2018-05-16T14:19:14Z</time>
      </trkpt>
      <trkpt lat="44.26395" lon="6.01466">
        <ele>747</ele>
        <time>2018-05-16T14:20:14Z</time>
      </trkpt>
      <trkpt lat="44.26415" lon="6.01453">
        <ele>745</ele>
        <time>2018-05-16T14:21:14Z</time>
      </trkpt>
      <trkpt lat="44.26441" lon="6.01421">
        <ele>742</ele>
        <time>2018-05-16T14:22:14Z</time>
      </trkpt>
      <trkpt lat="44.26462" lon="6.01364">
        <ele>740</ele>
        <time>2018-05-16T14:23:14Z</time>
      </trkpt>
      <trkpt lat="44.26495" lon="6.01315">
        <ele>735</ele>
        <time>2018-05-16T14:24:14Z</time>
      </trkpt>
      <trkpt lat="44.26542" lon="6.0128">
        <ele>728</ele>
        <time>2018-05-16T14:25:14Z</time>
      </trkpt>
      <trkpt lat="44.26604" lon="6.01228">
        <ele>717</ele>
        <time>2018-05-16T14:26:14Z</time>
      </trkpt>
      <trkpt lat="44.26621" lon="6.01205">
        <ele>713</ele>
        <time>2018-05-16T14:27:14Z</time>
      </trkpt>
      <trkpt lat="44.26652" lon="6.01121">
        <ele>700</ele>
        <time>2018-05-16T14:28:14Z</time>
      </trkpt>
      <trkpt lat="44.2665" lon="6.01087">
        <ele>696</ele>
        <time>2018-05-16T14:29:14Z</time>
      </trkpt>
      <trkpt lat="44.2666" lon="6.01069">
        <ele>692</ele>
        <time>2018-05-16T14:30:14Z</time>
      </trkpt>
      <trkpt lat="44.26687" lon="6.01057">
        <ele>687</ele>
        <time>2018-05-16T14:31:14Z</time>
      </trkpt>
      <trkpt lat="44.267" lon="6.01059">
        <ele>685</ele>
        <time>2018-05-16T14:32:14Z</time>
      </trkpt>
      <trkpt lat="44.26745" lon="6.01042">
        <ele>678</ele>
        <time>2018-05-16T14:33:14Z</time>
      </trkpt>
      <trkpt lat="44.26779" lon="6.01066">
        <ele>675</ele>
        <time>2018-05-16T14:34:14Z</time>
      </trkpt>
      <trkpt lat="44.26796" lon="6.01067">
        <ele>672</ele>
        <time>2018-05-16T14:35:14Z</time>
      </trkpt>
      <trkpt lat="44.26799" lon="6.01043">
        <ele>670</ele>
        <time>2018-05-16T14:36:14Z</time>
      </trkpt>
      <trkpt lat="44.26796" lon="6.00923">
        <ele>653</ele>
        <time>2018-05-16T14:37:14Z</time>
      </trkpt>
      <trkpt lat="44.26819" lon="6.00952">
        <ele>657</ele>
        <time>2018-05-16T14:38:14Z</time>
      </trkpt>
      <trkpt lat="44.26873" lon="6.01031">
        <ele>655</ele>
        <time>2018-05-16T14:39:14Z</time>
      </trkpt>
      <trkpt lat="44.26885" lon="6.01098">
        <ele>652</ele>
        <time>2018-05-16T14:40:14Z</time>
      </trkpt>
      <trkpt lat="44.26876" lon="6.01176">
        <ele>648</ele>
        <time>2018-05-16T14:41:14Z</time>
      </trkpt>
      <trkpt lat="44.26843" lon="6.01249">
        <ele>648</ele>
        <time>2018-05-16T14:42:14Z</time>
      </trkpt>
      <trkpt lat="44.26842" lon="6.01326">
        <ele>643</ele>
        <time>2018-05-16T14:43:14Z</time>
      </trkpt>
      <trkpt lat="44.26836" lon="6.01346">
        <ele>643</ele>
        <time>2018-05-16T14:44:14Z</time>
      </trkpt>
      <trkpt lat="44.26836" lon="6.01378">
        <ele>643</ele>
        <time>2018-05-16T14:45:14Z</time>
      </trkpt>
      <trkpt lat="44.26849" lon="6.01377">
        <ele>645</ele>
        <time>2018-05-16T14:46:14Z</time>
      </trkpt>
      <trkpt lat="44.26864" lon="6.01362">
        <ele>646</ele>
        <time>2018-05-16T14:47:14Z</time>
      </trkpt>
      <trkpt lat="44.26881" lon="6.01307">
        <ele>641</ele>
        <time>2018-05-16T14:48:14Z</time>
      </trkpt>
      <trkpt lat="44.26915" lon="6.0129">
        <ele>635</ele>
        <time>2018-05-16T14:49:14Z</time>
      </trkpt>
      <trkpt lat="44.26933" lon="6.01255">
        <ele>628</ele>
        <time>2018-05-16T14:50:14Z</time>
      </trkpt>
      <trkpt lat="44.26991" lon="6.01247">
        <ele>623</ele>
        <time>2018-05-16T14:51:14Z</time>
      </trkpt>
      <trkpt lat="44.27022" lon="6.01257">
        <ele>615</ele>
        <time>2018-05-16T14:52:14Z</time>
      </trkpt>
      <trkpt lat="44.27058" lon="6.01292">
        <ele>612</ele>
        <time>2018-05-16T14:53:14Z</time>
      </trkpt>
      <trkpt lat="44.27065" lon="6.01348">
        <ele>626</ele>
        <time>2018-05-16T14:54:14Z</time>
      </trkpt>
      <trkpt lat="44.27106" lon="6.01398">
        <ele>620</ele>
        <time>2018-05-16T14:55:14Z</time>
      </trkpt>
      <trkpt lat="44.27168" lon="6.01522">
        <ele>613</ele>
        <time>2018-05-16T14:56:14Z</time>
      </trkpt>
      <trkpt lat="44.27171" lon="6.01495">
        <ele>605</ele>
        <time>2018-05-16T14:57:14Z</time>
      </trkpt>
      <trkpt lat="44.27179" lon="6.0151">
        <ele>608</ele>
        <time>2018-05-16T14:58:14Z</time>
      </trkpt>
      <trkpt lat="44.27218" lon="6.0156">
        <ele>609</ele>
        <time>2018-05-16T14:59:14Z</time>
      </trkpt>
      <trkpt lat="44.27252" lon="6.01556">
        <ele>600</ele>
        <time>2018-05-16T15:00:14Z</time>
      </trkpt>
      <trkpt lat="44.27231" lon="6.0152">
        <ele>604</ele>
        <time>2018-05-16T15:01:14Z</time>
      </trkpt>
      <trkpt lat="44.27217" lon="6.01477">
        <ele>600</ele>
        <time>2018-05-16T15:02:14Z</time>
      </trkpt>
      <trkpt lat="44.27226" lon="6.01362">
        <ele>580</ele>
        <time>2018-05-16T15:03:14Z</time>
      </trkpt>
      <trkpt lat="44.27324" lon="6.01346">
        <ele>584</ele>
        <time>2018-05-16T15:04:14Z</time>
      </trkpt>
      <trkpt lat="44.27419" lon="6.0134">
        <ele>579</ele>
        <time>2018-05-16T15:05:14Z</time>
      </trkpt>
      <trkpt lat="44.27486" lon="6.01367">
        <ele>582</ele>
        <time>2018-05-16T15:06:14Z</time>
      </trkpt>
      <trkpt lat="44.27538" lon="6.01385">
        <ele>582</ele>
        <time>2018-05-16T15:07:14Z</time>
      </trkpt>
      <trkpt lat="44.27606" lon="6.0133">
        <ele>575</ele>
        <time>2018-05-16T15:08:14Z</time>
      </trkpt>
      <trkpt lat="44.27662" lon="6.01291">
        <ele>575</ele>
        <time>2018-05-16T15:09:14Z</time>
      </trkpt>
      <trkpt lat="44.27706" lon="6.01339">
        <ele>576</ele>
        <time>2018-05-16T15:10:14Z</time>
      </trkpt>
      <trkpt lat="44.27698" lon="6.01382">
        <ele>577</ele>
        <time>2018-05-16T15:11:14Z</time>
      </trkpt>
      <trkpt lat="44.27734" lon="6.01423">
        <ele>579</ele>
        <time>2018-05-16T15:12:14Z</time>
      </trkpt>
      <trkpt lat="44.27784" lon="6.01448">
        <ele>580</ele>
        <time>2018-05-16T15:13:14Z</time>
      </trkpt>
      <trkpt lat="44.27837" lon="6.01467">
        <ele>581</ele>
        <time>2018-05-16T15:14:14Z</time>
      </trkpt>
      <trkpt lat="44.27856" lon="6.01471">
        <ele>581</ele>
        <time>2018-05-16T15:15:14Z</time>
      </trkpt>
      <trkpt lat="44.27881" lon="6.01489">
        <ele>581</ele>
        <time>2018-05-16T15:16:14Z</time>
      </trkpt>
      <trkpt lat="44.27924" lon="6.0153">
        <ele>582</ele>
        <time>2018-05-16T15:17:14Z</time>
      </trkpt>
      <trkpt lat="44.27946" lon="6.0154">
        <ele>582</ele>
        <time>2018-05-16T15:18:14Z</time>
      </trkpt>
      <trkpt lat="44.28016" lon="6.01539">
        <ele>585</ele>
        <time>2018-05-16T15:19:14Z</time>
      </trkpt>
      <trkpt lat="44.28037" lon="6.01542">
        <ele>585</ele>
        <time>2018-05-16T15:20:14Z</time>
      </trkpt>
      <trkpt lat="44.28042" lon="6.01585">
        <ele>585</ele>
        <time>2018-05-16T15:21:14Z</time>
      </trkpt>
      <trkpt lat="44.28042" lon="6.01624">
        <ele>585</ele>
        <time>2018-05-16T15:22:14Z</time>
      </trkpt>
      <trkpt lat="44.28067" lon="6.01705">
        <ele>585</ele>
        <time>2018-05-16T15:23:14Z</time>
      </trkpt>
      <trkpt lat="44.28095" lon="6.01758">
        <ele>587</ele>
        <time>2018-05-16T15:24:14Z</time>
      </trkpt>
      <trkpt lat="44.28107" lon="6.01787">
        <ele>589</ele>
        <time>2018-05-16T15:25:14Z</time>
      </trkpt>
      <trkpt lat="44.28128" lon="6.01813">
        <ele>594</ele>
        <time>2018-05-16T15:26:14Z</time>
      </trkpt>
      <trkpt lat="44.28176" lon="6.01845">
        <ele>602</ele>
        <time>2018-05-16T15:27:14Z</time>
      </trkpt>
      <trkpt lat="44.28189" lon="6.01774">
        <ele>598</ele>
        <time>2018-05-16T15:28:14Z</time>
      </trkpt>
      <trkpt lat="44.28203" lon="6.01758">
        <ele>598</ele>
        <time>2018-05-16T15:29:14Z</time>
      </trkpt>
      <trkpt lat="44.2823" lon="6.0175">
        <ele>600</ele>
        <time>2018-05-16T15:30:14Z</time>
      </trkpt>
      <trkpt lat="44.2823" lon="6.01737">
        <ele>600</ele>
        <time>2018-05-16T15:31:14Z</time>
      </trkpt>
      <trkpt lat="44.28192" lon="6.01677">
        <ele>595</ele>
        <time>2018-05-16T15:32:14Z</time>
      </trkpt>
      <trkpt lat="44.28188" lon="6.0166">
        <ele>594</ele>
        <time>2018-05-16T15:33:14Z</time>
      </trkpt>
      <trkpt lat="44.28216" lon="6.01599">
        <ele>594</ele>
        <time>2018-05-16T15:34:14Z</time>
      </trkpt>
      <trkpt lat="44.28239" lon="6.01552">
        <ele>595</ele>
        <time>2018-05-16T15:35:14Z</time>
      </trkpt>
      <trkpt lat="44.28225" lon="6.01522">
        <ele>594</ele>
        <time>2018-05-16T15:36:14Z</time>
      </trkpt>
      <trkpt lat="44.28192" lon="6.01483">
        <ele>595</ele>
        <time>2018-05-16T15:37:14Z</time>
      </trkpt>
      <trkpt lat="44.28164" lon="6.01455">
        <ele>596</ele>
        <time>2018-05-16T15:38:14Z</time>
      </trkpt>
      <trkpt lat="44.28165" lon="6.0143">
        <ele>598</ele>
        <time>2018-05-16T15:39:14Z</time>
      </trkpt>
      <trkpt lat="44.28135" lon="6.01358">
        <ele>605</ele>
        <time>2018-05-16T15:40:14Z</time>
      </trkpt>
      <trkpt lat="44.28098" lon="6.01301">
        <ele>608</ele>
        <time>2018-05-16T15:41:14Z</time>
      </trkpt>
      <trkpt lat="44.28092" lon="6.01285">
        <ele>610</ele>
        <time>2018-05-16T15:42:14Z</time>
      </trkpt>
      <trkpt lat="44.28104" lon="6.0128">
        <ele>613</ele>
        <time>2018-05-16T15:43:14Z</time>
      </trkpt>
      <trkpt lat="44.28143" lon="6.01299">
        <ele>617</ele>
        <time>2018-05-16T15:44:14Z</time>
      </trkpt>
      <trkpt lat="44.28161" lon="6.01323">
        <ele>616</ele>
        <time>2018-05-16T15:45:14Z</time>
      </trkpt>
      <trkpt lat="44.28171" lon="6.01318">
        <ele>619</ele>
        <time>2018-05-16T15:46:14Z</time>
      </trkpt>
      <trkpt lat="44.28159" lon="6.01278">
        <ele>625</ele>
        <time>2018-05-16T15:47:14Z</time>
      </trkpt>
      <trkpt lat="44.2816" lon="6.01255">
        <ele>630</ele>
        <time>2018-05-16T15:48:14Z</time>
      </trkpt>
      <trkpt lat="44.28186" lon="6.01294">
        <ele>626</ele>
        <time>2018-05-16T15:49:14Z</time>
      </trkpt>
      <trkpt lat="44.28197" lon="6.01298">
        <ele>627</ele>
        <time>2018-05-16T15:50:14Z</time>
      </trkpt>
      <trkpt lat="44.28184" lon="6.01254">
        <ele>634</ele>
        <time>2018-05-16T15:51:14Z</time>
      </trkpt>
      <trkpt lat="44.28181" lon="6.01233">
        <ele>640</ele>
        <time>2018-05-16T15:52:14Z</time>
      </trkpt>
      <trkpt lat="44.28215" lon="6.01254">
        <ele>640</ele>
        <time>2018-05-16T15:53:14Z</time>
      </trkpt>
      <trkpt lat="44.28239" lon="6.01255">
        <ele>645</ele>
        <time>2018-05-16T15:54:14Z</time>
      </trkpt>
      <trkpt lat="44.28248" lon="6.01234">
        <ele>652</ele>
        <time>2018-05-16T15:55:14Z</time>
      </trkpt>
      <trkpt lat="44.28235" lon="6.01217">
        <ele>655</ele>
        <time>2018-05-16T15:56:14Z</time>
      </trkpt>
      <trkpt lat="44.28211" lon="6.01208">
        <ele>654</ele>
        <time>2018-05-16T15:57:14Z</time>
      </trkpt>
      <trkpt lat="44.28205" lon="6.01198">
        <ele>656</ele>
        <time>2018-05-16T15:58:14Z</time>
      </trkpt>
      <trkpt lat="44.28243" lon="6.01195">
        <ele>663</ele>
        <time>2018-05-16T15:59:14Z</time>
      </trkpt>
      <trkpt lat="44.28249" lon="6.01189">
        <ele>666</ele>
        <time>2018-05-16T16:00:14Z</time>
      </trkpt>
      <trkpt lat="44.28218" lon="6.01177">
        <ele>665</ele>
        <time>2018-05-16T16:01:14Z</time>
      </trkpt>
      <trkpt lat="44.28214" lon="6.01168">
        <ele>667</ele>
        <time>2018-05-16T16:02:14Z</time>
      </trkpt>
      <trkpt lat="44.28242" lon="6.01161">
        <ele>673</ele>
        <time>2018-05-16T16:03:14Z</time>
      </trkpt>
      <trkpt lat="44.28287" lon="6.01135">
        <ele>674</ele>
        <time>2018-05-16T16:04:14Z</time>
      </trkpt>
      <trkpt lat="44.28304" lon="6.01117">
        <ele>675</ele>
        <time>2018-05-16T16:05:14Z</time>
      </trkpt>
      <trkpt lat="44.28308" lon="6.01049">
        <ele>686</ele>
        <time>2018-05-16T16:06:14Z</time>
      </trkpt>
      <trkpt lat="44.28322" lon="6.0101">
        <ele>690</ele>
        <time>2018-05-16T16:07:14Z</time>
      </trkpt>
      <trkpt lat="44.28351" lon="6.00962">
        <ele>689</ele>
        <time>2018-05-16T16:08:14Z</time>
      </trkpt>
      <trkpt lat="44.28355" lon="6.00942">
        <ele>691</ele>
        <time>2018-05-16T16:09:14Z</time>
      </trkpt>
      <trkpt lat="44.28359" lon="6.00901">
        <ele>693</ele>
        <time>2018-05-16T16:10:14Z</time>
      </trkpt>
      <trkpt lat="44.28385" lon="6.0088">
        <ele>692</ele>
        <time>2018-05-16T16:11:14Z</time>
      </trkpt>
      <trkpt lat="44.28402" lon="6.00841">
        <ele>697</ele>
        <time>2018-05-16T16:12:14Z</time>
      </trkpt>
      <trkpt lat="44.28404" lon="6.00818">
        <ele>697</ele>
        <time>2018-05-16T16:13:14Z</time>
      </trkpt>
      <trkpt lat="44.28399" lon="6.00777">
        <ele>693</ele>
        <time>2018-05-16T16:14:14Z</time>
      </trkpt>
      <trkpt lat="44.28419" lon="6.00771">
        <ele>697</ele>
        <time>2018-05-16T16:15:14Z</time>
      </trkpt>
      <trkpt lat="44.28444" lon="6.00717">
        <ele>699</ele>
        <time>2018-05-16T16:16:14Z</time>
      </trkpt>
      <trkpt lat="44.28464" lon="6.00683">
        <ele>703</ele>
        <time>2018-05-16T16:17:14Z</time>
      </trkpt>
      <trkpt lat="44.28498" lon="6.00661">
        <ele>715</ele>
        <time>2018-05-16T16:18:14Z</time>
      </trkpt>
      <trkpt lat="44.28508" lon="6.00651">
        <ele>716</ele>
        <time>2018-05-16T16:19:14Z</time>
      </trkpt>
      <trkpt lat="44.28519" lon="6.0062">
        <ele>720</ele>
        <time>2018-05-16T16:20:14Z</time>
      </trkpt>
      <trkpt lat="44.28556" lon="6.00598">
        <ele>727</ele>
        <time>2018-05-16T16:21:14Z</time>
      </trkpt>
      <trkpt lat="44.28568" lon="6.00585">
        <ele>730</ele>
        <time>2018-05-16T16:22:14Z</time>
      </trkpt>
      <trkpt lat="44.28562" lon="6.00577">
        <ele>731</ele>
        <time>2018-05-16T16:23:14Z</time>
      </trkpt>
      <trkpt lat="44.2853" lon="6.00578">
        <ele>725</ele>
        <time>2018-05-16T16:24:14Z</time>
      </trkpt>
      <trkpt lat="44.28507" lon="6.00566">
        <ele>724</ele>
        <time>2018-05-16T16:25:14Z</time>
      </trkpt>
      <trkpt lat="44.28502" lon="6.00557">
        <ele>725</ele>
        <time>2018-05-16T16:26:14Z</time>
      </trkpt>
      <trkpt lat="44.28524" lon="6.00553">
        <ele>729</ele>
        <time>2018-05-16T16:27:14Z</time>
      </trkpt>
      <trkpt lat="44.28538" lon="6.00552">
        <ele>732</ele>
        <time>2018-05-16T16:28:14Z</time>
      </trkpt>
      <trkpt lat="44.28549" lon="6.00542">
        <ele>735</ele>
        <time>2018-05-16T16:29:14Z</time>
      </trkpt>
      <trkpt lat="44.28585" lon="6.00472">
        <ele>749</ele>
        <time>2018-05-16T16:30:14Z</time>
      </trkpt>
      <trkpt lat="44.28593" lon="6.00438">
        <ele>751</ele>
        <time>2018-05-16T16:31:14Z</time>
      </trkpt>
      <trkpt lat="44.28598" lon="6.00365">
        <ele>746</ele>
        <time>2018-05-16T16:32:14Z</time>
      </trkpt>
      <trkpt lat="44.28603" lon="6.00338">
        <ele>743</ele>
        <time>2018-05-16T16:33:14Z</time>
      </trkpt>
      <trkpt lat="44.28628" lon="6.00282">
        <ele>740</ele>
        <time>2018-05-16T16:34:14Z</time>
      </trkpt>
      <trkpt lat="44.28675" lon="6.00173">
        <ele>743</ele>
        <time>2018-05-16T16:35:14Z</time>
      </trkpt>
      <trkpt lat="44.28711" lon="6.00085">
        <ele>751</ele>
        <time>2018-05-16T16:36:14Z</time>
      </trkpt>
      <trkpt lat="44.28742" lon="5.99984">
        <ele>762</ele>
        <time>2018-05-16T16:37:14Z</time>
      </trkpt>
      <trkpt lat="44.28817" lon="5.99834">
        <ele>761</ele>
        <time>2018-05-16T16:38:14Z</time>
      </trkpt>
      <trkpt lat="44.2885" lon="5.99783">
        <ele>761</ele>
        <time>2018-05-16T16:39:14Z</time>
      </trkpt>
      <trkpt lat="44.28867" lon="5.99739">
        <ele>760</ele>
        <time>2018-05-16T16:40:14Z</time>
      </trkpt>
      <trkpt lat="44.28888" lon="5.99669">
        <ele>759</ele>
        <time>2018-05-16T16:41:14Z</time>
      </trkpt>
      <trkpt lat="44.28917" lon="5.99594">
        <ele>761</ele>
        <time>2018-05-16T16:42:14Z</time>
      </trkpt>
      <trkpt lat="44.2895" lon="5.99499">
        <ele>762</ele>
        <time>2018-05-16T16:43:14Z</time>
      </trkpt>
      <trkpt lat="44.28981" lon="5.99445">
        <ele>763</ele>
        <time>2018-05-16T16:44:14Z</time>
      </trkpt>
      <trkpt lat="44.29012" lon="5.99396">
        <ele>766</ele>
        <time>2018-05-16T16:45:14Z</time>
      </trkpt>
      <trkpt lat="44.29079" lon="5.99288">
        <ele>772</ele>
        <time>2018-05-16T16:46:14Z</time>
      </trkpt>
      <trkpt lat="44.29086" lon="5.9926">
        <ele>772</ele>
        <time>2018-05-16T16:47:14Z</time>
      </trkpt>
      <trkpt lat="44.29088" lon="5.9904">
        <ele>771</ele>
        <time>2018-05-16T16:48:14Z</time>
      </trkpt>
      <trkpt lat="44.29091" lon="5.98975">
        <ele>771</ele>
        <time>2018-05-16T16:49:14Z</time>
      </trkpt>
      <trkpt lat="44.29098" lon="5.9892">
        <ele>771</ele>
        <time>2018-05-16T16:50:14Z</time>
      </trkpt>
      <trkpt lat="44.29128" lon="5.98939">
        <ele>771</ele>
        <time>2018-05-16T16:51:14Z</time>
      </trkpt>
      <trkpt lat="44.29172" lon="5.98986">
        <ele>775</ele>
        <time>2018-05-16T16:52:14Z</time>
      </trkpt>
      <trkpt lat="44.29194" lon="5.99013">
        <ele>775</ele>
        <time>2018-05-16T16:53:14Z</time>
      </trkpt>
      <trkpt lat="44.29202" lon="5.99062">
        <ele>776</ele>
        <time>2018-05-16T16:54:14Z</time>
      </trkpt>
      <trkpt lat="44.2922" lon="5.9914">
        <ele>778</ele>
        <time>2018-05-16T16:55:14Z</time>
      </trkpt>
      <trkpt lat="44.29251" lon="5.99216">
        <ele>785</ele>
        <time>2018-05-16T16:56:14Z</time>
      </trkpt>
      <trkpt lat="44.29267" lon="5.99237">
        <ele>787</ele>
        <time>2018-05-16T16:57:14Z</time>
      </trkpt>
      <trkpt lat="44.29317" lon="5.99254">
        <ele>789</ele>
        <time>2018-05-16T16:58:14Z</time>
      </trkpt>
      <trkpt lat="44.29351" lon="5.99267">
        <ele>792</ele>
        <time>2018-05-16T16:59:14Z</time>
      </trkpt>
      <trkpt lat="44.29379" lon="5.99292">
        <ele>797</ele>
        <time>2018-05-16T17:00:14Z</time>
      </trkpt>
      <trkpt lat="44.29412" lon="5.99322">
        <ele>803</ele>
        <time>2018-05-16T17:01:14Z</time>
      </trkpt>
      <trkpt lat="44.2943" lon="5.99342">
        <ele>807</ele>
        <time>2018-05-16T17:02:14Z</time>
      </trkpt>
      <trkpt lat="44.29441" lon="5.99384">
        <ele>813</ele>
        <time>2018-05-16T17:03:14Z</time>
      </trkpt>
      <trkpt lat="44.29458" lon="5.99411">
        <ele>815</ele>
        <time>2018-05-16T17:04:14Z</time>
      </trkpt>
      <trkpt lat="44.29475" lon="5.99453">
        <ele>817</ele>
        <time>2018-05-16T17:05:14Z</time>
      </trkpt>
      <trkpt lat="44.29488" lon="5.99472">
        <ele>817</ele>
        <time>2018-05-16T17:06:14Z</time>
      </trkpt>
      <trkpt lat="44.29529" lon="5.99473">
        <ele>815</ele>
        <time>2018-05-16T17:07:14Z</time>
      </trkpt>
      <trkpt lat="44.29568" lon="5.99467">
        <ele>813</ele>
        <time>2018-05-16T17:08:14Z</time>
      </trkpt>
      <trkpt lat="44.29588" lon="5.99463">
        <ele>812</ele>
        <time>2018-05-16T17:09:14Z</time>
      </trkpt>
      <trkpt lat="44.29602" lon="5.99466">
        <ele>810</ele>
        <time>2018-05-16T17:10:14Z</time>
      </trkpt>
      <trkpt lat="44.29636" lon="5.99538">
        <ele>798</ele>
        <time>2018-05-16T17:11:14Z</time>
      </trkpt>
      <trkpt lat="44.29704" lon="5.99619">
        <ele>789</ele>
        <time>2018-05-16T17:12:14Z</time>
      </trkpt>
      <trkpt lat="44.29771" lon="5.99633">
        <ele>792</ele>
        <time>2018-05-16T17:13:14Z</time>
      </trkpt>
      <trkpt lat="44.29827" lon="5.99663">
        <ele>795</ele>
        <time>2018-05-16T17:14:14Z</time>
      </trkpt>
      <trkpt lat="44.29862" lon="5.99676">
        <ele>800</ele>
        <time>2018-05-16T17:15:14Z</time>
      </trkpt>
      <trkpt lat="44.29904" lon="5.99742">
        <ele>808</ele>
        <time>2018-05-16T17:16:14Z</time>
      </trkpt>
      <trkpt lat="44.29937" lon="5.99798">
        <ele>813</ele>
        <time>2018-05-16T17:17:14Z</time>
      </trkpt>
      <trkpt lat="44.29969" lon="5.99825">
        <ele>819</ele>
        <time>2018-05-16T17:18:14Z</time>
      </trkpt>
      <trkpt lat="44.3001" lon="5.99826">
        <ele>828</ele>
        <time>2018-05-16T17:19:14Z</time>
      </trkpt>
      <trkpt lat="44.30062" lon="5.99838">
        <ele>830</ele>
        <time>2018-05-16T17:20:14Z</time>
      </trkpt>
      <trkpt lat="44.30096" lon="5.99842">
        <ele>830</ele>
        <time>2018-05-16T17:21:14Z</time>
      </trkpt>
      <trkpt lat="44.30113" lon="5.99842">
        <ele>829</ele>
        <time>2018-05-16T17:22:14Z</time>
      </trkpt>
      <trkpt lat="44.30123" lon="5.99866">
        <ele>829</ele>
        <time>2018-05-16T17:23:14Z</time>
      </trkpt>
      <trkpt lat="44.30139" lon="5.99913">
        <ele>832</ele>
        <time>2018-05-16T17:24:14Z</time>
      </trkpt>
      <trkpt lat="44.30151" lon="5.99963">
        <ele>835</ele>
        <time>2018-05-16T17:25:14Z</time>
      </trkpt>
      <trkpt lat="44.3019" lon="6.0004">
        <ele>848</ele>
        <time>2018-05-16T17:26:14Z</time>
      </trkpt>
      <trkpt lat="44.30214" lon="6.00081">
        <ele>858</ele>
        <time>2018-05-16T17:27:14Z</time>
      </trkpt>
      <trkpt lat="44.30213" lon="6.00144">
        <ele>862</ele>
        <time>2018-05-16T17:28:14Z</time>
      </trkpt>
      <trkpt lat="44.30219" lon="6.0017">
        <ele>866</ele>
        <time>2018-05-16T17:29:14Z</time>
      </trkpt>
      <trkpt lat="44.30242" lon="6.00224">
        <ele>870</ele>
        <time>2018-05-16T17:30:14Z</time>
      </trkpt>
      <trkpt lat="44.30242" lon="6.00261">
        <ele>870</ele>
        <time>2018-05-16T17:31:14Z</time>
      </trkpt>
      <trkpt lat="44.30222" lon="6.00326">
        <ele>868</ele>
        <time>2018-05-16T17:32:14Z</time>
      </trkpt>
      <trkpt lat="44.3022" lon="6.00363">
        <ele>868</ele>
        <time>2018-05-16T17:33:14Z</time>
      </trkpt>
      <trkpt lat="44.30249" lon="6.00391">
        <ele>878</ele>
        <time>2018-05-16T17:34:14Z</time>
      </trkpt>
      <trkpt lat="44.30261" lon="6.00399">
        <ele>883</ele>
        <time>2018-05-16T17:35:14Z</time>
      </trkpt>
      <trkpt lat="44.30266" lon="6.00441">
        <ele>884</ele>
        <time>2018-05-16T17:36:14Z</time>
      </trkpt>
      <trkpt lat="44.30277" lon="6.00494">
        <ele>888</ele>
        <time>2018-05-16T17:37:14Z</time>
      </trkpt>
      <trkpt lat="44.30303" lon="6.00545">
        <ele>894</ele>
        <time>2018-05-16T17:38:14Z</time>
      </trkpt>
      <trkpt lat="44.30309" lon="6.00559">
        <ele>895</ele>
        <time>2018-05-16T17:39:14Z</time>
      </trkpt>
      <trkpt lat="44.30299" lon="6.00594">
        <ele>889</ele>
        <time>2018-05-16T17:40:14Z</time>
      </trkpt>
      <trkpt lat="44.30306" lon="6.00624">
        <ele>886</ele>
        <time>2018-05-16T17:41:14Z</time>
      </trkpt>
      <trkpt lat="44.30322" lon="6.00635">
        <ele>888</ele>
        <time>2018-05-16T17:42:14Z</time>
      </trkpt>
      <trkpt lat="44.30343" lon="6.0063">
        <ele>893</ele>
        <time>2018-05-16T17:43:14Z</time>
      </trkpt>
      <trkpt lat="44.30378" lon="6.00614">
        <ele>901</ele>
        <time>2018-05-16T17:44:14Z</time>
      </trkpt>
      <trkpt lat="44.30427" lon="6.00619">
        <ele>907</ele>
        <time>2018-05-16T17:45:14Z</time>
      </trkpt>
      <trkpt lat="44.30492" lon="6.00624">
        <ele>913</ele>
        <time>2018-05-16T17:46:14Z</time>
      </trkpt>
      <trkpt lat="44.30542" lon="6.00591">
        <ele>925</ele>
        <time>2018-05-16T17:47:14Z</time>
      </trkpt>
      <trkpt lat="44.30574" lon="6.00587">
        <ele>928</ele>
        <time>2018-05-16T17:48:14Z</time>
      </trkpt>
      <trkpt lat="44.30612" lon="6.00608">
        <ele>924</ele>
        <time>2018-05-16T17:49:14Z</time>
      </trkpt>
      <trkpt lat="44.30688" lon="6.00602">
        <ele>932</ele>
        <time>2018-05-16T17:50:14Z</time>
      </trkpt>
      <trkpt lat="44.30705" lon="6.00633">
        <ele>925</ele>
        <time>2018-05-16T17:51:14Z</time>
      </trkpt>
      <trkpt lat="44.30731" lon="6.00644">
        <ele>924</ele>
        <time>2018-05-16T17:52:14Z</time>
      </trkpt>
      <trkpt lat="44.30757" lon="6.00637">
        <ele>929</ele>
        <time>2018-05-16T17:53:14Z</time>
      </trkpt>
      <trkpt lat="44.30796" lon="6.00592">
        <ele>945</ele>
        <time>2018-05-16T17:54:14Z</time>
      </trkpt>
      <trkpt lat="44.30822" lon="6.00611">
        <ele>941</ele>
        <time>2018-05-16T17:55:14Z</time>
      </trkpt>
      <trkpt lat="44.30847" lon="6.0066">
        <ele>933</ele>
        <time>2018-05-16T17:56:14Z</time>
      </trkpt>
      <trkpt lat="44.30867" lon="6.00705">
        <ele>930</ele>
        <time>2018-05-16T17:57:14Z</time>
      </trkpt>
      <trkpt lat="44.30878" lon="6.00717">
        <ele>929</ele>
        <time>2018-05-16T17:58:14Z</time>
      </trkpt>
      <trkpt lat="44.30892" lon="6.00715">
        <ele>931</ele>
        <time>2018-05-16T17:59:14Z</time>
      </trkpt>
      <trkpt lat="44.30914" lon="6.00702">
        <ele>937</ele>
        <time>2018-05-16T18:00:14Z</time>
      </trkpt>
      <trkpt lat="44.30937" lon="6.00703">
        <ele>941</ele>
        <time>2018-05-16T18:01:14Z</time>
      </trkpt>
      <trkpt lat="44.30954" lon="6.0072">
        <ele>939</ele>
        <time>2018-05-16T18:02:14Z</time>
      </trkpt>
      <trkpt lat="44.30974" lon="6.0077">
        <ele>931</ele>
        <time>2018-05-16T18:03:14Z</time>
      </trkpt>
      <trkpt lat="44.31003" lon="6.00823">
        <ele>923</ele>
        <time>2018-05-16T18:04:14Z</time>
      </trkpt>
      <trkpt lat="44.31027" lon="6.00847">
        <ele>923</ele>
        <time>2018-05-16T18:05:14Z</time>
      </trkpt>
      <trkpt lat="44.31033" lon="6.00868">
        <ele>921</ele>
        <time>2018-05-16T18:06:14Z</time>
      </trkpt>
      <trkpt lat="44.31022" lon="6.00905">
        <ele>913</ele>
        <time>2018-05-16T18:07:14Z</time>
      </trkpt>
      <trkpt lat="44.31026" lon="6.00925">
        <ele>911</ele>
        <time>2018-05-16T18:08:14Z</time>
      </trkpt>
      <trkpt lat="44.31045" lon="6.00941">
        <ele>914</ele>
        <time>2018-05-16T18:09:14Z</time>
      </trkpt>
      <trkpt lat="44.31057" lon="6.00957">
        <ele>915</ele>
        <time>2018-05-16T18:10:14Z</time>
      </trkpt>
      <trkpt lat="44.31076" lon="6.00977">
        <ele>916</ele>
        <time>2018-05-16T18:11:14Z</time>
      </trkpt>
      <trkpt lat="44.31091" lon="6.01002">
        <ele>914</ele>
        <time>2018-05-16T18:12:14Z</time>
      </trkpt>
      <trkpt lat="44.31106" lon="6.01087">
        <ele>908</ele>
        <time>2018-05-16T18:13:14Z</time>
      </trkpt>
      <trkpt lat="44.31141" lon="6.01114">
        <ele>904</ele>
        <time>2018-05-16T18:14:14Z</time>
      </trkpt>
      <trkpt lat="44.31191" lon="6.01117">
        <ele>902</ele>
        <time>2018-05-16T18:15:14Z</time>
      </trkpt>
      <trkpt lat="44.31209" lon="6.01139">
        <ele>901</ele>
        <time>2018-05-16T18:16:14Z</time>
      </trkpt>
      <trkpt lat="44.31244" lon="6.01165">
        <ele>902</ele>
        <time>2018-05-16T18:17:14Z</time>
      </trkpt>
      <trkpt lat="44.31292" lon="6.01211">
        <ele>892</ele>
        <time>2018-05-16T18:18:14Z</time>
      </trkpt>
      <trkpt lat="44.31336" lon="6.01239">
        <ele>888</ele>
        <time>2018-05-16T18:19:14Z</time>
      </trkpt>
      <trkpt lat="44.31404" lon="6.01259">
        <ele>874</ele>
        <time>2018-05-16T18:20:14Z</time>
      </trkpt>
      <trkpt lat="44.31487" lon="6.01272">
        <ele>860</ele>
        <time>2018-05-16T18:21:14Z</time>
      </trkpt>
      <trkpt lat="44.31534" lon="6.01297">
        <ele>852</ele>
        <time>2018-05-16T18:22:14Z</time>
      </trkpt>
      <trkpt lat="44.31613" lon="6.01298">
        <ele>843</ele>
        <time>2018-05-16T18:23:14Z</time>
      </trkpt>
      <trkpt lat="44.31668" lon="6.0133">
        <ele>838</ele>
        <time>2018-05-16T18:24:14Z</time>
      </trkpt>
      <trkpt lat="44.3171" lon="6.01359">
        <ele>835</ele>
        <time>2018-05-16T18:25:14Z</time>
      </trkpt>
      <trkpt lat="44.3181" lon="6.01405">
        <ele>828</ele>
        <time>2018-05-16T18:26:14Z</time>
      </trkpt>
      <trkpt lat="44.31841" lon="6.01421">
        <ele>825</ele>
        <time>2018-05-16T18:27:14Z</time>
      </trkpt>
      <trkpt lat="44.31888" lon="6.01432">
        <ele>822</ele>
        <time>2018-05-16T18:28:14Z</time>
      </trkpt>
      <trkpt lat="44.31903" lon="6.01449">
        <ele>821</ele>
        <time>2018-05-16T18:29:14Z</time>
      </trkpt>
      <trkpt lat="44.31928" lon="6.01462">
        <ele>819</ele>
        <time>2018-05-16T18:30:14Z</time>
      </trkpt>
      <trkpt lat="44.31942" lon="6.01482">
        <ele>817</ele>
        <time>2018-05-16T18:31:14Z</time>
      </trkpt>
      <trkpt lat="44.3202" lon="6.01504">
        <ele>812</ele>
        <time>2018-05-16T18:32:14Z</time>
      </trkpt>
      <trkpt lat="44.32067" lon="6.01515">
        <ele>810</ele>
        <time>2018-05-16T18:33:14Z</time>
      </trkpt>
      <trkpt lat="44.32103" lon="6.01515">
        <ele>808</ele>
        <time>2018-05-16T18:34:14Z</time>
      </trkpt>
      <trkpt lat="44.32145" lon="6.01505">
        <ele>807</ele>
        <time>2018-05-16T18:35:14Z</time>
      </trkpt>
      <trkpt lat="44.32264" lon="6.01537">
        <ele>800</ele>
        <time>2018-05-16T18:36:14Z</time>
      </trkpt>
      <trkpt lat="44.32298" lon="6.01592">
        <ele>801</ele>
        <time>2018-05-16T18:37:14Z</time>
      </trkpt>
      <trkpt lat="44.32316" lon="6.01601">
        <ele>802</ele>
        <time>2018-05-16T18:38:14Z</time>
      </trkpt>
      <trkpt lat="44.32366" lon="6.01616">
        <ele>804</ele>
        <time>2018-05-16T18:39:14Z</time>
      </trkpt>
      <trkpt lat="44.32397" lon="6.0163">
        <ele>807</ele>
        <time>2018-05-16T18:40:14Z</time>
      </trkpt>
      <trkpt lat="44.32435" lon="6.01658">
        <ele>812</ele>
        <time>2018-05-16T18:41:14Z</time>
      </trkpt>
      <trkpt lat="44.32521" lon="6.01658">
        <ele>816</ele>
        <time>2018-05-16T18:42:14Z</time>
      </trkpt>
      <trkpt lat="44.32556" lon="6.0167">
        <ele>818</ele>
        <time>2018-05-16T18:43:14Z</time>
      </trkpt>
      <trkpt lat="44.32653" lon="6.0167">
        <ele>817</ele>
        <time>2018-05-16T18:44:14Z</time>
      </trkpt>
      <trkpt lat="44.32694" lon="6.01684">
        <ele>818</ele>
        <time>2018-05-16T18:45:14Z</time>
      </trkpt>
      <trkpt lat="44.32727" lon="6.01701">
        <ele>820</ele>
        <time>2018-05-16T18:46:14Z</time>
      </trkpt>
      <trkpt lat="44.32777" lon="6.01698">
        <ele>819</ele>
        <time>2018-05-16T18:47:14Z</time>
      </trkpt>
      <trkpt lat="44.32802" lon="6.01714">
        <ele>819</ele>
        <time>2018-05-16T18:48:14Z</time>
      </trkpt>
      <trkpt lat="44.32811" lon="6.01738">
        <ele>820</ele>
        <time>2018-05-16T18:49:14Z</time>
      </trkpt>
      <trkpt lat="44.32822" lon="6.01746">
        <ele>820</ele>
        <time>2018-05-16T18:50:14Z</time>
      </trkpt>
      <trkpt lat="44.3283" lon="6.01704">
        <ele>817</ele>
        <time>2018-05-16T18:51:14Z</time>
      </trkpt>
      <trkpt lat="44.32848" lon="6.01657">
        <ele>816</ele>
        <time>2018-05-16T18:52:14Z</time>
      </trkpt>
      <trkpt lat="44.32885" lon="6.01636">
        <ele>816</ele>
        <time>2018-05-16T18:53:14Z</time>
      </trkpt>
      <trkpt lat="44.32902" lon="6.01606">
        <ele>815</ele>
        <time>2018-05-16T18:54:14Z</time>
      </trkpt>
      <trkpt lat="44.32913" lon="6.01584">
        <ele>814</ele>
        <time>2018-05-16T18:55:14Z</time>
      </trkpt>
      <trkpt lat="44.32941" lon="6.01569">
        <ele>813</ele>
        <time>2018-05-16T18:56:14Z</time>
      </trkpt>
      <trkpt lat="44.32959" lon="6.01555">
        <ele>813</ele>
        <time>2018-05-16T18:57:14Z</time>
      </trkpt>
      <trkpt lat="44.3297" lon="6.01533">
        <ele>811</ele>
        <time>2018-05-16T18:58:14Z</time>
      </trkpt>
      <trkpt lat="44.33006" lon="6.01508">
        <ele>810</ele>
        <time>2018-05-16T18:59:14Z</time>
      </trkpt>
      <trkpt lat="44.3304" lon="6.01506">
        <ele>807</ele>
        <time>2018-05-16T19:00:14Z</time>
      </trkpt>
      <trkpt lat="44.33094" lon="6.01572">
        <ele>808</ele>
        <time>2018-05-16T19:01:14Z</time>
      </trkpt>
      <trkpt lat="44.33121" lon="6.0162">
        <ele>811</ele>
        <time>2018-05-16T19:02:14Z</time>
      </trkpt>
      <trkpt lat="44.3313" lon="6.01627">
        <ele>811</ele>
        <time>2018-05-16T19:03:14Z</time>
      </trkpt>
      <trkpt lat="44.3316" lon="6.0163">
        <ele>811</ele>
        <time>2018-05-16T19:04:14Z</time>
      </trkpt>
      <trkpt lat="44.33195" lon="6.01626">
        <ele>810</ele>
        <time>2018-05-16T19:05:14Z</time>
      </trkpt>
      <trkpt lat="44.33226" lon="6.01611">
        <ele>808</ele>
        <time>2018-05-16T19:06:14Z</time>
      </trkpt>
      <trkpt lat="44.33254" lon="6.01579">
        <ele>807</ele>
        <time>2018-05-16T19:07:14Z</time>
      </trkpt>
      <trkpt lat="44.33283" lon="6.01561">
        <ele>806</ele>
        <time>2018-05-16T19:08:14Z</time>
      </trkpt>
      <trkpt lat="44.33321" lon="6.0162">
        <ele>805</ele>
        <time>2018-05-16T19:09:14Z</time>
      </trkpt>
      <trkpt lat="44.33337" lon="6.01644">
        <ele>804</ele>
        <time>2018-05-16T19:10:14Z</time>
      </trkpt>
      <trkpt lat="44.33336" lon="6.01741">
        <ele>799</ele>
        <time>2018-05-16T19:11:14Z</time>
      </trkpt>
      <trkpt lat="44.33344" lon="6.01772">
        <ele>796</ele>
        <time>2018-05-16T19:12:14Z</time>
      </trkpt>
      <trkpt lat="44.33371" lon="6.01788">
        <ele>792</ele>
        <time>2018-05-16T19:13:14Z</time>
      </trkpt>
      <trkpt lat="44.33425" lon="6.01792">
        <ele>788</ele>
        <time>2018-05-16T19:14:14Z</time>
      </trkpt>
      <trkpt lat="44.3343" lon="6.01813">
        <ele>786</ele>
        <time>2018-05-16T19:15:14Z</time>
      </trkpt>
      <trkpt lat="44.33466" lon="6.01954">
        <ele>773</ele>
        <time>2018-05-16T19:16:14Z</time>
      </trkpt>
      <trkpt lat="44.33464" lon="6.02005">
        <ele>769</ele>
        <time>2018-05-16T19:17:14Z</time>
      </trkpt>
      <trkpt lat="44.33479" lon="6.02087">
        <ele>762</ele>
        <time>2018-05-16T19:18:14Z</time>
      </trkpt>
      <trkpt lat="44.33483" lon="6.02134">
        <ele>760</ele>
        <time>2018-05-16T19:19:14Z</time>
      </trkpt>
      <trkpt lat="44.3349" lon="6.02154">
        <ele>758</ele>
        <time>2018-05-16T19:20:14Z</time>
      </trkpt>
      <trkpt lat="44.33507" lon="6.02137">
        <ele>753</ele>
        <time>2018-05-16T19:21:14Z</time>
      </trkpt>
      <trkpt lat="44.33514" lon="6.02134">
        <ele>752</ele>
        <time>2018-05-16T19:22:14Z</time>
      </trkpt>
      <trkpt lat="44.33534" lon="6.02142">
        <ele>748</ele>
        <time>2018-05-16T19:23:14Z</time>
      </trkpt>
      <trkpt lat="44.33539" lon="6.02179">
        <ele>744</ele>
        <time>2018-05-16T19:24:14Z</time>
      </trkpt>
      <trkpt lat="44.33571" lon="6.02234">
        <ele>730</ele>
        <time>2018-05-16T19:25:14Z</time>
      </trkpt>
      <trkpt lat="44.33595" lon="6.02293">
        <ele>720</ele>
        <time>2018-05-16T19:26:14Z</time>
      </trkpt>
      <trkpt lat="44.33615" lon="6.02338">
        <ele>714</ele>
        <time>2018-05-16T19:27:14Z</time>
      </trkpt>
      <trkpt lat="44.33664" lon="6.02412">
        <ele>704</ele>
        <time>2018-05-16T19:28:14Z</time>
      </trkpt>
      <trkpt lat="44.33708" lon="6.02499">
        <ele>708</ele>
        <time>2018-05-16T19:29:14Z</time>
      </trkpt>
      <trkpt lat="44.33727" lon="6.02546">
        <ele>708</ele>
        <time>2018-05-16T19:30:14Z</time>
      </trkpt>
      <trkpt lat="44.33754" lon="6.02577">
        <ele>710</ele>
        <time>2018-05-16T19:31:14Z</time>
      </trkpt>
      <trkpt lat="44.33778" lon="6.02616">
        <ele>710</ele>
        <time>2018-05-16T19:32:14Z</time>
      </trkpt>
      <trkpt lat="44.33808" lon="6.02644">
        <ele>709</ele>
        <time>2018-05-16T19:33:14Z</time>
      </trkpt>
      <trkpt lat="44.33847" lon="6.02655">
        <ele>709</ele>
        <time>2018-05-16T19:34:14Z</time>
      </trkpt>
      <trkpt lat="44.33869" lon="6.02669">
        <ele>707</ele>
        <time>2018-05-16T19:35:14Z</time>
      </trkpt>
      <trkpt lat="44.33889" lon="6.02673">
        <ele>708</ele>
        <time>2018-05-16T19:36:14Z</time>
      </trkpt>
      <trkpt lat="44.33913" lon="6.02676">
        <ele>709</ele>
        <time>2018-05-16T19:37:14Z</time>
      </trkpt>
      <trkpt lat="44.33958" lon="6.02665">
        <ele>709</ele>
        <time>2018-05-16T19:38:14Z</time>
      </trkpt>
      <trkpt lat="44.3398" lon="6.02655">
        <ele>710</ele>
        <time>2018-05-16T19:39:14Z</time>
      </trkpt>
      <trkpt lat="44.34009" lon="6.02659">
        <ele>707</ele>
        <time>2018-05-16T19:40:14Z</time>
      </trkpt>
      <trkpt lat="44.34053" lon="6.02687">
        <ele>703</ele>
        <time>2018-05-16T19:41:14Z</time>
      </trkpt>
      <trkpt lat="44.34123" lon="6.02751">
        <ele>701</ele>
        <time>2018-05-16T19:42:14Z</time>
      </trkpt>
      <trkpt lat="44.34114" lon="6.02812">
        <ele>700</ele>
        <time>2018-05-16T19:43:14Z</time>
      </trkpt>
      <trkpt lat="44.33989" lon="6.02929">
        <ele>692</ele>
        <time>2018-05-16T19:44:14Z</time>
      </trkpt>
      <trkpt lat="44.33959" lon="6.03038">
        <ele>691</ele>
        <time>2018-05-16T19:45:14Z</time>
      </trkpt>
      <trkpt lat="44.33938" lon="6.03079">
        <ele>691</ele>
        <time>2018-05-16T19:46:14Z</time>
      </trkpt>
      <trkpt lat="44.33876" lon="6.03066">
        <ele>689</ele>
        <time>2018-05-16T19:47:14Z</time>
      </trkpt>
      <trkpt lat="44.33836" lon="6.0306">
        <ele>688</ele>
        <time>2018-05-16T19:48:14Z</time>
      </trkpt>
      <trkpt lat="44.33675" lon="6.03068">
        <ele>684</ele>
        <time>2018-05-16T19:49:14Z</time>
      </trkpt>
      <trkpt lat="44.33569" lon="6.03094">
        <ele>682</ele>
        <time>2018-05-16T19:50:14Z</time>
      </trkpt>
      <trkpt lat="44.3345" lon="6.03111">
        <ele>682</ele>
        <time>2018-05-16T19:51:14Z</time>
      </trkpt>
      <trkpt lat="44.33328" lon="6.03113">
        <ele>677</ele>
        <time>2018-05-16T19:52:14Z</time>
      </trkpt>
      <trkpt lat="44.33258" lon="6.03136">
        <ele>675</ele>
        <time>2018-05-16T19:53:14Z</time>
      </trkpt>
      <trkpt lat="44.33135" lon="6.03169">
        <ele>673</ele>
        <time>2018-05-16T19:54:14Z</time>
      </trkpt>
      <trkpt lat="44.33042" lon="6.03197">
        <ele>670</ele>
        <time>2018-05-16T19:55:14Z</time>
      </trkpt>
      <trkpt lat="44.32853" lon="6.03249">
        <ele>668</ele>
        <time>2018-05-16T19:56:14Z</time>
      </trkpt>
      <trkpt lat="44.32696" lon="6.03287">
        <ele>668</ele>
        <time>2018-05-16T19:57:14Z</time>
      </trkpt>
      <trkpt lat="44.32604" lon="6.03297">
        <ele>666</ele>
        <time>2018-05-16T19:58:14Z</time>
      </trkpt>
      <trkpt lat="44.32496" lon="6.03306">
        <ele>663</ele>
        <time>2018-05-16T19:59:14Z</time>
      </trkpt>
      <trkpt lat="44.32446" lon="6.03327">
        <ele>663</ele>
        <time>2018-05-16T20:00:14Z</time>
      </trkpt>
      <trkpt lat="44.32429" lon="6.03351">
        <ele>664</ele>
        <time>2018-05-16T20:01:14Z</time>
      </trkpt>
      <trkpt lat="44.32422" lon="6.03379">
        <ele>664</ele>
        <time>2018-05-16T20:02:14Z</time>
      </trkpt>
      <trkpt lat="44.32411" lon="6.03411">
        <ele>665</ele>
        <time>2018-05-16T20:03:14Z</time>
      </trkpt>
      <trkpt lat="44.32401" lon="6.03436">
        <ele>666</ele>
        <time>2018-05-16T20:04:14Z</time>
      </trkpt>
      <trkpt lat="44.32373" lon="6.0346">
        <ele>666</ele>
        <time>2018-05-16T20:05:14Z</time>
      </trkpt>
      <trkpt lat="44.32244" lon="6.0354">
        <ele>663</ele>
        <time>2018-05-16T20:06:14Z</time>
      </trkpt>
      <trkpt lat="44.32163" lon="6.03595">
        <ele>664</ele>
        <time>2018-05-16T20:07:14Z</time>
      </trkpt>
      <trkpt lat="44.3207" lon="6.03671">
        <ele>663</ele>
        <time>2018-05-16T20:08:14Z</time>
      </trkpt>
      <trkpt lat="44.32046" lon="6.037">
        <ele>665</ele>
        <time>2018-05-16T20:09:14Z</time>
      </trkpt>
      <trkpt lat="44.32022" lon="6.03716">
        <ele>664</ele>
        <time>2018-05-16T20:10:14Z</time>
      </trkpt>
      <trkpt lat="44.3197" lon="6.03716">
        <ele>661</ele>
        <time>2018-05-16T20:11:14Z</time>
      </trkpt>
      <trkpt lat="44.31955" lon="6.03722">
        <ele>660</ele>
        <time>2018-05-16T20:12:14Z</time>
      </trkpt>
      <trkpt lat="44.31913" lon="6.03746">
        <ele>659</ele>
        <time>2018-05-16T20:13:14Z</time>
      </trkpt>
      <trkpt lat="44.31881" lon="6.03786">
        <ele>659</ele>
        <time>2018-05-16T20:14:14Z</time>
      </trkpt>
      <trkpt lat="44.31828" lon="6.03845">
        <ele>659</ele>
        <time>2018-05-16T20:15:14Z</time>
      </trkpt>
      <trkpt lat="44.31775" lon="6.03886">
        <ele>661</ele>
        <time>2018-05-16T20:16:14Z</time>
      </trkpt>
      <trkpt lat="44.31714" lon="6.03929">
        <ele>663</ele>
        <time>2018-05-16T20:17:14Z</time>
      </trkpt>
      <trkpt lat="44.31679" lon="6.03955">
        <ele>662</ele>
        <time>2018-05-16T20:18:14Z</time>
      </trkpt>
      <trkpt lat="44.31618" lon="6.03984">
        <ele>659</ele>
        <time>2018-05-16T20:19:14Z</time>
      </trkpt>
      <trkpt lat="44.31564" lon="6.04007">
        <ele>656</ele>
        <time>2018-05-16T20:20:14Z</time>
      </trkpt>
      <trkpt lat="44.31519" lon="6.04018">
        <ele>655</ele>
        <time>2018-05-16T20:21:14Z</time>
      </trkpt>
      <trkpt lat="44.31454" lon="6.04016">
        <ele>657</ele>
        <time>2018-05-16T20:22:14Z</time>
      </trkpt>
      <trkpt lat="44.31416" lon="6.03997">
        <ele>659</ele>
        <time>2018-05-16T20:23:14Z</time>
      </trkpt>
      <trkpt lat="44.31387" lon="6.03971">
        <ele>658</ele>
        <time>2018-05-16T20:24:14Z</time>
      </trkpt>
      <trkpt lat="44.31356" lon="6.03951">
        <ele>657</ele>
        <time>2018-05-16T20:25:14Z</time>
      </trkpt>
      <trkpt lat="44.31308" lon="6.03944">
        <ele>656</ele>
        <time>2018-05-16T20:26:14Z</time>
      </trkpt>
      <trkpt lat="44.31221" lon="6.03956">
        <ele>655</ele>
        <time>2018-05-16T20:27:14Z</time>
      </trkpt>
      <trkpt lat="44.31174" lon="6.0398">
        <ele>655</ele>
        <time>2018-05-16T20:28:14Z</time>
      </trkpt>
      <trkpt lat="44.31038" lon="6.04035">
        <ele>647</ele>
        <time>2018-05-16T20:29:14Z</time>
      </trkpt>
      <trkpt lat="44.3105" lon="6.04156">
        <ele>654</ele>
        <time>2018-05-16T20:30:14Z</time>
      </trkpt>
      <trkpt lat="44.31056" lon="6.0425">
        <ele>655</ele>
        <time>2018-05-16T20:31:14Z</time>
      </trkpt>
      <trkpt lat="44.31053" lon="6.04338">
        <ele>654</ele>
        <time>2018-05-16T20:32:14Z</time>
      </trkpt>
      <trkpt lat="44.31038" lon="6.04498">
        <ele>651</ele>
        <time>2018-05-16T20:33:14Z</time>
      </trkpt>
      <trkpt lat="44.31017" lon="6.04579">
        <ele>650</ele>
        <time>2018-05-16T20:34:14Z</time>
      </trkpt>
      <trkpt lat="44.31019" lon="6.0462">
        <ele>649</ele>
        <time>2018-05-16T20:35:14Z</time>
      </trkpt>
      <trkpt lat="44.31111" lon="6.04789">
        <ele>650</ele>
        <time>2018-05-16T20:36:14Z</time>
      </trkpt>
      <trkpt lat="44.31268" lon="6.05069">
        <ele>654</ele>
        <time>2018-05-16T20:37:14Z</time>
      </trkpt>
      <trkpt lat="44.31304" lon="6.0516">
        <ele>654</ele>
        <time>2018-05-16T20:38:14Z</time>
      </trkpt>
      <trkpt lat="44.31382" lon="6.0538">
        <ele>657</ele>
        <time>2018-05-16T20:39:14Z</time>
      </trkpt>
      <trkpt lat="44.31285" lon="6.05443">
        <ele>656</ele>
        <time>2018-05-16T20:40:14Z</time>
      </trkpt>
      <trkpt lat="44.31245" lon="6.05511">
        <ele>654</ele>
        <time>2018-05-16T20:41:14Z</time>
      </trkpt>
      <trkpt lat="44.31211" lon="6.05544">
        <ele>655</ele>
        <time>2018-05-16T20:42:14Z</time>
      </trkpt>
      <trkpt lat="44.31176" lon="6.05641">
        <ele>660</ele>
        <time>2018-05-16T20:43:14Z</time>
      </trkpt>
      <trkpt lat="44.31187" lon="6.05703">
        <ele>663</ele>
        <time>2018-05-16T20:44:14Z</time>
      </trkpt>
      <trkpt lat="44.31171" lon="6.05767">
        <ele>670</ele>
        <time>2018-05-16T20:45:14Z</time>
      </trkpt>
      <trkpt lat="44.31181" lon="6.05807">
        <ele>672</ele>
        <time>2018-05-16T20:46:14Z</time>
      </trkpt>
      <trkpt lat="44.3123" lon="6.05872">
        <ele>672</ele>
        <time>2018-05-16T20:47:14Z</time>
      </trkpt>
      <trkpt lat="44.31245" lon="6.05928">
        <ele>675</ele>
        <time>2018-05-16T20:48:14Z</time>
      </trkpt>
      <trkpt lat="44.31246" lon="6.06046">
        <ele>681</ele>
        <time>2018-05-16T20:49:14Z</time>
      </trkpt>
      <trkpt lat="44.31203" lon="6.06035">
        <ele>688</ele>
        <time>2018-05-16T20:50:14Z</time>
      </trkpt>
      <trkpt lat="44.31185" lon="6.0603">
        <ele>691</ele>
        <time>2018-05-16T20:51:14Z</time>
      </trkpt>
      <trkpt lat="44.31142" lon="6.0605">
        <ele>699</ele>
        <time>2018-05-16T20:52:14Z</time>
      </trkpt>
      <trkpt lat="44.31112" lon="6.06032">
        <ele>704</ele>
        <time>2018-05-16T20:53:14Z</time>
      </trkpt>
      <trkpt lat="44.31092" lon="6.06042">
        <ele>708</ele>
        <time>2018-05-16T20:54:14Z</time>
      </trkpt>
      <trkpt lat="44.31062" lon="6.06073">
        <ele>717</ele>
        <time>2018-05-16T20:55:14Z</time>
      </trkpt>
      <trkpt lat="44.31056" lon="6.06138">
        <ele>722</ele>
        <time>2018-05-16T20:56:14Z</time>
      </trkpt>
      <trkpt lat="44.3105" lon="6.06175">
        <ele>727</ele>
        <time>2018-05-16T20:57:14Z</time>
      </trkpt>
      <trkpt lat="44.31042" lon="6.06173">
        <ele>730</ele>
        <time>2018-05-16T20:58:14Z</time>
      </trkpt>
      <trkpt lat="44.31038" lon="6.06133">
        <ele>729</ele>
        <time>2018-05-16T20:59:14Z</time>
      </trkpt>
      <trkpt lat="44.31029" lon="6.06107">
        <ele>730</ele>
        <time>2018-05-16T21:00:14Z</time>
      </trkpt>
      <trkpt lat="44.30983" lon="6.06074">
        <ele>739</ele>
        <time>2018-05-16T21:01:14Z</time>
      </trkpt>
      <trkpt lat="44.3092" lon="6.06056">
        <ele>752</ele>
        <time>2018-05-16T21:02:14Z</time>
      </trkpt>
      <trkpt lat="44.30867" lon="6.06028">
        <ele>757</ele>
        <time>2018-05-16T21:03:14Z</time>
      </trkpt>
      <trkpt lat="44.30825" lon="6.05984">
        <ele>756</ele>
        <time>2018-05-16T21:04:14Z</time>
      </trkpt>
      <trkpt lat="44.30768" lon="6.05933">
        <ele>762</ele>
        <time>2018-05-16T21:05:14Z</time>
      </trkpt>
      <trkpt lat="44.30748" lon="6.05932">
        <ele>767</ele>
        <time>2018-05-16T21:06:14Z</time>
      </trkpt>
      <trkpt lat="44.30743" lon="6.05948">
        <ele>770</ele>
        <time>2018-05-16T21:07:14Z</time>
      </trkpt>
      <trkpt lat="44.3077" lon="6.05983">
        <ele>771</ele>
        <time>2018-05-16T21:08:14Z</time>
      </trkpt>
      <trkpt lat="44.30786" lon="6.06035">
        <ele>778</ele>
        <time>2018-05-16T21:09:14Z</time>
      </trkpt>
      <trkpt lat="44.30805" lon="6.06077">
        <ele>784</ele>
        <time>2018-05-16T21:10:14Z</time>
      </trkpt>
      <trkpt lat="44.30834" lon="6.06119">
        <ele>786</ele>
        <time>2018-05-16T21:11:14Z</time>
      </trkpt>
      <trkpt lat="44.30842" lon="6.06193">
        <ele>796</ele>
        <time>2018-05-16T21:12:14Z</time>
      </trkpt>
      <trkpt lat="44.30862" lon="6.06243">
        <ele>800</ele>
        <time>2018-05-16T21:13:14Z</time>
      </trkpt>
      <trkpt lat="44.3088" lon="6.06316">
        <ele>804</ele>
        <time>2018-05-16T21:14:14Z</time>
      </trkpt>
      <trkpt lat="44.30869" lon="6.06329">
        <ele>808</ele>
        <time>2018-05-16T21:15:14Z</time>
      </trkpt>
      <trkpt lat="44.30849" lon="6.06306">
        <ele>810</ele>
        <time>2018-05-16T21:16:14Z</time>
      </trkpt>
      <trkpt lat="44.30824" lon="6.06258">
        <ele>808</ele>
        <time>2018-05-16T21:17:14Z</time>
      </trkpt>
      <trkpt lat="44.30809" lon="6.06238">
        <ele>808</ele>
        <time>2018-05-16T21:18:14Z</time>
      </trkpt>
      <trkpt lat="44.30776" lon="6.06223">
        <ele>812</ele>
        <time>2018-05-16T21:19:14Z</time>
      </trkpt>
      <trkpt lat="44.30745" lon="6.06197">
        <ele>814</ele>
        <time>2018-05-16T21:20:14Z</time>
      </trkpt>
      <trkpt lat="44.30694" lon="6.06219">
        <ele>825</ele>
        <time>2018-05-16T21:21:14Z</time>
      </trkpt>
      <trkpt lat="44.30676" lon="6.06213">
        <ele>827</ele>
        <time>2018-05-16T21:22:14Z</time>
      </trkpt>
      <trkpt lat="44.30634" lon="6.06154">
        <ele>818</ele>
        <time>2018-05-16T21:23:14Z</time>
      </trkpt>
      <trkpt lat="44.30614" lon="6.06151">
        <ele>819</ele>
        <time>2018-05-16T21:24:14Z</time>
      </trkpt>
      <trkpt lat="44.30584" lon="6.06188">
        <ele>827</ele>
        <time>2018-05-16T21:25:14Z</time>
      </trkpt>
      <trkpt lat="44.30561" lon="6.06195">
        <ele>824</ele>
        <time>2018-05-16T21:26:14Z</time>
      </trkpt>
      <trkpt lat="44.30542" lon="6.06208">
        <ele>822</ele>
        <time>2018-05-16T21:27:14Z</time>
      </trkpt>
      <trkpt lat="44.30523" lon="6.06253">
        <ele>824</ele>
        <time>2018-05-16T21:28:14Z</time>
      </trkpt>
      <trkpt lat="44.30527" lon="6.06307">
        <ele>830</ele>
        <time>2018-05-16T21:29:14Z</time>
      </trkpt>
      <trkpt lat="44.30536" lon="6.06345">
        <ele>835</ele>
        <time>2018-05-16T21:30:14Z</time>
      </trkpt>
      <trkpt lat="44.30564" lon="6.06394">
        <ele>843</ele>
        <time>2018-05-16T21:31:14Z</time>
      </trkpt>
      <trkpt lat="44.3058" lon="6.06438">
        <ele>849</ele>
        <time>2018-05-16T21:32:14Z</time>
      </trkpt>
      <trkpt lat="44.30585" lon="6.06472">
        <ele>854</ele>
        <time>2018-05-16T21:33:14Z</time>
      </trkpt>
      <trkpt lat="44.3058" lon="6.06492">
        <ele>856</ele>
        <time>2018-05-16T21:34:14Z</time>
      </trkpt>
      <trkpt lat="44.30541" lon="6.06529">
        <ele>855</ele>
        <time>2018-05-16T21:35:14Z</time>
      </trkpt>
      <trkpt lat="44.3052" lon="6.06595">
        <ele>861</ele>
        <time>2018-05-16T21:36:14Z</time>
      </trkpt>
      <trkpt lat="44.30514" lon="6.06643">
        <ele>866</ele>
        <time>2018-05-16T21:37:14Z</time>
      </trkpt>
      <trkpt lat="44.30541" lon="6.06671">
        <ele>872</ele>
        <time>2018-05-16T21:38:14Z</time>
      </trkpt>
      <trkpt lat="44.30563" lon="6.06687">
        <ele>874</ele>
        <time>2018-05-16T21:39:14Z</time>
      </trkpt>
      <trkpt lat="44.30574" lon="6.06717">
        <ele>874</ele>
        <time>2018-05-16T21:40:14Z</time>
      </trkpt>
      <trkpt lat="44.30565" lon="6.0673">
        <ele>874</ele>
        <time>2018-05-16T21:41:14Z</time>
      </trkpt>
      <trkpt lat="44.3054" lon="6.06727">
        <ele>876</ele>
        <time>2018-05-16T21:42:14Z</time>
      </trkpt>
      <trkpt lat="44.30514" lon="6.06704">
        <ele>874</ele>
        <time>2018-05-16T21:43:14Z</time>
      </trkpt>
      <trkpt lat="44.30468" lon="6.06699">
        <ele>871</ele>
        <time>2018-05-16T21:44:14Z</time>
      </trkpt>
      <trkpt lat="44.3046" lon="6.06709">
        <ele>872</ele>
        <time>2018-05-16T21:45:14Z</time>
      </trkpt>
      <trkpt lat="44.30493" lon="6.06732">
        <ele>878</ele>
        <time>2018-05-16T21:46:14Z</time>
      </trkpt>
      <trkpt lat="44.30505" lon="6.06748">
        <ele>881</ele>
        <time>2018-05-16T21:47:14Z</time>
      </trkpt>
      <trkpt lat="44.30511" lon="6.06769">
        <ele>882</ele>
        <time>2018-05-16T21:48:14Z</time>
      </trkpt>
      <trkpt lat="44.30499" lon="6.06804">
        <ele>887</ele>
        <time>2018-05-16T21:49:14Z</time>
      </trkpt>
      <trkpt lat="44.3049" lon="6.06813">
        <ele>887</ele>
        <time>2018-05-16T21:50:14Z</time>
      </trkpt>
      <trkpt lat="44.30505" lon="6.06842">
        <ele>889</ele>
        <time>2018-05-16T21:51:14Z</time>
      </trkpt>
      <trkpt lat="44.30503" lon="6.06861">
        <ele>891</ele>
        <time>2018-05-16T21:52:14Z</time>
      </trkpt>
      <trkpt lat="44.30484" lon="6.06892">
        <ele>895</ele>
        <time>2018-05-16T21:53:14Z</time>
      </trkpt>
      <trkpt lat="44.30487" lon="6.06908">
        <ele>897</ele>
        <time>2018-05-16T21:54:14Z</time>
      </trkpt>
      <trkpt lat="44.30501" lon="6.06951">
        <ele>901</ele>
        <time>2018-05-16T21:55:14Z</time>
      </trkpt>
      <trkpt lat="44.30512" lon="6.07">
        <ele>906</ele>
        <time>2018-05-16T21:56:14Z</time>
      </trkpt>
      <trkpt lat="44.3051" lon="6.07024">
        <ele>908</ele>
        <time>2018-05-16T21:57:14Z</time>
      </trkpt>
      <trkpt lat="44.30509" lon="6.07062">
        <ele>912</ele>
        <time>2018-05-16T21:58:14Z</time>
      </trkpt>
      <trkpt lat="44.30503" lon="6.07087">
        <ele>915</ele>
        <time>2018-05-16T21:59:14Z</time>
      </trkpt>
      <trkpt lat="44.30499" lon="6.07165">
        <ele>925</ele>
        <time>2018-05-16T22:00:14Z</time>
      </trkpt>
      <trkpt lat="44.30515" lon="6.07222">
        <ele>933</ele>
        <time>2018-05-16T22:01:14Z</time>
      </trkpt>
      <trkpt lat="44.30549" lon="6.07272">
        <ele>936</ele>
        <time>2018-05-16T22:02:14Z</time>
      </trkpt>
      <trkpt lat="44.30592" lon="6.07316">
        <ele>938</ele>
        <time>2018-05-16T22:03:14Z</time>
      </trkpt>
      <trkpt lat="44.30629" lon="6.07344">
        <ele>939</ele>
        <time>2018-05-16T22:04:14Z</time>
      </trkpt>
      <trkpt lat="44.3063" lon="6.07397">
        <ele>948</ele>
        <time>2018-05-16T22:05:14Z</time>
      </trkpt>
      <trkpt lat="44.30634" lon="6.07444">
        <ele>950</ele>
        <time>2018-05-16T22:06:14Z</time>
      </trkpt>
      <trkpt lat="44.30628" lon="6.07466">
        <ele>951</ele>
        <time>2018-05-16T22:07:14Z</time>
      </trkpt>
      <trkpt lat="44.306" lon="6.07535">
        <ele>955</ele>
        <time>2018-05-16T22:08:14Z</time>
      </trkpt>
      <trkpt lat="44.30578" lon="6.07571">
        <ele>960</ele>
        <time>2018-05-16T22:09:14Z</time>
      </trkpt>
      <trkpt lat="44.30609" lon="6.07602">
        <ele>959</ele>
        <time>2018-05-16T22:10:14Z</time>
      </trkpt>
      <trkpt lat="44.30654" lon="6.0775">
        <ele>983</ele>
        <time>2018-05-16T22:11:14Z</time>
      </trkpt>
      <trkpt lat="44.30677" lon="6.07806">
        <ele>985</ele>
        <time>2018-05-16T22:12:14Z</time>
      </trkpt>
      <trkpt lat="44.30681" lon="6.07854">
        <ele>991</ele>
        <time>2018-05-16T22:13:14Z</time>
      </trkpt>
      <trkpt lat="44.3068" lon="6.07959">
        <ele>1002</ele>
        <time>2018-05-16T22:14:14Z</time>
      </trkpt>
      <trkpt lat="44.30709" lon="6.08071">
        <ele>1012</ele>
        <time>2018-05-16T22:15:14Z</time>
      </trkpt>
      <trkpt lat="44.30682" lon="6.08261">
        <ele>1028</ele>
        <time>2018-05-16T22:16:14Z</time>
      </trkpt>
      <trkpt lat="44.30705" lon="6.08298">
        <ele>1035</ele>
        <time>2018-05-16T22:17:14Z</time>
      </trkpt>
      <trkpt lat="44.30704" lon="6.08397">
        <ele>1053</ele>
        <time>2018-05-16T22:18:14Z</time>
      </trkpt>
      <trkpt lat="44.30671" lon="6.08419">
        <ele>1059</ele>
        <time>2018-05-16T22:19:14Z</time>
      </trkpt>
      <trkpt lat="44.30663" lon="6.08446">
        <ele>1065</ele>
        <time>2018-05-16T22:20:14Z</time>
      </trkpt>
      <trkpt lat="44.30622" lon="6.08474">
        <ele>1079</ele>
        <time>2018-05-16T22:21:14Z</time>
      </trkpt>
      <trkpt lat="44.3059" lon="6.08478">
        <ele>1086</ele>
        <time>2018-05-16T22:22:14Z</time>
      </trkpt>
      <trkpt lat="44.30542" lon="6.08445">
        <ele>1094</ele>
        <time>2018-05-16T22:23:14Z</time>
      </trkpt>
      <trkpt lat="44.30459" lon="6.0846">
        <ele>1113</ele>
        <time>2018-05-16T22:24:14Z</time>
      </trkpt>
      <trkpt lat="44.30349" lon="6.08494">
        <ele>1139</ele>
        <time>2018-05-16T22:25:14Z</time>
      </trkpt>
      <trkpt lat="44.30261" lon="6.08492">
        <ele>1182</ele>
        <time>2018-05-16T22:26:14Z</time>
      </trkpt>
      <trkpt lat="44.30187" lon="6.08381">
        <ele>1206</ele>
        <time>2018-05-16T22:27:14Z</time>
      </trkpt>
      <trkpt lat="44.30167" lon="6.08364">
        <ele>1212</ele>
        <time>2018-05-16T22:28:14Z</time>
      </trkpt>
      <trkpt lat="44.3015" lon="6.08364">
        <ele>1218</ele>
        <time>2018-05-16T22:29:14Z</time>
      </trkpt>
      <trkpt lat="44.3014" lon="6.08379">
        <ele>1225</ele>
        <time>2018-05-16T22:30:14Z</time>
      </trkpt>
      <trkpt lat="44.30154" lon="6.08434">
        <ele>1231</ele>
        <time>2018-05-16T22:31:14Z</time>
      </trkpt>
      <trkpt lat="44.30167" lon="6.0848">
        <ele>1235</ele>
        <time>2018-05-16T22:32:14Z</time>
      </trkpt>
      <trkpt lat="44.3016" lon="6.08547">
        <ele>1241</ele>
        <time>2018-05-16T22:33:14Z</time>
      </trkpt>
      <trkpt lat="44.30127" lon="6.08601">
        <ele>1250</ele>
        <time>2018-05-16T22:34:14Z</time>
      </trkpt>
      <trkpt lat="44.30111" lon="6.08618">
        <ele>1256</ele>
        <time>2018-05-16T22:35:14Z</time>
      </trkpt>
      <trkpt lat="44.30062" lon="6.08603">
        <ele>1263</ele>
        <time>2018-05-16T22:36:14Z</time>
      </trkpt>
      <trkpt lat="44.30017" lon="6.08593">
        <ele>1270</ele>
        <time>2018-05-16T22:37:14Z</time>
      </trkpt>
      <trkpt lat="44.30012" lon="6.08616">
        <ele>1276</ele>
        <time>2018-05-16T22:38:14Z</time>
      </trkpt>
      <trkpt lat="44.30044" lon="6.08665">
        <ele>1280</ele>
        <time>2018-05-16T22:39:14Z</time>
      </trkpt>
      <trkpt lat="44.30043" lon="6.08679">
        <ele>1284</ele>
        <time>2018-05-16T22:40:14Z</time>
      </trkpt>
      <trkpt lat="44.30021" lon="6.08671">
        <ele>1286</ele>
        <time>2018-05-16T22:41:14Z</time>
      </trkpt>
      <trkpt lat="44.30029" lon="6.087">
        <ele>1293</ele>
        <time>2018-05-16T22:42:14Z</time>
      </trkpt>
      <trkpt lat="44.29983" lon="6.08694">
        <ele>1303</ele>
        <time>2018-05-16T22:43:14Z</time>
      </trkpt>
      <trkpt lat="44.29985" lon="6.08714">
        <ele>1309</ele>
        <time>2018-05-16T22:44:14Z</time>
      </trkpt>
      <trkpt lat="44.30067" lon="6.08775">
        <ele>1311</ele>
        <time>2018-05-16T22:45:14Z</time>
      </trkpt>
      <trkpt lat="44.30103" lon="6.08809">
        <ele>1314</ele>
        <time>2018-05-16T22:46:14Z</time>
      </trkpt>
      <trkpt lat="44.30105" lon="6.08852">
        <ele>1331</ele>
        <time>2018-05-16T22:47:14Z</time>
      </trkpt>
      <trkpt lat="44.30168" lon="6.08897">
        <ele>1329</ele>
        <time>2018-05-16T22:48:14Z</time>
      </trkpt>
      <trkpt lat="44.30155" lon="6.08907">
        <ele>1338</ele>
        <time>2018-05-16T22:49:14Z</time>
      </trkpt>
      <trkpt lat="44.30146" lon="6.08935">
        <ele>1355</ele>
        <time>2018-05-16T22:50:14Z</time>
      </trkpt>
      <trkpt lat="44.30041" lon="6.08867">
        <ele>1363</ele>
        <time>2018-05-16T22:51:14Z</time>
      </trkpt>
      <trkpt lat="44.3004" lon="6.08889">
        <ele>1374</ele>
        <time>2018-05-16T22:52:14Z</time>
      </trkpt>
      <trkpt lat="44.30013" lon="6.08884">
        <ele>1383</ele>
        <time>2018-05-16T22:53:14Z</time>
      </trkpt>
      <trkpt lat="44.30003" lon="6.08903">
        <ele>1397</ele>
        <time>2018-05-16T22:54:14Z</time>
      </trkpt>
      <trkpt lat="44.29975" lon="6.08887">
        <ele>1394</ele>
        <time>2018-05-16T22:55:14Z</time>
      </trkpt>
      <trkpt lat="44.29965" lon="6.08908">
        <ele>1406</ele>
        <time>2018-05-16T22:56:14Z</time>
      </trkpt>
      <trkpt lat="44.29925" lon="6.08903">
        <ele>1410</ele>
        <time>2018-05-16T22:57:14Z</time>
      </trkpt>
      <trkpt lat="44.29891" lon="6.08894">
        <ele>1407</ele>
        <time>2018-05-16T22:58:14Z</time>
      </trkpt>
      <trkpt lat="44.2988" lon="6.08916">
        <ele>1413</ele>
        <time>2018-05-16T22:59:14Z</time>
      </trkpt>
      <trkpt lat="44.29917" lon="6.08942">
        <ele>1423</ele>
        <time>2018-05-16T23:00:14Z</time>
      </trkpt>
      <trkpt lat="44.29966" lon="6.08965">
        <ele>1422</ele>
        <time>2018-05-16T23:01:14Z</time>
      </trkpt>
      <trkpt lat="44.29972" lon="6.08995">
        <ele>1429</ele>
        <time>2018-05-16T23:02:14Z</time>
      </trkpt>
      <trkpt lat="44.29883" lon="6.09038">
        <ele>1442</ele>
        <time>2018-05-16T23:03:14Z</time>
      </trkpt>
      <trkpt lat="44.29822" lon="6.09069">
        <ele>1449</ele>
        <time>2018-05-16T23:04:14Z</time>
      </trkpt>
      <trkpt lat="44.29731" lon="6.09068">
        <ele>1448</ele>
        <time>2018-05-16T23:05:14Z</time>
      </trkpt>
      <trkpt lat="44.29666" lon="6.09045">
        <ele>1452</ele>
        <time>2018-05-16T23:06:14Z</time>
      </trkpt>
      <trkpt lat="44.29624" lon="6.09065">
        <ele>1453</ele>
        <time>2018-05-16T23:07:14Z</time>
      </trkpt>
      <trkpt lat="44.29528" lon="6.09072">
        <ele>1457</ele>
        <time>2018-05-16T23:08:14Z</time>
      </trkpt>
      <trkpt lat="44.2946" lon="6.09094">
        <ele>1460</ele>
        <time>2018-05-16T23:09:14Z</time>
      </trkpt>
      <trkpt lat="44.2938" lon="6.09189">
        <ele>1459</ele>
        <time>2018-05-16T23:10:14Z</time>
      </trkpt>
      <trkpt lat="44.29354" lon="6.09196">
        <ele>1463</ele>
        <time>2018-05-16T23:11:14Z</time>
      </trkpt>
      <trkpt lat="44.29331" lon="6.09256">
        <ele>1460</ele>
        <time>2018-05-16T23:12:14Z</time>
      </trkpt>
      <trkpt lat="44.29293" lon="6.09337">
        <ele>1458</ele>
        <time>2018-05-16T23:13:14Z</time>
      </trkpt>
      <trkpt lat="44.29287" lon="6.09418">
        <ele>1457</ele>
        <time>2018-05-16T23:14:14Z</time>
      </trkpt>
      <trkpt lat="44.2922" lon="6.09603">
        <ele>1461</ele>
        <time>2018-05-16T23:15:14Z</time>
      </trkpt>
      <trkpt lat="44.2922" lon="6.09692">
        <ele>1458</ele>
        <time>2018-05-16T23:16:14Z</time>
      </trkpt>
      <trkpt lat="44.2921" lon="6.09698">
        <ele>1459</ele>
        <time>2018-05-16T23:17:14Z</time>
      </trkpt>
      <trkpt lat="44.29139" lon="6.09628">
        <ele>1479</ele>
        <time>2018-05-16T23:18:14Z</time>
      </trkpt>
      <trkpt lat="44.29092" lon="6.09661">
        <ele>1487</ele>
        <time>2018-05-16T23:19:14Z</time>
      </trkpt>
      <trkpt lat="44.2904" lon="6.09646">
        <ele>1496</ele>
        <time>2018-05-16T23:20:14Z</time>
      </trkpt>
      <trkpt lat="44.28993" lon="6.09681">
        <ele>1498</ele>
        <time>2018-05-16T23:21:14Z</time>
      </trkpt>
      <trkpt lat="44.28934" lon="6.09679">
        <ele>1508</ele>
        <time>2018-05-16T23:22:14Z</time>
      </trkpt>
      <trkpt lat="44.28883" lon="6.09711">
        <ele>1516</ele>
        <time>2018-05-16T23:23:14Z</time>
      </trkpt>
      <trkpt lat="44.28819" lon="6.09782">
        <ele>1525</ele>
        <time>2018-05-16T23:24:14Z</time>
      </trkpt>
      <trkpt lat="44.28746" lon="6.09832">
        <ele>1533</ele>
        <time>2018-05-16T23:25:14Z</time>
      </trkpt>
      <trkpt lat="44.28662" lon="6.09878">
        <ele>1547</ele>
        <time>2018-05-16T23:26:14Z</time>
      </trkpt>
      <trkpt lat="44.2864" lon="6.09918">
        <ele>1547</ele>
        <time>2018-05-16T23:27:14Z</time>
      </trkpt>
      <trkpt lat="44.28594" lon="6.09971">
        <ele>1552</ele>
        <time>2018-05-16T23:28:14Z</time>
      </trkpt>
      <trkpt lat="44.28512" lon="6.10037">
        <ele>1565</ele>
        <time>2018-05-16T23:29:14Z</time>
      </trkpt>
      <trkpt lat="44.28446" lon="6.1005">
        <ele>1586</ele>
        <time>2018-05-16T23:30:14Z</time>
      </trkpt>
      <trkpt lat="44.28382" lon="6.10069">
        <ele>1607</ele>
        <time>2018-05-16T23:31:14Z</time>
      </trkpt>
      <trkpt lat="44.28334" lon="6.10107">
        <ele>1621</ele>
        <time>2018-05-16T23:32:14Z</time>
      </trkpt>
      <trkpt lat="44.28299" lon="6.10176">
        <ele>1627</ele>
        <time>2018-05-16T23:33:14Z</time>
      </trkpt>
      <trkpt lat="44.28245" lon="6.10361">
        <ele>1638</ele>
        <time>2018-05-16T23:34:14Z</time>
      </trkpt>
      <trkpt lat="44.28181" lon="6.10513">
        <ele>1646</ele>
        <time>2018-05-16T23:35:14Z</time>
      </trkpt>
      <trkpt lat="44.2817" lon="6.10569">
        <ele>1643</ele>
        <time>2018-05-16T23:36:14Z</time>
      </trkpt>
      <trkpt lat="44.28131" lon="6.10636">
        <ele>1646</ele>
        <time>2018-05-16T23:37:14Z</time>
      </trkpt>
      <trkpt lat="44.28045" lon="6.1086">
        <ele>1646</ele>
        <time>2018-05-16T23:38:14Z</time>
      </trkpt>
      <trkpt lat="44.28" lon="6.11031">
        <ele>1639</ele>
        <time>2018-05-16T23:39:14Z</time>
      </trkpt>
      <trkpt lat="44.27976" lon="6.1113">
        <ele>1636</ele>
        <time>2018-05-16T23:40:14Z</time>
      </trkpt>
      <trkpt lat="44.27942" lon="6.11216">
        <ele>1635</ele>
        <time>2018-05-16T23:41:14Z</time>
      </trkpt>
      <trkpt lat="44.27885" lon="6.11324">
        <ele>1633</ele>
        <time>2018-05-16T23:42:14Z</time>
      </trkpt>
      <trkpt lat="44.27814" lon="6.11404">
        <ele>1639</ele>
        <time>2018-05-16T23:43:14Z</time>
      </trkpt>
      <trkpt lat="44.27791" lon="6.11495">
        <ele>1625</ele>
        <time>2018-05-16T23:44:14Z</time>
      </trkpt>
      <trkpt lat="44.27721" lon="6.11704">
        <ele>1613</ele>
        <time>2018-05-16T23:45:14Z</time>
      </trkpt>
      <trkpt lat="44.27699" lon="6.11795">
        <ele>1610</ele>
        <time>2018-05-16T23:46:14Z</time>
      </trkpt>
      <trkpt lat="44.27684" lon="6.11912">
        <ele>1605</ele>
        <time>2018-05-16T23:47:14Z</time>
      </trkpt>
      <trkpt lat="44.27699" lon="6.1199">
        <ele>1596</ele>
        <time>2018-05-16T23:48:14Z</time>
      </trkpt>
      <trkpt lat="44.27692" lon="6.12063">
        <ele>1591</ele>
        <time>2018-05-16T23:49:14Z</time>
      </trkpt>
      <trkpt lat="44.2763" lon="6.12201">
        <ele>1594</ele>
        <time>2018-05-16T23:50:14Z</time>
      </trkpt>
      <trkpt lat="44.27629" lon="6.12247">
        <ele>1586</ele>
        <time>2018-05-16T23:51:14Z</time>
      </trkpt>
      <trkpt lat="44.27586" lon="6.12334">
        <ele>1587</ele>
        <time>2018-05-16T23:52:14Z</time>
      </trkpt>
      <trkpt lat="44.27576" lon="6.12402">
        <ele>1583</ele>
        <time>2018-05-16T23:53:14Z</time>
      </trkpt>
      <trkpt lat="44.27558" lon="6.12451">
        <ele>1583</ele>
        <time>2018-05-16T23:54:14Z</time>
      </trkpt>
      <trkpt lat="44.27555" lon="6.1256">
        <ele>1571</ele>
        <time>2018-05-16T23:55:14Z</time>
      </trkpt>
      <trkpt lat="44.2755" lon="6.12627">
        <ele>1566</ele>
        <time>2018-05-16T23:56:14Z</time>
      </trkpt>
      <trkpt lat="44.27539" lon="6.127">
        <ele>1562</ele>
        <time>2018-05-16T23:57:14Z</time>
      </trkpt>
      <trkpt lat="44.27558" lon="6.12777">
        <ele>1551</ele>
        <time>2018-05-16T23:58:14Z</time>
      </trkpt>
      <trkpt lat="44.27537" lon="6.12901">
        <ele>1544</ele>
        <time>2018-05-16T23:59:14Z</time>
      </trkpt>
      <trkpt lat="44.27475" lon="6.13111">
        <ele>1526</ele>
        <time>2018-05-17T00:00:14Z</time>
      </trkpt>
      <trkpt lat="44.27493" lon="6.13296">
        <ele>1486</ele>
        <time>2018-05-17T00:01:14Z</time>
      </trkpt>
      <trkpt lat="44.27492" lon="6.13429">
        <ele>1458</ele>
        <time>2018-05-17T00:02:14Z</time>
      </trkpt>
      <trkpt lat="44.27477" lon="6.13587">
        <ele>1441</ele>
        <time>2018-05-17T00:03:14Z</time>
      </trkpt>
      <trkpt lat="44.2749" lon="6.13621">
        <ele>1436</ele>
        <time>2018-05-17T00:04:14Z</time>
      </trkpt>
      <trkpt lat="44.27503" lon="6.13625">
        <ele>1429</ele>
        <time>2018-05-17T00:05:14Z</time>
      </trkpt>
      <trkpt lat="44.27545" lon="6.13572">
        <ele>1418</ele>
        <time>2018-05-17T00:06:14Z</time>
      </trkpt>
      <trkpt lat="44.27574" lon="6.13605">
        <ele>1405</ele>
        <time>2018-05-17T00:07:14Z</time>
      </trkpt>
      <trkpt lat="44.27575" lon="6.13694">
        <ele>1399</ele>
        <time>2018-05-17T00:08:14Z</time>
      </trkpt>
      <trkpt lat="44.27589" lon="6.13731">
        <ele>1393</ele>
        <time>2018-05-17T00:09:14Z</time>
      </trkpt>
      <trkpt lat="44.27647" lon="6.13773">
        <ele>1373</ele>
        <time>2018-05-17T00:10:14Z</time>
      </trkpt>
      <trkpt lat="44.27655" lon="6.13793">
        <ele>1370</ele>
        <time>2018-05-17T00:11:14Z</time>
      </trkpt>
      <trkpt lat="44.27631" lon="6.13877">
        <ele>1371</ele>
        <time>2018-05-17T00:12:14Z</time>
      </trkpt>
      <trkpt lat="44.27634" lon="6.13912">
        <ele>1366</ele>
        <time>2018-05-17T00:13:14Z</time>
      </trkpt>
      <trkpt lat="44.27663" lon="6.13938">
        <ele>1354</ele>
        <time>2018-05-17T00:14:14Z</time>
      </trkpt>
      <trkpt lat="44.27675" lon="6.13969">
        <ele>1349</ele>
        <time>2018-05-17T00:15:14Z</time>
      </trkpt>
      <trkpt lat="44.27694" lon="6.1397">
        <ele>1344</ele>
        <time>2018-05-17T00:16:14Z</time>
      </trkpt>
      <trkpt lat="44.27717" lon="6.13998">
        <ele>1339</ele>
        <time>2018-05-17T00:17:14Z</time>
      </trkpt>
      <trkpt lat="44.27739" lon="6.14022">
        <ele>1333</ele>
        <time>2018-05-17T00:18:14Z</time>
      </trkpt>
      <trkpt lat="44.27772" lon="6.13979">
        <ele>1322</ele>
        <time>2018-05-17T00:19:14Z</time>
      </trkpt>
      <trkpt lat="44.27806" lon="6.13987">
        <ele>1310</ele>
        <time>2018-05-17T00:20:14Z</time>
      </trkpt>
      <trkpt lat="44.27843" lon="6.14007">
        <ele>1296</ele>
        <time>2018-05-17T00:21:14Z</time>
      </trkpt>
      <trkpt lat="44.27922" lon="6.14052">
        <ele>1272</ele>
        <time>2018-05-17T00:22:14Z</time>
      </trkpt>
      <trkpt lat="44.27942" lon="6.14078">
        <ele>1267</ele>
        <time>2018-05-17T00:23:14Z</time>
      </trkpt>
      <trkpt lat="44.27979" lon="6.14192">
        <ele>1246</ele>
        <time>2018-05-17T00:24:14Z</time>
      </trkpt>
      <trkpt lat="44.2802" lon="6.14182">
        <ele>1232</ele>
        <time>2018-05-17T00:25:14Z</time>
      </trkpt>
      <trkpt lat="44.2803" lon="6.1416">
        <ele>1230</ele>
        <time>2018-05-17T00:26:14Z</time>
      </trkpt>
      <trkpt lat="44.28031" lon="6.1404">
        <ele>1221</ele>
        <time>2018-05-17T00:27:14Z</time>
      </trkpt>
      <trkpt lat="44.28024" lon="6.13949">
        <ele>1221</ele>
        <time>2018-05-17T00:28:14Z</time>
      </trkpt>
      <trkpt lat="44.28044" lon="6.13933">
        <ele>1216</ele>
        <time>2018-05-17T00:29:14Z</time>
      </trkpt>
      <trkpt lat="44.28073" lon="6.13909">
        <ele>1210</ele>
        <time>2018-05-17T00:30:14Z</time>
      </trkpt>
      <trkpt lat="44.28102" lon="6.13891">
        <ele>1207</ele>
        <time>2018-05-17T00:31:14Z</time>
      </trkpt>
      <trkpt lat="44.28141" lon="6.139">
        <ele>1197</ele>
        <time>2018-05-17T00:32:14Z</time>
      </trkpt>
      <trkpt lat="44.28181" lon="6.13946">
        <ele>1181</ele>
        <time>2018-05-17T00:33:14Z</time>
      </trkpt>
      <trkpt lat="44.28229" lon="6.13953">
        <ele>1164</ele>
        <time>2018-05-17T00:34:14Z</time>
      </trkpt>
      <trkpt lat="44.28236" lon="6.14032">
        <ele>1152</ele>
        <time>2018-05-17T00:35:14Z</time>
      </trkpt>
      <trkpt lat="44.28254" lon="6.14053">
        <ele>1144</ele>
        <time>2018-05-17T00:36:14Z</time>
      </trkpt>
      <trkpt lat="44.28293" lon="6.14049">
        <ele>1132</ele>
        <time>2018-05-17T00:37:14Z</time>
      </trkpt>
      <trkpt lat="44.28308" lon="6.14067">
        <ele>1126</ele>
        <time>2018-05-17T00:38:14Z</time>
      </trkpt>
      <trkpt lat="44.28337" lon="6.14059">
        <ele>1119</ele>
        <time>2018-05-17T00:39:14Z</time>
      </trkpt>
      <trkpt lat="44.28327" lon="6.14103">
        <ele>1116</ele>
        <time>2018-05-17T00:40:14Z</time>
      </trkpt>
      <trkpt lat="44.28372" lon="6.14102">
        <ele>1114</ele>
        <time>2018-05-17T00:41:14Z</time>
      </trkpt>
      <trkpt lat="44.28375" lon="6.1413">
        <ele>1110</ele>
        <time>2018-05-17T00:42:14Z</time>
      </trkpt>
      <trkpt lat="44.28389" lon="6.14158">
        <ele>1107</ele>
        <time>2018-05-17T00:43:14Z</time>
      </trkpt>
      <trkpt lat="44.28412" lon="6.14179">
        <ele>1104</ele>
        <time>2018-05-17T00:44:14Z</time>
      </trkpt>
      <trkpt lat="44.28419" lon="6.14194">
        <ele>1102</ele>
        <time>2018-05-17T00:45:14Z</time>
      </trkpt>
      <trkpt lat="44.28425" lon="6.14258">
        <ele>1096</ele>
        <time>2018-05-17T00:46:14Z</time>
      </trkpt>
      <trkpt lat="44.28489" lon="6.14326">
        <ele>1097</ele>
        <time>2018-05-17T00:47:14Z</time>
      </trkpt>
      <trkpt lat="44.28552" lon="6.14372">
        <ele>1102</ele>
        <time>2018-05-17T00:48:14Z</time>
      </trkpt>
      <trkpt lat="44.28568" lon="6.14405">
        <ele>1100</ele>
        <time>2018-05-17T00:49:14Z</time>
      </trkpt>
      <trkpt lat="44.2856" lon="6.14443">
        <ele>1096</ele>
        <time>2018-05-17T00:50:14Z</time>
      </trkpt>
      <trkpt lat="44.2858" lon="6.14509">
        <ele>1095</ele>
        <time>2018-05-17T00:51:14Z</time>
      </trkpt>
      <trkpt lat="44.2865" lon="6.14669">
        <ele>1094</ele>
        <time>2018-05-17T00:52:14Z</time>
      </trkpt>
      <trkpt lat="44.28711" lon="6.14732">
        <ele>1083</ele>
        <time>2018-05-17T00:53:14Z</time>
      </trkpt>
      <trkpt lat="44.28826" lon="6.14775">
        <ele>1077</ele>
        <time>2018-05-17T00:54:14Z</time>
      </trkpt>
      <trkpt lat="44.28829" lon="6.14809">
        <ele>1072</ele>
        <time>2018-05-17T00:55:14Z</time>
      </trkpt>
      <trkpt lat="44.28873" lon="6.1483">
        <ele>1065</ele>
        <time>2018-05-17T00:56:14Z</time>
      </trkpt>
      <trkpt lat="44.28912" lon="6.14863">
        <ele>1067</ele>
        <time>2018-05-17T00:57:14Z</time>
      </trkpt>
      <trkpt lat="44.28949" lon="6.14874">
        <ele>1064</ele>
        <time>2018-05-17T00:58:14Z</time>
      </trkpt>
      <trkpt lat="44.2896" lon="6.14885">
        <ele>1064</ele>
        <time>2018-05-17T00:59:14Z</time>
      </trkpt>
      <trkpt lat="44.28942" lon="6.14987">
        <ele>1074</ele>
        <time>2018-05-17T01:00:14Z</time>
      </trkpt>
      <trkpt lat="44.28942" lon="6.15027">
        <ele>1075</ele>
        <time>2018-05-17T01:01:14Z</time>
      </trkpt>
      <trkpt lat="44.28963" lon="6.15066">
        <ele>1075</ele>
        <time>2018-05-17T01:02:14Z</time>
      </trkpt>
      <trkpt lat="44.28995" lon="6.15077">
        <ele>1074</ele>
        <time>2018-05-17T01:03:14Z</time>
      </trkpt>
      <trkpt lat="44.29011" lon="6.15112">
        <ele>1081</ele>
        <time>2018-05-17T01:04:14Z</time>
      </trkpt>
      <trkpt lat="44.29027" lon="6.1511">
        <ele>1082</ele>
        <time>2018-05-17T01:05:14Z</time>
      </trkpt>
      <trkpt lat="44.29051" lon="6.15075">
        <ele>1077</ele>
        <time>2018-05-17T01:06:14Z</time>
      </trkpt>
      <trkpt lat="44.29083" lon="6.15051">
        <ele>1075</ele>
        <time>2018-05-17T01:07:14Z</time>
      </trkpt>
      <trkpt lat="44.29101" lon="6.15047">
        <ele>1078</ele>
        <time>2018-05-17T01:08:14Z</time>
      </trkpt>
      <trkpt lat="44.29101" lon="6.15063">
        <ele>1081</ele>
        <time>2018-05-17T01:09:14Z</time>
      </trkpt>
      <trkpt lat="44.29079" lon="6.1511">
        <ele>1086</ele>
        <time>2018-05-17T01:10:14Z</time>
      </trkpt>
      <trkpt lat="44.29046" lon="6.15152">
        <ele>1091</ele>
        <time>2018-05-17T01:11:14Z</time>
      </trkpt>
      <trkpt lat="44.29047" lon="6.15248">
        <ele>1107</ele>
        <time>2018-05-17T01:12:14Z</time>
      </trkpt>
      <trkpt lat="44.29026" lon="6.15271">
        <ele>1107</ele>
        <time>2018-05-17T01:13:14Z</time>
      </trkpt>
      <trkpt lat="44.28987" lon="6.1527">
        <ele>1103</ele>
        <time>2018-05-17T01:14:14Z</time>
      </trkpt>
      <trkpt lat="44.28966" lon="6.15296">
        <ele>1108</ele>
        <time>2018-05-17T01:15:14Z</time>
      </trkpt>
      <trkpt lat="44.2895" lon="6.15336">
        <ele>1115</ele>
        <time>2018-05-17T01:16:14Z</time>
      </trkpt>
      <trkpt lat="44.2893" lon="6.15405">
        <ele>1129</ele>
        <time>2018-05-17T01:17:14Z</time>
      </trkpt>
      <trkpt lat="44.28916" lon="6.15537">
        <ele>1147</ele>
        <time>2018-05-17T01:18:14Z</time>
      </trkpt>
      <trkpt lat="44.28926" lon="6.15613">
        <ele>1151</ele>
        <time>2018-05-17T01:19:14Z</time>
      </trkpt>
      <trkpt lat="44.28917" lon="6.15689">
        <ele>1159</ele>
        <time>2018-05-17T01:20:14Z</time>
      </trkpt>
      <trkpt lat="44.28876" lon="6.15729">
        <ele>1165</ele>
        <time>2018-05-17T01:21:14Z</time>
      </trkpt>
      <trkpt lat="44.28864" lon="6.15784">
        <ele>1167</ele>
        <time>2018-05-17T01:22:14Z</time>
      </trkpt>
      <trkpt lat="44.28864" lon="6.15828">
        <ele>1169</ele>
        <time>2018-05-17T01:23:14Z</time>
      </trkpt>
      <trkpt lat="44.28877" lon="6.15884">
        <ele>1173</ele>
        <time>2018-05-17T01:24:14Z</time>
      </trkpt>
      <trkpt lat="44.28878" lon="6.15917">
        <ele>1174</ele>
        <time>2018-05-17T01:25:14Z</time>
      </trkpt>
      <trkpt lat="44.2885" lon="6.15976">
        <ele>1176</ele>
        <time>2018-05-17T01:26:14Z</time>
      </trkpt>
      <trkpt lat="44.28851" lon="6.1606">
        <ele>1184</ele>
        <time>2018-05-17T01:27:14Z</time>
      </trkpt>
      <trkpt lat="44.28832" lon="6.16126">
        <ele>1194</ele>
        <time>2018-05-17T01:28:14Z</time>
      </trkpt>
      <trkpt lat="44.28792" lon="6.16133">
        <ele>1198</ele>
        <time>2018-05-17T01:29:14Z</time>
      </trkpt>
      <trkpt lat="44.2877" lon="6.16168">
        <ele>1203</ele>
        <time>2018-05-17T01:30:14Z</time>
      </trkpt>
      <trkpt lat="44.28746" lon="6.1618">
        <ele>1205</ele>
        <time>2018-05-17T01:31:14Z</time>
      </trkpt>
      <trkpt lat="44.28731" lon="6.16256">
        <ele>1214</ele>
        <time>2018-05-17T01:32:14Z</time>
      </trkpt>
      <trkpt lat="44.28699" lon="6.16279">
        <ele>1215</ele>
        <time>2018-05-17T01:33:14Z</time>
      </trkpt>
      <trkpt lat="44.28697" lon="6.16303">
        <ele>1219</ele>
        <time>2018-05-17T01:34:14Z</time>
      </trkpt>
      <trkpt lat="44.28669" lon="6.16328">
        <ele>1219</ele>
        <time>2018-05-17T01:35:14Z</time>
      </trkpt>
      <trkpt lat="44.28642" lon="6.16294">
        <ele>1217</ele>
        <time>2018-05-17T01:36:14Z</time>
      </trkpt>
      <trkpt lat="44.28615" lon="6.16292">
        <ele>1219</ele>
        <time>2018-05-17T01:37:14Z</time>
      </trkpt>
      <trkpt lat="44.28597" lon="6.16267">
        <ele>1214</ele>
        <time>2018-05-17T01:38:14Z</time>
      </trkpt>
      <trkpt lat="44.28568" lon="6.16297">
        <ele>1224</ele>
        <time>2018-05-17T01:39:14Z</time>
      </trkpt>
      <trkpt lat="44.28537" lon="6.16292">
        <ele>1225</ele>
        <time>2018-05-17T01:40:14Z</time>
      </trkpt>
      <trkpt lat="44.28518" lon="6.16328">
        <ele>1233</ele>
        <time>2018-05-17T01:41:14Z</time>
      </trkpt>
      <trkpt lat="44.28477" lon="6.16374">
        <ele>1236</ele>
        <time>2018-05-17T01:42:14Z</time>
      </trkpt>
      <trkpt lat="44.28427" lon="6.16496">
        <ele>1251</ele>
        <time>2018-05-17T01:43:14Z</time>
      </trkpt>
      <trkpt lat="44.28377" lon="6.16558">
        <ele>1248</ele>
        <time>2018-05-17T01:44:14Z</time>
      </trkpt>
      <trkpt lat="44.28386" lon="6.16615">
        <ele>1259</ele>
        <time>2018-05-17T01:45:14Z</time>
      </trkpt>
      <trkpt lat="44.28354" lon="6.16676">
        <ele>1256</ele>
        <time>2018-05-17T01:46:14Z</time>
      </trkpt>
      <trkpt lat="44.28357" lon="6.16729">
        <ele>1265</ele>
        <time>2018-05-17T01:47:14Z</time>
      </trkpt>
      <trkpt lat="44.2834" lon="6.16736">
        <ele>1260</ele>
        <time>2018-05-17T01:48:14Z</time>
      </trkpt>
      <trkpt lat="44.28308" lon="6.16784">
        <ele>1267</ele>
        <time>2018-05-17T01:49:14Z</time>
      </trkpt>
      <trkpt lat="44.28306" lon="6.16819">
        <ele>1275</ele>
        <time>2018-05-17T01:50:14Z</time>
      </trkpt>
      <trkpt lat="44.28283" lon="6.16848">
        <ele>1279</ele>
        <time>2018-05-17T01:51:14Z</time>
      </trkpt>
      <trkpt lat="44.28277" lon="6.16869">
        <ele>1283</ele>
        <time>2018-05-17T01:52:14Z</time>
      </trkpt>
      <trkpt lat="44.28264" lon="6.16944">
        <ele>1298</ele>
        <time>2018-05-17T01:53:14Z</time>
      </trkpt>
      <trkpt lat="44.28218" lon="6.17141">
        <ele>1340</ele>
        <time>2018-05-17T01:54:14Z</time>
      </trkpt>
      <trkpt lat="44.28182" lon="6.17167">
        <ele>1340</ele>
        <time>2018-05-17T01:55:14Z</time>
      </trkpt>
      <trkpt lat="44.28144" lon="6.17207">
        <ele>1344</ele>
        <time>2018-05-17T01:56:14Z</time>
      </trkpt>
      <trkpt lat="44.28127" lon="6.17252">
        <ele>1351</ele>
        <time>2018-05-17T01:57:14Z</time>
      </trkpt>
      <trkpt lat="44.28118" lon="6.17314">
        <ele>1362</ele>
        <time>2018-05-17T01:58:14Z</time>
      </trkpt>
      <trkpt lat="44.28111" lon="6.17442">
        <ele>1373</ele>
        <time>2018-05-17T01:59:14Z</time>
      </trkpt>
      <trkpt lat="44.28124" lon="6.17467">
        <ele>1383</ele>
        <time>2018-05-17T02:00:14Z</time>
      </trkpt>
      <trkpt lat="44.2812" lon="6.17503">
        <ele>1386</ele>
        <time>2018-05-17T02:01:14Z</time>
      </trkpt>
      <trkpt lat="44.28137" lon="6.1752">
        <ele>1396</ele>
        <time>2018-05-17T02:02:14Z</time>
      </trkpt>
      <trkpt lat="44.28136" lon="6.17552">
        <ele>1402</ele>
        <time>2018-05-17T02:03:14Z</time>
      </trkpt>
      <trkpt lat="44.28157" lon="6.17562">
        <ele>1412</ele>
        <time>2018-05-17T02:04:14Z</time>
      </trkpt>
      <trkpt lat="44.2816" lon="6.17586">
        <ele>1418</ele>
        <time>2018-05-17T02:05:14Z</time>
      </trkpt>
      <trkpt lat="44.28171" lon="6.17588">
        <ele>1423</ele>
        <time>2018-05-17T02:06:14Z</time>
      </trkpt>
      <trkpt lat="44.28177" lon="6.17561">
        <ele>1421</ele>
        <time>2018-05-17T02:07:14Z</time>
      </trkpt>
      <trkpt lat="44.28181" lon="6.17575">
        <ele>1425</ele>
        <time>2018-05-17T02:08:14Z</time>
      </trkpt>
      <trkpt lat="44.28192" lon="6.17576">
        <ele>1431</ele>
        <time>2018-05-17T02:09:14Z</time>
      </trkpt>
      <trkpt lat="44.28199" lon="6.17532">
        <ele>1426</ele>
        <time>2018-05-17T02:10:14Z</time>
      </trkpt>
      <trkpt lat="44.28211" lon="6.17565">
        <ele>1438</ele>
        <time>2018-05-17T02:11:14Z</time>
      </trkpt>
      <trkpt lat="44.28223" lon="6.17531">
        <ele>1438</ele>
        <time>2018-05-17T02:12:14Z</time>
      </trkpt>
      <trkpt lat="44.28231" lon="6.17578">
        <ele>1449</ele>
        <time>2018-05-17T02:13:14Z</time>
      </trkpt>
      <trkpt lat="44.28253" lon="6.17576">
        <ele>1460</ele>
        <time>2018-05-17T02:14:14Z</time>
      </trkpt>
      <trkpt lat="44.28253" lon="6.17612">
        <ele>1470</ele>
        <time>2018-05-17T02:15:14Z</time>
      </trkpt>
      <trkpt lat="44.28261" lon="6.17646">
        <ele>1485</ele>
        <time>2018-05-17T02:16:14Z</time>
      </trkpt>
      <trkpt lat="44.28282" lon="6.17647">
        <ele>1497</ele>
        <time>2018-05-17T02:17:14Z</time>
      </trkpt>
      <trkpt lat="44.28271" lon="6.17671">
        <ele>1498</ele>
        <time>2018-05-17T02:18:14Z</time>
      </trkpt>
      <trkpt lat="44.28256" lon="6.17717">
        <ele>1505</ele>
        <time>2018-05-17T02:19:14Z</time>
      </trkpt>
      <trkpt lat="44.28222" lon="6.17784">
        <ele>1514</ele>
        <time>2018-05-17T02:20:14Z</time>
      </trkpt>
      <trkpt lat="44.28184" lon="6.17854">
        <ele>1528</ele>
        <time>2018-05-17T02:21:14Z</time>
      </trkpt>
      <trkpt lat="44.28142" lon="6.17894">
        <ele>1532</ele>
        <time>2018-05-17T02:22:14Z</time>
      </trkpt>
      <trkpt lat="44.28149" lon="6.17911">
        <ele>1540</ele>
        <time>2018-05-17T02:23:14Z</time>
      </trkpt>
      <trkpt lat="44.28171" lon="6.17904">
        <ele>1542</ele>
        <time>2018-05-17T02:24:14Z</time>
      </trkpt>
      <trkpt lat="44.28183" lon="6.17915">
        <ele>1548</ele>
        <time>2018-05-17T02:25:14Z</time>
      </trkpt>
      <trkpt lat="44.28218" lon="6.17942">
        <ele>1554</ele>
        <time>2018-05-17T02:26:14Z</time>
      </trkpt>
      <trkpt lat="44.28248" lon="6.18155">
        <ele>1556</ele>
        <time>2018-05-17T02:27:14Z</time>
      </trkpt>
      <trkpt lat="44.28276" lon="6.1821">
        <ele>1555</ele>
        <time>2018-05-17T02:28:14Z</time>
      </trkpt>
      <trkpt lat="44.28238" lon="6.18268">
        <ele>1551</ele>
        <time>2018-05-17T02:29:14Z</time>
      </trkpt>
      <trkpt lat="44.28214" lon="6.18293">
        <ele>1552</ele>
        <time>2018-05-17T02:30:14Z</time>
      </trkpt>
      <trkpt lat="44.28185" lon="6.18296">
        <ele>1555</ele>
        <time>2018-05-17T02:31:14Z</time>
      </trkpt>
      <trkpt lat="44.28152" lon="6.18297">
        <ele>1559</ele>
        <time>2018-05-17T02:32:14Z</time>
      </trkpt>
      <trkpt lat="44.28118" lon="6.18334">
        <ele>1567</ele>
        <time>2018-05-17T02:33:14Z</time>
      </trkpt>
      <trkpt lat="44.28086" lon="6.18376">
        <ele>1573</ele>
        <time>2018-05-17T02:34:14Z</time>
      </trkpt>
      <trkpt lat="44.28088" lon="6.18435">
        <ele>1572</ele>
        <time>2018-05-17T02:35:14Z</time>
      </trkpt>
      <trkpt lat="44.28056" lon="6.18506">
        <ele>1575</ele>
        <time>2018-05-17T02:36:14Z</time>
      </trkpt>
      <trkpt lat="44.28021" lon="6.18566">
        <ele>1577</ele>
        <time>2018-05-17T02:37:14Z</time>
      </trkpt>
      <trkpt lat="44.27989" lon="6.1861">
        <ele>1580</ele>
        <time>2018-05-17T02:38:14Z</time>
      </trkpt>
      <trkpt lat="44.2798" lon="6.18643">
        <ele>1580</ele>
        <time>2018-05-17T02:39:14Z</time>
      </trkpt>
      <trkpt lat="44.27997" lon="6.18654">
        <ele>1575</ele>
        <time>2018-05-17T02:40:14Z</time>
      </trkpt>
      <trkpt lat="44.28019" lon="6.18642">
        <ele>1574</ele>
        <time>2018-05-17T02:41:14Z</time>
      </trkpt>
      <trkpt lat="44.28108" lon="6.18649">
        <ele>1568</ele>
        <time>2018-05-17T02:42:14Z</time>
      </trkpt>
      <trkpt lat="44.28188" lon="6.18675">
        <ele>1565</ele>
        <time>2018-05-17T02:43:14Z</time>
      </trkpt>
      <trkpt lat="44.28192" lon="6.18691">
        <ele>1565</ele>
        <time>2018-05-17T02:44:14Z</time>
      </trkpt>
      <trkpt lat="44.28169" lon="6.18717">
        <ele>1572</ele>
        <time>2018-05-17T02:45:14Z</time>
      </trkpt>
      <trkpt lat="44.28169" lon="6.18758">
        <ele>1575</ele>
        <time>2018-05-17T02:46:14Z</time>
      </trkpt>
      <trkpt lat="44.2816" lon="6.18758">
        <ele>1576</ele>
        <time>2018-05-17T02:47:14Z</time>
      </trkpt>
      <trkpt lat="44.28148" lon="6.18737">
        <ele>1576</ele>
        <time>2018-05-17T02:48:14Z</time>
      </trkpt>
      <trkpt lat="44.28126" lon="6.18736">
        <ele>1578</ele>
        <time>2018-05-17T02:49:14Z</time>
      </trkpt>
      <trkpt lat="44.28108" lon="6.18755">
        <ele>1582</ele>
        <time>2018-05-17T02:50:14Z</time>
      </trkpt>
      <trkpt lat="44.28081" lon="6.18815">
        <ele>1591</ele>
        <time>2018-05-17T02:51:14Z</time>
      </trkpt>
      <trkpt lat="44.28071" lon="6.1891">
        <ele>1596</ele>
        <time>2018-05-17T02:52:14Z</time>
      </trkpt>
      <trkpt lat="44.28098" lon="6.18952">
        <ele>1592</ele>
        <time>2018-05-17T02:53:14Z</time>
      </trkpt>
      <trkpt lat="44.28094" lon="6.19005">
        <ele>1594</ele>
        <time>2018-05-17T02:54:14Z</time>
      </trkpt>
      <trkpt lat="44.28052" lon="6.19092">
        <ele>1603</ele>
        <time>2018-05-17T02:55:14Z</time>
      </trkpt>
      <trkpt lat="44.2803" lon="6.19195">
        <ele>1602</ele>
        <time>2018-05-17T02:56:14Z</time>
      </trkpt>
      <trkpt lat="44.27994" lon="6.19251">
        <ele>1609</ele>
        <time>2018-05-17T02:57:14Z</time>
      </trkpt>
      <trkpt lat="44.27967" lon="6.19299">
        <ele>1609</ele>
        <time>2018-05-17T02:58:14Z</time>
      </trkpt>
      <trkpt lat="44.27904" lon="6.19357">
        <ele>1620</ele>
        <time>2018-05-17T02:59:14Z</time>
      </trkpt>
      <trkpt lat="44.27898" lon="6.19467">
        <ele>1611</ele>
        <time>2018-05-17T03:00:14Z</time>
      </trkpt>
      <trkpt lat="44.27868" lon="6.19549">
        <ele>1606</ele>
        <time>2018-05-17T03:01:14Z</time>
      </trkpt>
      <trkpt lat="44.27823" lon="6.19605">
        <ele>1614</ele>
        <time>2018-05-17T03:02:14Z</time>
      </trkpt>
      <trkpt lat="44.27843" lon="6.19677">
        <ele>1604</ele>
        <time>2018-05-17T03:03:14Z</time>
      </trkpt>
      <trkpt lat="44.27887" lon="6.19747">
        <ele>1594</ele>
        <time>2018-05-17T03:04:14Z</time>
      </trkpt>
      <trkpt lat="44.27884" lon="6.1979">
        <ele>1595</ele>
        <time>2018-05-17T03:05:14Z</time>
      </trkpt>
      <trkpt lat="44.27852" lon="6.19874">
        <ele>1597</ele>
        <time>2018-05-17T03:06:14Z</time>
      </trkpt>
      <trkpt lat="44.27789" lon="6.19929">
        <ele>1597</ele>
        <time>2018-05-17T03:07:14Z</time>
      </trkpt>
      <trkpt lat="44.27708" lon="6.19871">
        <ele>1617</ele>
        <time>2018-05-17T03:08:14Z</time>
      </trkpt>
      <trkpt lat="44.27692" lon="6.19882">
        <ele>1616</ele>
        <time>2018-05-17T03:09:14Z</time>
      </trkpt>
      <trkpt lat="44.27706" lon="6.19941">
        <ele>1605</ele>
        <time>2018-05-17T03:10:14Z</time>
      </trkpt>
      <trkpt lat="44.27708" lon="6.19971">
        <ele>1602</ele>
        <time>2018-05-17T03:11:14Z</time>
      </trkpt>
      <trkpt lat="44.27721" lon="6.2001">
        <ele>1596</ele>
        <time>2018-05-17T03:12:14Z</time>
      </trkpt>
      <trkpt lat="44.27743" lon="6.20044">
        <ele>1592</ele>
        <time>2018-05-17T03:13:14Z</time>
      </trkpt>
      <trkpt lat="44.27774" lon="6.20079">
        <ele>1588</ele>
        <time>2018-05-17T03:14:14Z</time>
      </trkpt>
      <trkpt lat="44.27775" lon="6.20108">
        <ele>1588</ele>
        <time>2018-05-17T03:15:14Z</time>
      </trkpt>
      <trkpt lat="44.27743" lon="6.20176">
        <ele>1594</ele>
        <time>2018-05-17T03:16:14Z</time>
      </trkpt>
      <trkpt lat="44.27734" lon="6.20214">
        <ele>1596</ele>
        <time>2018-05-17T03:17:14Z</time>
      </trkpt>
      <trkpt lat="44.27731" lon="6.20293">
        <ele>1594</ele>
        <time>2018-05-17T03:18:14Z</time>
      </trkpt>
      <trkpt lat="44.27712" lon="6.20336">
        <ele>1596</ele>
        <time>2018-05-17T03:19:14Z</time>
      </trkpt>
      <trkpt lat="44.275" lon="6.20517">
        <ele>1626</ele>
        <time>2018-05-17T03:20:14Z</time>
      </trkpt>
      <trkpt lat="44.2741" lon="6.20525">
        <ele>1642</ele>
        <time>2018-05-17T03:21:14Z</time>
      </trkpt>
      <trkpt lat="44.27396" lon="6.20554">
        <ele>1642</ele>
        <time>2018-05-17T03:22:14Z</time>
      </trkpt>
      <trkpt lat="44.27383" lon="6.20595">
        <ele>1642</ele>
        <time>2018-05-17T03:23:14Z</time>
      </trkpt>
      <trkpt lat="44.27275" lon="6.20704">
        <ele>1657</ele>
        <time>2018-05-17T03:24:14Z</time>
      </trkpt>
      <trkpt lat="44.27208" lon="6.20771">
        <ele>1680</ele>
        <time>2018-05-17T03:25:14Z</time>
      </trkpt>
      <trkpt lat="44.27233" lon="6.20808">
        <ele>1680</ele>
        <time>2018-05-17T03:26:14Z</time>
      </trkpt>
      <trkpt lat="44.27255" lon="6.2085">
        <ele>1681</ele>
        <time>2018-05-17T03:27:14Z</time>
      </trkpt>
      <trkpt lat="44.27281" lon="6.20973">
        <ele>1692</ele>
        <time>2018-05-17T03:28:14Z</time>
      </trkpt>
      <trkpt lat="44.27231" lon="6.20943">
        <ele>1696</ele>
        <time>2018-05-17T03:29:14Z</time>
      </trkpt>
      <trkpt lat="44.27204" lon="6.20916">
        <ele>1701</ele>
        <time>2018-05-17T03:30:14Z</time>
      </trkpt>
      <trkpt lat="44.27181" lon="6.20866">
        <ele>1701</ele>
        <time>2018-05-17T03:31:14Z</time>
      </trkpt>
      <trkpt lat="44.27171" lon="6.20909">
        <ele>1708</ele>
        <time>2018-05-17T03:32:14Z</time>
      </trkpt>
      <trkpt lat="44.27159" lon="6.20932">
        <ele>1713</ele>
        <time>2018-05-17T03:33:14Z</time>
      </trkpt>
      <trkpt lat="44.27133" lon="6.20932">
        <ele>1723</ele>
        <time>2018-05-17T03:34:14Z</time>
      </trkpt>
      <trkpt lat="44.27113" lon="6.20965">
        <ele>1730</ele>
        <time>2018-05-17T03:35:14Z</time>
      </trkpt>
      <trkpt lat="44.27108" lon="6.20941">
        <ele>1732</ele>
        <time>2018-05-17T03:36:14Z</time>
      </trkpt>
      <trkpt lat="44.27076" lon="6.20945">
        <ele>1744</ele>
        <time>2018-05-17T03:37:14Z</time>
      </trkpt>
      <trkpt lat="44.27074" lon="6.209">
        <ele>1744</ele>
        <time>2018-05-17T03:38:14Z</time>
      </trkpt>
      <trkpt lat="44.27034" lon="6.20956">
        <ele>1760</ele>
        <time>2018-05-17T03:39:14Z</time>
      </trkpt>
      <trkpt lat="44.2702" lon="6.209">
        <ele>1768</ele>
        <time>2018-05-17T03:40:14Z</time>
      </trkpt>
      <trkpt lat="44.26988" lon="6.2082">
        <ele>1775</ele>
        <time>2018-05-17T03:41:14Z</time>
      </trkpt>
      <trkpt lat="44.26964" lon="6.20775">
        <ele>1772</ele>
        <time>2018-05-17T03:42:14Z</time>
      </trkpt>
      <trkpt lat="44.2694" lon="6.2076">
        <ele>1778</ele>
        <time>2018-05-17T03:43:14Z</time>
      </trkpt>
      <trkpt lat="44.26924" lon="6.20844">
        <ele>1799</ele>
        <time>2018-05-17T03:44:14Z</time>
      </trkpt>
      <trkpt lat="44.26884" lon="6.20932">
        <ele>1809</ele>
        <time>2018-05-17T03:45:14Z</time>
      </trkpt>
      <trkpt lat="44.2682" lon="6.2103">
        <ele>1822</ele>
        <time>2018-05-17T03:46:14Z</time>
      </trkpt>
      <trkpt lat="44.26773" lon="6.2106">
        <ele>1820</ele>
        <time>2018-05-17T03:47:14Z</time>
      </trkpt>
      <trkpt lat="44.26648" lon="6.20989">
        <ele>1840</ele>
        <time>2018-05-17T03:48:14Z</time>
      </trkpt>
      <trkpt lat="44.26576" lon="6.20965">
        <ele>1849</ele>
        <time>2018-05-17T03:49:14Z</time>
      </trkpt>
      <trkpt lat="44.26465" lon="6.20958">
        <ele>1862</ele>
        <time>2018-05-17T03:50:14Z</time>
      </trkpt>
      <trkpt lat="44.26354" lon="6.20964">
        <ele>1869</ele>
        <time>2018-05-17T03:51:14Z</time>
      </trkpt>
      <trkpt lat="44.26297" lon="6.20954">
        <ele>1875</ele>
        <time>2018-05-17T03:52:14Z</time>
      </trkpt>
      <trkpt lat="44.26266" lon="6.20941">
        <ele>1881</ele>
        <time>2018-05-17T03:53:14Z</time>
      </trkpt>
      <trkpt lat="44.26122" lon="6.20935">
        <ele>1886</ele>
        <time>2018-05-17T03:54:14Z</time>
      </trkpt>
      <trkpt lat="44.26059" lon="6.20943">
        <ele>1882</ele>
        <time>2018-05-17T03:55:14Z</time>
      </trkpt>
      <trkpt lat="44.25905" lon="6.21009">
        <ele>1870</ele>
        <time>2018-05-17T03:56:14Z</time>
      </trkpt>
      <trkpt lat="44.25831" lon="6.2103">
        <ele>1852</ele>
        <time>2018-05-17T03:57:14Z</time>
      </trkpt>
      <trkpt lat="44.2579" lon="6.21045">
        <ele>1844</ele>
        <time>2018-05-17T03:58:14Z</time>
      </trkpt>
      <trkpt lat="44.25718" lon="6.21045">
        <ele>1820</ele>
        <time>2018-05-17T03:59:14Z</time>
      </trkpt>
      <trkpt lat="44.25672" lon="6.21068">
        <ele>1808</ele>
        <time>2018-05-17T04:00:14Z</time>
      </trkpt>
      <trkpt lat="44.25536" lon="6.2106">
        <ele>1767</ele>
        <time>2018-05-17T04:01:14Z</time>
      </trkpt>
      <trkpt lat="44.25477" lon="6.2105">
        <ele>1747</ele>
        <time>2018-05-17T04:02:14Z</time>
      </trkpt>
      <trkpt lat="44.25449" lon="6.2094">
        <ele>1720</ele>
        <time>2018-05-17T04:03:14Z</time>
      </trkpt>
      <trkpt lat="44.25413" lon="6.20895">
        <ele>1703</ele>
        <time>2018-05-17T04:04:14Z</time>
      </trkpt>
      <trkpt lat="44.25382" lon="6.20891">
        <ele>1694</ele>
        <time>2018-05-17T04:05:14Z</time>
      </trkpt>
      <trkpt lat="44.25342" lon="6.20926">
        <ele>1690</ele>
        <time>2018-05-17T04:06:14Z</time>
      </trkpt>
      <trkpt lat="44.2529" lon="6.20884">
        <ele>1671</ele>
        <time>2018-05-17T04:07:14Z</time>
      </trkpt>
      <trkpt lat="44.25242" lon="6.20878">
        <ele>1659</ele>
        <time>2018-05-17T04:08:14Z</time>
      </trkpt>
      <trkpt lat="44.25192" lon="6.20843">
        <ele>1647</ele>
        <time>2018-05-17T04:09:14Z</time>
      </trkpt>
      <trkpt lat="44.25129" lon="6.20828">
        <ele>1635</ele>
        <time>2018-05-17T04:10:14Z</time>
      </trkpt>
      <trkpt lat="44.25049" lon="6.20756">
        <ele>1618</ele>
        <time>2018-05-17T04:11:14Z</time>
      </trkpt>
      <trkpt lat="44.24986" lon="6.20653">
        <ele>1595</ele>
        <time>2018-05-17T04:12:14Z</time>
      </trkpt>
      <trkpt lat="44.24962" lon="6.20611">
        <ele>1582</ele>
        <time>2018-05-17T04:13:14Z</time>
      </trkpt>
      <trkpt lat="44.24948" lon="6.20557">
        <ele>1572</ele>
        <time>2018-05-17T04:14:14Z</time>
      </trkpt>
      <trkpt lat="44.2494" lon="6.20538">
        <ele>1570</ele>
        <time>2018-05-17T04:15:14Z</time>
      </trkpt>
      <trkpt lat="44.24862" lon="6.20536">
        <ele>1554</ele>
        <time>2018-05-17T04:16:14Z</time>
      </trkpt>
      <trkpt lat="44.24829" lon="6.20508">
        <ele>1548</ele>
        <time>2018-05-17T04:17:14Z</time>
      </trkpt>
      <trkpt lat="44.24797" lon="6.20499">
        <ele>1535</ele>
        <time>2018-05-17T04:18:14Z</time>
      </trkpt>
      <trkpt lat="44.24738" lon="6.20534">
        <ele>1508</ele>
        <time>2018-05-17T04:19:14Z</time>
      </trkpt>
      <trkpt lat="44.2468" lon="6.20507">
        <ele>1494</ele>
        <time>2018-05-17T04:20:14Z</time>
      </trkpt>
      <trkpt lat="44.24656" lon="6.20522">
        <ele>1488</ele>
        <time>2018-05-17T04:21:14Z</time>
      </trkpt>
      <trkpt lat="44.24634" lon="6.20561">
        <ele>1486</ele>
        <time>2018-05-17T04:22:14Z</time>
      </trkpt>
      <trkpt lat="44.24589" lon="6.20536">
        <ele>1479</ele>
        <time>2018-05-17T04:23:14Z</time>
      </trkpt>
      <trkpt lat="44.24554" lon="6.20543">
        <ele>1480</ele>
        <time>2018-05-17T04:24:14Z</time>
      </trkpt>
      <trkpt lat="44.24547" lon="6.20489">
        <ele>1472</ele>
        <time>2018-05-17T04:25:14Z</time>
      </trkpt>
      <trkpt lat="44.2451" lon="6.20432">
        <ele>1464</ele>
        <time>2018-05-17T04:26:14Z</time>
      </trkpt>
      <trkpt lat="44.24529" lon="6.2036">
        <ele>1456</ele>
        <time>2018-05-17T04:27:14Z</time>
      </trkpt>
      <trkpt lat="44.24491" lon="6.20319">
        <ele>1444</ele>
        <time>2018-05-17T04:28:14Z</time>
      </trkpt>
      <trkpt lat="44.24468" lon="6.20314">
        <ele>1443</ele>
        <time>2018-05-17T04:29:14Z</time>
      </trkpt>
      <trkpt lat="44.24443" lon="6.20312">
        <ele>1442</ele>
        <time>2018-05-17T04:30:14Z</time>
      </trkpt>
      <trkpt lat="44.24439" lon="6.20245">
        <ele>1437</ele>
        <time>2018-05-17T04:31:14Z</time>
      </trkpt>
      <trkpt lat="44.24351" lon="6.2006">
        <ele>1426</ele>
        <time>2018-05-17T04:32:14Z</time>
      </trkpt>
      <trkpt lat="44.24321" lon="6.20007">
        <ele>1421</ele>
        <time>2018-05-17T04:33:14Z</time>
      </trkpt>
      <trkpt lat="44.24279" lon="6.19966">
        <ele>1417</ele>
        <time>2018-05-17T04:34:14Z</time>
      </trkpt>
      <trkpt lat="44.24223" lon="6.19917">
        <ele>1411</ele>
        <time>2018-05-17T04:35:14Z</time>
      </trkpt>
      <trkpt lat="44.2414" lon="6.19806">
        <ele>1403</ele>
        <time>2018-05-17T04:36:14Z</time>
      </trkpt>
      <trkpt lat="44.24054" lon="6.19695">
        <ele>1398</ele>
        <time>2018-05-17T04:37:14Z</time>
      </trkpt>
      <trkpt lat="44.24021" lon="6.19607">
        <ele>1395</ele>
        <time>2018-05-17T04:38:14Z</time>
      </trkpt>
      <trkpt lat="44.23941" lon="6.19467">
        <ele>1389</ele>
        <time>2018-05-17T04:39:14Z</time>
      </trkpt>
      <trkpt lat="44.23928" lon="6.19422">
        <ele>1387</ele>
        <time>2018-05-17T04:40:14Z</time>
      </trkpt>
      <trkpt lat="44.23926" lon="6.19364">
        <ele>1388</ele>
        <time>2018-05-17T04:41:14Z</time>
      </trkpt>
      <trkpt lat="44.23942" lon="6.19317">
        <ele>1392</ele>
        <time>2018-05-17T04:42:14Z</time>
      </trkpt>
      <trkpt lat="44.23919" lon="6.19237">
        <ele>1391</ele>
        <time>2018-05-17T04:43:14Z</time>
      </trkpt>
      <trkpt lat="44.23935" lon="6.19122">
        <ele>1391</ele>
        <time>2018-05-17T04:44:14Z</time>
      </trkpt>
      <trkpt lat="44.23959" lon="6.19056">
        <ele>1391</ele>
        <time>2018-05-17T04:45:14Z</time>
      </trkpt>
      <trkpt lat="44.23968" lon="6.19006">
        <ele>1390</ele>
        <time>2018-05-17T04:46:14Z</time>
      </trkpt>
      <trkpt lat="44.23974" lon="6.18915">
        <ele>1388</ele>
        <time>2018-05-17T04:47:14Z</time>
      </trkpt>
      <trkpt lat="44.24005" lon="6.1887">
        <ele>1392</ele>
        <time>2018-05-17T04:48:14Z</time>
      </trkpt>
      <trkpt lat="44.24016" lon="6.18798">
        <ele>1393</ele>
        <time>2018-05-17T04:49:14Z</time>
      </trkpt>
      <trkpt lat="44.24014" lon="6.18752">
        <ele>1392</ele>
        <time>2018-05-17T04:50:14Z</time>
      </trkpt>
      <trkpt lat="44.24016" lon="6.18649">
        <ele>1397</ele>
        <time>2018-05-17T04:51:14Z</time>
      </trkpt>
      <trkpt lat="44.2403" lon="6.18577">
        <ele>1398</ele>
        <time>2018-05-17T04:52:14Z</time>
      </trkpt>
      <trkpt lat="44.24058" lon="6.18534">
        <ele>1406</ele>
        <time>2018-05-17T04:53:14Z</time>
      </trkpt>
      <trkpt lat="44.24059" lon="6.18477">
        <ele>1403</ele>
        <time>2018-05-17T04:54:14Z</time>
      </trkpt>
      <trkpt lat="44.24081" lon="6.18434">
        <ele>1407</ele>
        <time>2018-05-17T04:55:14Z</time>
      </trkpt>
      <trkpt lat="44.24083" lon="6.18372">
        <ele>1405</ele>
        <time>2018-05-17T04:56:14Z</time>
      </trkpt>
      <trkpt lat="44.24089" lon="6.18312">
        <ele>1406</ele>
        <time>2018-05-17T04:57:14Z</time>
      </trkpt>
      <trkpt lat="44.24105" lon="6.18263">
        <ele>1413</ele>
        <time>2018-05-17T04:58:14Z</time>
      </trkpt>
      <trkpt lat="44.24065" lon="6.18234">
        <ele>1403</ele>
        <time>2018-05-17T04:59:14Z</time>
      </trkpt>
      <trkpt lat="44.24022" lon="6.18145">
        <ele>1398</ele>
        <time>2018-05-17T05:00:14Z</time>
      </trkpt>
      <trkpt lat="44.24016" lon="6.18036">
        <ele>1395</ele>
        <time>2018-05-17T05:01:14Z</time>
      </trkpt>
      <trkpt lat="44.24036" lon="6.17935">
        <ele>1399</ele>
        <time>2018-05-17T05:02:14Z</time>
      </trkpt>
      <trkpt lat="44.24042" lon="6.1783">
        <ele>1395</ele>
        <time>2018-05-17T05:03:14Z</time>
      </trkpt>
      <trkpt lat="44.24036" lon="6.17728">
        <ele>1393</ele>
        <time>2018-05-17T05:04:14Z</time>
      </trkpt>
      <trkpt lat="44.24025" lon="6.17647">
        <ele>1386</ele>
        <time>2018-05-17T05:05:14Z</time>
      </trkpt>
      <trkpt lat="44.24017" lon="6.17621">
        <ele>1382</ele>
        <time>2018-05-17T05:06:14Z</time>
      </trkpt>
      <trkpt lat="44.23997" lon="6.17616">
        <ele>1376</ele>
        <time>2018-05-17T05:07:14Z</time>
      </trkpt>
      <trkpt lat="44.24003" lon="6.17687">
        <ele>1378</ele>
        <time>2018-05-17T05:08:14Z</time>
      </trkpt>
      <trkpt lat="44.24001" lon="6.1776">
        <ele>1378</ele>
        <time>2018-05-17T05:09:14Z</time>
      </trkpt>
      <trkpt lat="44.23989" lon="6.1776">
        <ele>1375</ele>
        <time>2018-05-17T05:10:14Z</time>
      </trkpt>
      <trkpt lat="44.23987" lon="6.17699">
        <ele>1373</ele>
        <time>2018-05-17T05:11:14Z</time>
      </trkpt>
      <trkpt lat="44.23959" lon="6.17649">
        <ele>1365</ele>
        <time>2018-05-17T05:12:14Z</time>
      </trkpt>
      <trkpt lat="44.23967" lon="6.17611">
        <ele>1367</ele>
        <time>2018-05-17T05:13:14Z</time>
      </trkpt>
      <trkpt lat="44.2395" lon="6.17588">
        <ele>1363</ele>
        <time>2018-05-17T05:14:14Z</time>
      </trkpt>
      <trkpt lat="44.23932" lon="6.17558">
        <ele>1364</ele>
        <time>2018-05-17T05:15:14Z</time>
      </trkpt>
      <trkpt lat="44.23911" lon="6.17521">
        <ele>1366</ele>
        <time>2018-05-17T05:16:14Z</time>
      </trkpt>
      <trkpt lat="44.23844" lon="6.17462">
        <ele>1357</ele>
        <time>2018-05-17T05:17:14Z</time>
      </trkpt>
      <trkpt lat="44.23822" lon="6.1742">
        <ele>1359</ele>
        <time>2018-05-17T05:18:14Z</time>
      </trkpt>
      <trkpt lat="44.23802" lon="6.17351">
        <ele>1364</ele>
        <time>2018-05-17T05:19:14Z</time>
      </trkpt>
      <trkpt lat="44.23757" lon="6.17262">
        <ele>1354</ele>
        <time>2018-05-17T05:20:14Z</time>
      </trkpt>
      <trkpt lat="44.23668" lon="6.17166">
        <ele>1342</ele>
        <time>2018-05-17T05:21:14Z</time>
      </trkpt>
      <trkpt lat="44.23595" lon="6.17091">
        <ele>1345</ele>
        <time>2018-05-17T05:22:14Z</time>
      </trkpt>
      <trkpt lat="44.23478" lon="6.16956">
        <ele>1342</ele>
        <time>2018-05-17T05:23:14Z</time>
      </trkpt>
      <trkpt lat="44.23486" lon="6.1698">
        <ele>1340</ele>
        <time>2018-05-17T05:24:14Z</time>
      </trkpt>
      <trkpt lat="44.23467" lon="6.16918">
        <ele>1344</ele>
        <time>2018-05-17T05:25:14Z</time>
      </trkpt>
      <trkpt lat="44.23441" lon="6.16842">
        <ele>1338</ele>
        <time>2018-05-17T05:26:14Z</time>
      </trkpt>
      <trkpt lat="44.2345" lon="6.16669">
        <ele>1338</ele>
        <time>2018-05-17T05:27:14Z</time>
      </trkpt>
      <trkpt lat="44.23477" lon="6.16572">
        <ele>1337</ele>
        <time>2018-05-17T05:28:14Z</time>
      </trkpt>
      <trkpt lat="44.23507" lon="6.1643">
        <ele>1327</ele>
        <time>2018-05-17T05:29:14Z</time>
      </trkpt>
      <trkpt lat="44.2353" lon="6.16348">
        <ele>1329</ele>
        <time>2018-05-17T05:30:14Z</time>
      </trkpt>
      <trkpt lat="44.23548" lon="6.16325">
        <ele>1331</ele>
        <time>2018-05-17T05:31:14Z</time>
      </trkpt>
      <trkpt lat="44.23564" lon="6.16314">
        <ele>1333</ele>
        <time>2018-05-17T05:32:14Z</time>
      </trkpt>
      <trkpt lat="44.23599" lon="6.16211">
        <ele>1321</ele>
        <time>2018-05-17T05:33:14Z</time>
      </trkpt>
      <trkpt lat="44.23635" lon="6.16141">
        <ele>1321</ele>
        <time>2018-05-17T05:34:14Z</time>
      </trkpt>
      <trkpt lat="44.23705" lon="6.16034">
        <ele>1321</ele>
        <time>2018-05-17T05:35:14Z</time>
      </trkpt>
      <trkpt lat="44.23731" lon="6.15949">
        <ele>1315</ele>
        <time>2018-05-17T05:36:14Z</time>
      </trkpt>
      <trkpt lat="44.23773" lon="6.15901">
        <ele>1314</ele>
        <time>2018-05-17T05:37:14Z</time>
      </trkpt>
      <trkpt lat="44.23819" lon="6.15745">
        <ele>1307</ele>
        <time>2018-05-17T05:38:14Z</time>
      </trkpt>
      <trkpt lat="44.23853" lon="6.15684">
        <ele>1306</ele>
        <time>2018-05-17T05:39:14Z</time>
      </trkpt>
      <trkpt lat="44.23856" lon="6.15654">
        <ele>1305</ele>
        <time>2018-05-17T05:40:14Z</time>
      </trkpt>
      <trkpt lat="44.23913" lon="6.15589">
        <ele>1305</ele>
        <time>2018-05-17T05:41:14Z</time>
      </trkpt>
      <trkpt lat="44.23928" lon="6.15542">
        <ele>1306</ele>
        <time>2018-05-17T05:42:14Z</time>
      </trkpt>
      <trkpt lat="44.2399" lon="6.15458">
        <ele>1311</ele>
        <time>2018-05-17T05:43:14Z</time>
      </trkpt>
      <trkpt lat="44.24022" lon="6.15403">
        <ele>1304</ele>
        <time>2018-05-17T05:44:14Z</time>
      </trkpt>
      <trkpt lat="44.24055" lon="6.15381">
        <ele>1305</ele>
        <time>2018-05-17T05:45:14Z</time>
      </trkpt>
      <trkpt lat="44.24055" lon="6.15363">
        <ele>1304</ele>
        <time>2018-05-17T05:46:14Z</time>
      </trkpt>
      <trkpt lat="44.24097" lon="6.15333">
        <ele>1306</ele>
        <time>2018-05-17T05:47:14Z</time>
      </trkpt>
      <trkpt lat="44.24156" lon="6.15291">
        <ele>1314</ele>
        <time>2018-05-17T05:48:14Z</time>
      </trkpt>
      <trkpt lat="44.24185" lon="6.15191">
        <ele>1310</ele>
        <time>2018-05-17T05:49:14Z</time>
      </trkpt>
      <trkpt lat="44.24201" lon="6.15096">
        <ele>1314</ele>
        <time>2018-05-17T05:50:14Z</time>
      </trkpt>
      <trkpt lat="44.24217" lon="6.15049">
        <ele>1319</ele>
        <time>2018-05-17T05:51:14Z</time>
      </trkpt>
      <trkpt lat="44.24204" lon="6.14977">
        <ele>1322</ele>
        <time>2018-05-17T05:52:14Z</time>
      </trkpt>
      <trkpt lat="44.2418" lon="6.14919">
        <ele>1317</ele>
        <time>2018-05-17T05:53:14Z</time>
      </trkpt>
      <trkpt lat="44.24168" lon="6.14876">
        <ele>1315</ele>
        <time>2018-05-17T05:54:14Z</time>
      </trkpt>
      <trkpt lat="44.24135" lon="6.14841">
        <ele>1321</ele>
        <time>2018-05-17T05:55:14Z</time>
      </trkpt>
      <trkpt lat="44.24116" lon="6.14834">
        <ele>1321</ele>
        <time>2018-05-17T05:56:14Z</time>
      </trkpt>
      <trkpt lat="44.24102" lon="6.14852">
        <ele>1323</ele>
        <time>2018-05-17T05:57:14Z</time>
      </trkpt>
      <trkpt lat="44.24088" lon="6.14821">
        <ele>1320</ele>
        <time>2018-05-17T05:58:14Z</time>
      </trkpt>
      <trkpt lat="44.241" lon="6.1478">
        <ele>1316</ele>
        <time>2018-05-17T05:59:14Z</time>
      </trkpt>
      <trkpt lat="44.24105" lon="6.14747">
        <ele>1312</ele>
        <time>2018-05-17T06:00:14Z</time>
      </trkpt>
      <trkpt lat="44.24104" lon="6.14657">
        <ele>1294</ele>
        <time>2018-05-17T06:01:14Z</time>
      </trkpt>
      <trkpt lat="44.24109" lon="6.14625">
        <ele>1288</ele>
        <time>2018-05-17T06:02:14Z</time>
      </trkpt>
      <trkpt lat="44.24131" lon="6.14536">
        <ele>1261</ele>
        <time>2018-05-17T06:03:14Z</time>
      </trkpt>
      <trkpt lat="44.24119" lon="6.14485">
        <ele>1259</ele>
        <time>2018-05-17T06:04:14Z</time>
      </trkpt>
      <trkpt lat="44.24118" lon="6.14455">
        <ele>1253</ele>
        <time>2018-05-17T06:05:14Z</time>
      </trkpt>
      <trkpt lat="44.24094" lon="6.14373">
        <ele>1247</ele>
        <time>2018-05-17T06:06:14Z</time>
      </trkpt>
      <trkpt lat="44.2407" lon="6.14312">
        <ele>1246</ele>
        <time>2018-05-17T06:07:14Z</time>
      </trkpt>
      <trkpt lat="44.24073" lon="6.14231">
        <ele>1231</ele>
        <time>2018-05-17T06:08:14Z</time>
      </trkpt>
      <trkpt lat="44.24037" lon="6.14187">
        <ele>1233</ele>
        <time>2018-05-17T06:09:14Z</time>
      </trkpt>
      <trkpt lat="44.24004" lon="6.14141">
        <ele>1230</ele>
        <time>2018-05-17T06:10:14Z</time>
      </trkpt>
      <trkpt lat="44.23994" lon="6.14047">
        <ele>1219</ele>
        <time>2018-05-17T06:11:14Z</time>
      </trkpt>
      <trkpt lat="44.23991" lon="6.14008">
        <ele>1216</ele>
        <time>2018-05-17T06:12:14Z</time>
      </trkpt>
      <trkpt lat="44.24001" lon="6.13973">
        <ele>1210</ele>
        <time>2018-05-17T06:13:14Z</time>
      </trkpt>
      <trkpt lat="44.23994" lon="6.13898">
        <ele>1210</ele>
        <time>2018-05-17T06:14:14Z</time>
      </trkpt>
      <trkpt lat="44.24017" lon="6.13851">
        <ele>1204</ele>
        <time>2018-05-17T06:15:14Z</time>
      </trkpt>
      <trkpt lat="44.24028" lon="6.1378">
        <ele>1196</ele>
        <time>2018-05-17T06:16:14Z</time>
      </trkpt>
      <trkpt lat="44.24018" lon="6.13672">
        <ele>1183</ele>
        <time>2018-05-17T06:17:14Z</time>
      </trkpt>
      <trkpt lat="44.24006" lon="6.1365">
        <ele>1182</ele>
        <time>2018-05-17T06:18:14Z</time>
      </trkpt>
      <trkpt lat="44.23978" lon="6.13619">
        <ele>1181</ele>
        <time>2018-05-17T06:19:14Z</time>
      </trkpt>
      <trkpt lat="44.23971" lon="6.13585">
        <ele>1174</ele>
        <time>2018-05-17T06:20:14Z</time>
      </trkpt>
      <trkpt lat="44.23968" lon="6.13532">
        <ele>1166</ele>
        <time>2018-05-17T06:21:14Z</time>
      </trkpt>
      <trkpt lat="44.23934" lon="6.13503">
        <ele>1166</ele>
        <time>2018-05-17T06:22:14Z</time>
      </trkpt>
      <trkpt lat="44.23902" lon="6.1342">
        <ele>1158</ele>
        <time>2018-05-17T06:23:14Z</time>
      </trkpt>
      <trkpt lat="44.23883" lon="6.13353">
        <ele>1156</ele>
        <time>2018-05-17T06:24:14Z</time>
      </trkpt>
      <trkpt lat="44.23881" lon="6.13264">
        <ele>1148</ele>
        <time>2018-05-17T06:25:14Z</time>
      </trkpt>
      <trkpt lat="44.23876" lon="6.13204">
        <ele>1144</ele>
        <time>2018-05-17T06:26:14Z</time>
      </trkpt>
      <trkpt lat="44.23844" lon="6.13139">
        <ele>1139</ele>
        <time>2018-05-17T06:27:14Z</time>
      </trkpt>
      <trkpt lat="44.23816" lon="6.13066">
        <ele>1138</ele>
        <time>2018-05-17T06:28:14Z</time>
      </trkpt>
      <trkpt lat="44.23774" lon="6.13019">
        <ele>1138</ele>
        <time>2018-05-17T06:29:14Z</time>
      </trkpt>
      <trkpt lat="44.23752" lon="6.12975">
        <ele>1136</ele>
        <time>2018-05-17T06:30:14Z</time>
      </trkpt>
      <trkpt lat="44.23762" lon="6.12888">
        <ele>1133</ele>
        <time>2018-05-17T06:31:14Z</time>
      </trkpt>
      <trkpt lat="44.23796" lon="6.12878">
        <ele>1136</ele>
        <time>2018-05-17T06:32:14Z</time>
      </trkpt>
      <trkpt lat="44.2381" lon="6.12869">
        <ele>1137</ele>
        <time>2018-05-17T06:33:14Z</time>
      </trkpt>
      <trkpt lat="44.23829" lon="6.12745">
        <ele>1138</ele>
        <time>2018-05-17T06:34:14Z</time>
      </trkpt>
      <trkpt lat="44.23846" lon="6.12699">
        <ele>1143</ele>
        <time>2018-05-17T06:35:14Z</time>
      </trkpt>
      <trkpt lat="44.23829" lon="6.12679">
        <ele>1140</ele>
        <time>2018-05-17T06:36:14Z</time>
      </trkpt>
      <trkpt lat="44.23794" lon="6.12677">
        <ele>1135</ele>
        <time>2018-05-17T06:37:14Z</time>
      </trkpt>
      <trkpt lat="44.23776" lon="6.12698">
        <ele>1133</ele>
        <time>2018-05-17T06:38:14Z</time>
      </trkpt>
      <trkpt lat="44.23757" lon="6.12873">
        <ele>1133</ele>
        <time>2018-05-17T06:39:14Z</time>
      </trkpt>
      <trkpt lat="44.23723" lon="6.1287">
        <ele>1133</ele>
        <time>2018-05-17T06:40:14Z</time>
      </trkpt>
      <trkpt lat="44.23702" lon="6.12856">
        <ele>1133</ele>
        <time>2018-05-17T06:41:14Z</time>
      </trkpt>
      <trkpt lat="44.23683" lon="6.12861">
        <ele>1134</ele>
        <time>2018-05-17T06:42:14Z</time>
      </trkpt>
      <trkpt lat="44.2366" lon="6.12893">
        <ele>1137</ele>
        <time>2018-05-17T06:43:14Z</time>
      </trkpt>
      <trkpt lat="44.23626" lon="6.12913">
        <ele>1137</ele>
        <time>2018-05-17T06:44:14Z</time>
      </trkpt>
      <trkpt lat="44.23551" lon="6.12964">
        <ele>1142</ele>
        <time>2018-05-17T06:45:14Z</time>
      </trkpt>
      <trkpt lat="44.23527" lon="6.12943">
        <ele>1140</ele>
        <time>2018-05-17T06:46:14Z</time>
      </trkpt>
      <trkpt lat="44.23494" lon="6.1292">
        <ele>1140</ele>
        <time>2018-05-17T06:47:14Z</time>
      </trkpt>
      <trkpt lat="44.23466" lon="6.12914">
        <ele>1142</ele>
        <time>2018-05-17T06:48:14Z</time>
      </trkpt>
      <trkpt lat="44.2345" lon="6.12907">
        <ele>1144</ele>
        <time>2018-05-17T06:49:14Z</time>
      </trkpt>
      <trkpt lat="44.23423" lon="6.12892">
        <ele>1148</ele>
        <time>2018-05-17T06:50:14Z</time>
      </trkpt>
      <trkpt lat="44.23397" lon="6.12902">
        <ele>1150</ele>
        <time>2018-05-17T06:51:14Z</time>
      </trkpt>
      <trkpt lat="44.23391" lon="6.12901">
        <ele>1151</ele>
        <time>2018-05-17T06:52:14Z</time>
      </trkpt>
      <trkpt lat="44.23392" lon="6.12894">
        <ele>1151</ele>
        <time>2018-05-17T06:53:14Z</time>
      </trkpt>
      <trkpt lat="44.23402" lon="6.12875">
        <ele>1153</ele>
        <time>2018-05-17T06:54:14Z</time>
      </trkpt>
      <trkpt lat="44.23402" lon="6.12866">
        <ele>1154</ele>
        <time>2018-05-17T06:55:14Z</time>
      </trkpt>
      <trkpt lat="44.23373" lon="6.12864">
        <ele>1159</ele>
        <time>2018-05-17T06:56:14Z</time>
      </trkpt>
      <trkpt lat="44.23371" lon="6.12855">
        <ele>1161</ele>
        <time>2018-05-17T06:57:14Z</time>
      </trkpt>
      <trkpt lat="44.23381" lon="6.12832">
        <ele>1163</ele>
        <time>2018-05-17T06:58:14Z</time>
      </trkpt>
      <trkpt lat="44.23379" lon="6.12816">
        <ele>1165</ele>
        <time>2018-05-17T06:59:14Z</time>
      </trkpt>
      <trkpt lat="44.23364" lon="6.128">
        <ele>1169</ele>
        <time>2018-05-17T07:00:14Z</time>
      </trkpt>
      <trkpt lat="44.23322" lon="6.12792">
        <ele>1175</ele>
        <time>2018-05-17T07:01:14Z</time>
      </trkpt>
      <trkpt lat="44.23303" lon="6.12783">
        <ele>1177</ele>
        <time>2018-05-17T07:02:14Z</time>
      </trkpt>
      <trkpt lat="44.23286" lon="6.12763">
        <ele>1181</ele>
        <time>2018-05-17T07:03:14Z</time>
      </trkpt>
      <trkpt lat="44.23248" lon="6.12756">
        <ele>1186</ele>
        <time>2018-05-17T07:04:14Z</time>
      </trkpt>
      <trkpt lat="44.23206" lon="6.12729">
        <ele>1198</ele>
        <time>2018-05-17T07:05:14Z</time>
      </trkpt>
      <trkpt lat="44.23192" lon="6.12729">
        <ele>1200</ele>
        <time>2018-05-17T07:06:14Z</time>
      </trkpt>
      <trkpt lat="44.23182" lon="6.12729">
        <ele>1202</ele>
        <time>2018-05-17T07:07:14Z</time>
      </trkpt>
      <trkpt lat="44.23176" lon="6.12729">
        <ele>1203</ele>
        <time>2018-05-17T07:08:14Z</time>
      </trkpt>
      <trkpt lat="44.2318" lon="6.12717">
        <ele>1205</ele>
        <time>2018-05-17T07:09:14Z</time>
      </trkpt>
      <trkpt lat="44.23174" lon="6.12713">
        <ele>1206</ele>
        <time>2018-05-17T07:10:14Z</time>
      </trkpt>
      <trkpt lat="44.23164" lon="6.12714">
        <ele>1208</ele>
        <time>2018-05-17T07:11:14Z</time>
      </trkpt>
      <trkpt lat="44.23168" lon="6.12702">
        <ele>1210</ele>
        <time>2018-05-17T07:12:14Z</time>
      </trkpt>
      <trkpt lat="44.23173" lon="6.12688">
        <ele>1212</ele>
        <time>2018-05-17T07:13:14Z</time>
      </trkpt>
      <trkpt lat="44.2316" lon="6.12689">
        <ele>1215</ele>
        <time>2018-05-17T07:14:14Z</time>
      </trkpt>
      <trkpt lat="44.23122" lon="6.12712">
        <ele>1225</ele>
        <time>2018-05-17T07:15:14Z</time>
      </trkpt>
      <trkpt lat="44.23115" lon="6.12716">
        <ele>1227</ele>
        <time>2018-05-17T07:16:14Z</time>
      </trkpt>
      <trkpt lat="44.23127" lon="6.12684">
        <ele>1230</ele>
        <time>2018-05-17T07:17:14Z</time>
      </trkpt>
      <trkpt lat="44.23123" lon="6.12679">
        <ele>1233</ele>
        <time>2018-05-17T07:18:14Z</time>
      </trkpt>
      <trkpt lat="44.23104" lon="6.12688">
        <ele>1239</ele>
        <time>2018-05-17T07:19:14Z</time>
      </trkpt>
      <trkpt lat="44.23085" lon="6.12704">
        <ele>1242</ele>
        <time>2018-05-17T07:20:14Z</time>
      </trkpt>
      <trkpt lat="44.23081" lon="6.12703">
        <ele>1244</ele>
        <time>2018-05-17T07:21:14Z</time>
      </trkpt>
      <trkpt lat="44.2308" lon="6.12685">
        <ele>1250</ele>
        <time>2018-05-17T07:22:14Z</time>
      </trkpt>
      <trkpt lat="44.23084" lon="6.12658">
        <ele>1255</ele>
        <time>2018-05-17T07:23:14Z</time>
      </trkpt>
      <trkpt lat="44.23078" lon="6.12662">
        <ele>1257</ele>
        <time>2018-05-17T07:24:14Z</time>
      </trkpt>
      <trkpt lat="44.23057" lon="6.12668">
        <ele>1264</ele>
        <time>2018-05-17T07:25:14Z</time>
      </trkpt>
      <trkpt lat="44.23064" lon="6.12659">
        <ele>1262</ele>
        <time>2018-05-17T07:26:14Z</time>
      </trkpt>
      <trkpt lat="44.23057" lon="6.12652">
        <ele>1266</ele>
        <time>2018-05-17T07:27:14Z</time>
      </trkpt>
      <trkpt lat="44.23048" lon="6.12654">
        <ele>1269</ele>
        <time>2018-05-17T07:28:14Z</time>
      </trkpt>
      <trkpt lat="44.23055" lon="6.12629">
        <ele>1270</ele>
        <time>2018-05-17T07:29:14Z</time>
      </trkpt>
      <trkpt lat="44.23061" lon="6.1261">
        <ele>1270</ele>
        <time>2018-05-17T07:30:14Z</time>
      </trkpt>
      <trkpt lat="44.23059" lon="6.12598">
        <ele>1273</ele>
        <time>2018-05-17T07:31:14Z</time>
      </trkpt>
      <trkpt lat="44.23047" lon="6.1261">
        <ele>1276</ele>
        <time>2018-05-17T07:32:14Z</time>
      </trkpt>
      <trkpt lat="44.23036" lon="6.12623">
        <ele>1279</ele>
        <time>2018-05-17T07:33:14Z</time>
      </trkpt>
      <trkpt lat="44.23036" lon="6.12604">
        <ele>1281</ele>
        <time>2018-05-17T07:34:14Z</time>
      </trkpt>
      <trkpt lat="44.23033" lon="6.12591">
        <ele>1285</ele>
        <time>2018-05-17T07:35:14Z</time>
      </trkpt>
      <trkpt lat="44.23024" lon="6.12594">
        <ele>1288</ele>
        <time>2018-05-17T07:36:14Z</time>
      </trkpt>
      <trkpt lat="44.23014" lon="6.12593">
        <ele>1292</ele>
        <time>2018-05-17T07:37:14Z</time>
      </trkpt>
      <trkpt lat="44.23006" lon="6.12573">
        <ele>1298</ele>
        <time>2018-05-17T07:38:14Z</time>
      </trkpt>
      <trkpt lat="44.22994" lon="6.12565">
        <ele>1304</ele>
        <time>2018-05-17T07:39:14Z</time>
      </trkpt>
      <trkpt lat="44.22983" lon="6.12549">
        <ele>1310</ele>
        <time>2018-05-17T07:40:14Z</time>
      </trkpt>
      <trkpt lat="44.22972" lon="6.12539">
        <ele>1317</ele>
        <time>2018-05-17T07:41:14Z</time>
      </trkpt>
      <trkpt lat="44.22965" lon="6.12541">
        <ele>1320</ele>
        <time>2018-05-17T07:42:14Z</time>
      </trkpt>
      <trkpt lat="44.22953" lon="6.12579">
        <ele>1320</ele>
        <time>2018-05-17T07:43:14Z</time>
      </trkpt>
      <trkpt lat="44.22945" lon="6.12632">
        <ele>1315</ele>
        <time>2018-05-17T07:44:14Z</time>
      </trkpt>
      <trkpt lat="44.22942" lon="6.12662">
        <ele>1312</ele>
        <time>2018-05-17T07:45:14Z</time>
      </trkpt>
      <trkpt lat="44.22927" lon="6.12678">
        <ele>1316</ele>
        <time>2018-05-17T07:46:14Z</time>
      </trkpt>
      <trkpt lat="44.22904" lon="6.1271">
        <ele>1318</ele>
        <time>2018-05-17T07:47:14Z</time>
      </trkpt>
      <trkpt lat="44.22891" lon="6.12748">
        <ele>1314</ele>
        <time>2018-05-17T07:48:14Z</time>
      </trkpt>
      <trkpt lat="44.22873" lon="6.12777">
        <ele>1309</ele>
        <time>2018-05-17T07:49:14Z</time>
      </trkpt>
      <trkpt lat="44.22844" lon="6.12804">
        <ele>1308</ele>
        <time>2018-05-17T07:50:14Z</time>
      </trkpt>
      <trkpt lat="44.22815" lon="6.12807">
        <ele>1310</ele>
        <time>2018-05-17T07:51:14Z</time>
      </trkpt>
      <trkpt lat="44.22781" lon="6.1279">
        <ele>1316</ele>
        <time>2018-05-17T07:52:14Z</time>
      </trkpt>
      <trkpt lat="44.22752" lon="6.12777">
        <ele>1322</ele>
        <time>2018-05-17T07:53:14Z</time>
      </trkpt>
      <trkpt lat="44.2273" lon="6.12787">
        <ele>1321</ele>
        <time>2018-05-17T07:54:14Z</time>
      </trkpt>
      <trkpt lat="44.22706" lon="6.12813">
        <ele>1319</ele>
        <time>2018-05-17T07:55:14Z</time>
      </trkpt>
      <trkpt lat="44.22688" lon="6.12822">
        <ele>1320</ele>
        <time>2018-05-17T07:56:14Z</time>
      </trkpt>
      <trkpt lat="44.22668" lon="6.12857">
        <ele>1321</ele>
        <time>2018-05-17T07:57:14Z</time>
      </trkpt>
      <trkpt lat="44.22669" lon="6.12894">
        <ele>1319</ele>
        <time>2018-05-17T07:58:14Z</time>
      </trkpt>
      <trkpt lat="44.22658" lon="6.1293">
        <ele>1319</ele>
        <time>2018-05-17T07:59:14Z</time>
      </trkpt>
      <trkpt lat="44.22573" lon="6.1303">
        <ele>1329</ele>
        <time>2018-05-17T08:00:14Z</time>
      </trkpt>
      <trkpt lat="44.22522" lon="6.13087">
        <ele>1325</ele>
        <time>2018-05-17T08:01:14Z</time>
      </trkpt>
      <trkpt lat="44.22497" lon="6.13101">
        <ele>1324</ele>
        <time>2018-05-17T08:02:14Z</time>
      </trkpt>
      <trkpt lat="44.22491" lon="6.13092">
        <ele>1326</ele>
        <time>2018-05-17T08:03:14Z</time>
      </trkpt>
      <trkpt lat="44.2249" lon="6.13071">
        <ele>1330</ele>
        <time>2018-05-17T08:04:14Z</time>
      </trkpt>
      <trkpt lat="44.22492" lon="6.13029">
        <ele>1336</ele>
        <time>2018-05-17T08:05:14Z</time>
      </trkpt>
      <trkpt lat="44.22482" lon="6.12997">
        <ele>1340</ele>
        <time>2018-05-17T08:06:14Z</time>
      </trkpt>
      <trkpt lat="44.22473" lon="6.12983">
        <ele>1343</ele>
        <time>2018-05-17T08:07:14Z</time>
      </trkpt>
      <trkpt lat="44.2245" lon="6.12982">
        <ele>1343</ele>
        <time>2018-05-17T08:08:14Z</time>
      </trkpt>
      <trkpt lat="44.22423" lon="6.12996">
        <ele>1338</ele>
        <time>2018-05-17T08:09:14Z</time>
      </trkpt>
      <trkpt lat="44.224" lon="6.12992">
        <ele>1343</ele>
        <time>2018-05-17T08:10:14Z</time>
      </trkpt>
      <trkpt lat="44.22387" lon="6.12985">
        <ele>1348</ele>
        <time>2018-05-17T08:11:14Z</time>
      </trkpt>
      <trkpt lat="44.22383" lon="6.13006">
        <ele>1343</ele>
        <time>2018-05-17T08:12:14Z</time>
      </trkpt>
      <trkpt lat="44.22356" lon="6.13017">
        <ele>1347</ele>
        <time>2018-05-17T08:13:14Z</time>
      </trkpt>
      <trkpt lat="44.22321" lon="6.13055">
        <ele>1347</ele>
        <time>2018-05-17T08:14:14Z</time>
      </trkpt>
      <trkpt lat="44.22298" lon="6.13098">
        <ele>1343</ele>
        <time>2018-05-17T08:15:14Z</time>
      </trkpt>
      <trkpt lat="44.22281" lon="6.1316">
        <ele>1339</ele>
        <time>2018-05-17T08:16:14Z</time>
      </trkpt>
      <trkpt lat="44.22274" lon="6.13209">
        <ele>1332</ele>
        <time>2018-05-17T08:17:14Z</time>
      </trkpt>
      <trkpt lat="44.2225" lon="6.13231">
        <ele>1335</ele>
        <time>2018-05-17T08:18:14Z</time>
      </trkpt>
      <trkpt lat="44.2219" lon="6.13277">
        <ele>1343</ele>
        <time>2018-05-17T08:19:14Z</time>
      </trkpt>
      <trkpt lat="44.2215" lon="6.1328">
        <ele>1350</ele>
        <time>2018-05-17T08:20:14Z</time>
      </trkpt>
      <trkpt lat="44.22133" lon="6.13284">
        <ele>1351</ele>
        <time>2018-05-17T08:21:14Z</time>
      </trkpt>
      <trkpt lat="44.22134" lon="6.13308">
        <ele>1347</ele>
        <time>2018-05-17T08:22:14Z</time>
      </trkpt>
      <trkpt lat="44.22143" lon="6.13329">
        <ele>1342</ele>
        <time>2018-05-17T08:23:14Z</time>
      </trkpt>
      <trkpt lat="44.22185" lon="6.13377">
        <ele>1332</ele>
        <time>2018-05-17T08:24:14Z</time>
      </trkpt>
      <trkpt lat="44.22213" lon="6.13384">
        <ele>1327</ele>
        <time>2018-05-17T08:25:14Z</time>
      </trkpt>
      <trkpt lat="44.22214" lon="6.134">
        <ele>1326</ele>
        <time>2018-05-17T08:26:14Z</time>
      </trkpt>
      <trkpt lat="44.22206" lon="6.1342">
        <ele>1325</ele>
        <time>2018-05-17T08:27:14Z</time>
      </trkpt>
      <trkpt lat="44.22181" lon="6.13427">
        <ele>1327</ele>
        <time>2018-05-17T08:28:14Z</time>
      </trkpt>
      <trkpt lat="44.22149" lon="6.13417">
        <ele>1331</ele>
        <time>2018-05-17T08:29:14Z</time>
      </trkpt>
      <trkpt lat="44.22072" lon="6.13356">
        <ele>1344</ele>
        <time>2018-05-17T08:30:14Z</time>
      </trkpt>
      <trkpt lat="44.22034" lon="6.13352">
        <ele>1346</ele>
        <time>2018-05-17T08:31:14Z</time>
      </trkpt>
      <trkpt lat="44.22005" lon="6.13385">
        <ele>1345</ele>
        <time>2018-05-17T08:32:14Z</time>
      </trkpt>
      <trkpt lat="44.21997" lon="6.13395">
        <ele>1345</ele>
        <time>2018-05-17T08:33:14Z</time>
      </trkpt>
      <trkpt lat="44.22031" lon="6.13424">
        <ele>1338</ele>
        <time>2018-05-17T08:34:14Z</time>
      </trkpt>
      <trkpt lat="44.22056" lon="6.13467">
        <ele>1334</ele>
        <time>2018-05-17T08:35:14Z</time>
      </trkpt>
      <trkpt lat="44.22077" lon="6.13517">
        <ele>1327</ele>
        <time>2018-05-17T08:36:14Z</time>
      </trkpt>
      <trkpt lat="44.22088" lon="6.13593">
        <ele>1325</ele>
        <time>2018-05-17T08:37:14Z</time>
      </trkpt>
      <trkpt lat="44.22063" lon="6.13641">
        <ele>1327</ele>
        <time>2018-05-17T08:38:14Z</time>
      </trkpt>
      <trkpt lat="44.2204" lon="6.13693">
        <ele>1327</ele>
        <time>2018-05-17T08:39:14Z</time>
      </trkpt>
      <trkpt lat="44.22026" lon="6.13737">
        <ele>1325</ele>
        <time>2018-05-17T08:40:14Z</time>
      </trkpt>
      <trkpt lat="44.22021" lon="6.13787">
        <ele>1320</ele>
        <time>2018-05-17T08:41:14Z</time>
      </trkpt>
      <trkpt lat="44.22009" lon="6.13865">
        <ele>1312</ele>
        <time>2018-05-17T08:42:14Z</time>
      </trkpt>
      <trkpt lat="44.22001" lon="6.13925">
        <ele>1304</ele>
        <time>2018-05-17T08:43:14Z</time>
      </trkpt>
      <trkpt lat="44.2199" lon="6.13977">
        <ele>1298</ele>
        <time>2018-05-17T08:44:14Z</time>
      </trkpt>
      <trkpt lat="44.21979" lon="6.14">
        <ele>1296</ele>
        <time>2018-05-17T08:45:14Z</time>
      </trkpt>
      <trkpt lat="44.21968" lon="6.13999">
        <ele>1298</ele>
        <time>2018-05-17T08:46:14Z</time>
      </trkpt>
      <trkpt lat="44.21957" lon="6.1399">
        <ele>1301</ele>
        <time>2018-05-17T08:47:14Z</time>
      </trkpt>
      <trkpt lat="44.21944" lon="6.13974">
        <ele>1305</ele>
        <time>2018-05-17T08:48:14Z</time>
      </trkpt>
      <trkpt lat="44.21928" lon="6.13967">
        <ele>1308</ele>
        <time>2018-05-17T08:49:14Z</time>
      </trkpt>
      <trkpt lat="44.21924" lon="6.13975">
        <ele>1307</ele>
        <time>2018-05-17T08:50:14Z</time>
      </trkpt>
      <trkpt lat="44.21931" lon="6.13986">
        <ele>1305</ele>
        <time>2018-05-17T08:51:14Z</time>
      </trkpt>
      <trkpt lat="44.21915" lon="6.14001">
        <ele>1305</ele>
        <time>2018-05-17T08:52:14Z</time>
      </trkpt>
      <trkpt lat="44.21903" lon="6.14008">
        <ele>1308</ele>
        <time>2018-05-17T08:53:14Z</time>
      </trkpt>
      <trkpt lat="44.21877" lon="6.14061">
        <ele>1309</ele>
        <time>2018-05-17T08:54:14Z</time>
      </trkpt>
      <trkpt lat="44.21842" lon="6.14148">
        <ele>1309</ele>
        <time>2018-05-17T08:55:14Z</time>
      </trkpt>
      <trkpt lat="44.21813" lon="6.14209">
        <ele>1305</ele>
        <time>2018-05-17T08:56:14Z</time>
      </trkpt>
      <trkpt lat="44.21792" lon="6.14226">
        <ele>1305</ele>
        <time>2018-05-17T08:57:14Z</time>
      </trkpt>
      <trkpt lat="44.2176" lon="6.14219">
        <ele>1310</ele>
        <time>2018-05-17T08:58:14Z</time>
      </trkpt>
      <trkpt lat="44.21735" lon="6.14217">
        <ele>1315</ele>
        <time>2018-05-17T08:59:14Z</time>
      </trkpt>
      <trkpt lat="44.21722" lon="6.14224">
        <ele>1317</ele>
        <time>2018-05-17T09:00:14Z</time>
      </trkpt>
      <trkpt lat="44.21703" lon="6.14284">
        <ele>1310</ele>
        <time>2018-05-17T09:01:14Z</time>
      </trkpt>
      <trkpt lat="44.21683" lon="6.14316">
        <ele>1309</ele>
        <time>2018-05-17T09:02:14Z</time>
      </trkpt>
      <trkpt lat="44.21673" lon="6.14326">
        <ele>1309</ele>
        <time>2018-05-17T09:03:14Z</time>
      </trkpt>
      <trkpt lat="44.21656" lon="6.14367">
        <ele>1308</ele>
        <time>2018-05-17T09:04:14Z</time>
      </trkpt>
      <trkpt lat="44.21633" lon="6.14395">
        <ele>1310</ele>
        <time>2018-05-17T09:05:14Z</time>
      </trkpt>
      <trkpt lat="44.21607" lon="6.14419">
        <ele>1314</ele>
        <time>2018-05-17T09:06:14Z</time>
      </trkpt>
      <trkpt lat="44.21601" lon="6.14445">
        <ele>1315</ele>
        <time>2018-05-17T09:07:14Z</time>
      </trkpt>
      <trkpt lat="44.21612" lon="6.14496">
        <ele>1311</ele>
        <time>2018-05-17T09:08:14Z</time>
      </trkpt>
      <trkpt lat="44.21613" lon="6.14533">
        <ele>1308</ele>
        <time>2018-05-17T09:09:14Z</time>
      </trkpt>
      <trkpt lat="44.2159" lon="6.14594">
        <ele>1309</ele>
        <time>2018-05-17T09:10:14Z</time>
      </trkpt>
      <trkpt lat="44.21567" lon="6.1464">
        <ele>1311</ele>
        <time>2018-05-17T09:11:14Z</time>
      </trkpt>
      <trkpt lat="44.2154" lon="6.14683">
        <ele>1314</ele>
        <time>2018-05-17T09:12:14Z</time>
      </trkpt>
      <trkpt lat="44.21527" lon="6.14708">
        <ele>1315</ele>
        <time>2018-05-17T09:13:14Z</time>
      </trkpt>
      <trkpt lat="44.21443" lon="6.14902">
        <ele>1303</ele>
        <time>2018-05-17T09:14:14Z</time>
      </trkpt>
      <trkpt lat="44.2141" lon="6.14919">
        <ele>1299</ele>
        <time>2018-05-17T09:15:14Z</time>
      </trkpt>
      <trkpt lat="44.21356" lon="6.14999">
        <ele>1293</ele>
        <time>2018-05-17T09:16:14Z</time>
      </trkpt>
      <trkpt lat="44.21296" lon="6.15029">
        <ele>1283</ele>
        <time>2018-05-17T09:17:14Z</time>
      </trkpt>
      <trkpt lat="44.21269" lon="6.15057">
        <ele>1279</ele>
        <time>2018-05-17T09:18:14Z</time>
      </trkpt>
      <trkpt lat="44.21244" lon="6.15067">
        <ele>1275</ele>
        <time>2018-05-17T09:19:14Z</time>
      </trkpt>
      <trkpt lat="44.21226" lon="6.15115">
        <ele>1274</ele>
        <time>2018-05-17T09:20:14Z</time>
      </trkpt>
      <trkpt lat="44.2115" lon="6.15152">
        <ele>1260</ele>
        <time>2018-05-17T09:21:14Z</time>
      </trkpt>
      <trkpt lat="44.21127" lon="6.15207">
        <ele>1253</ele>
        <time>2018-05-17T09:22:14Z</time>
      </trkpt>
      <trkpt lat="44.21145" lon="6.15245">
        <ele>1258</ele>
        <time>2018-05-17T09:23:14Z</time>
      </trkpt>
      <trkpt lat="44.21187" lon="6.15353">
        <ele>1244</ele>
        <time>2018-05-17T09:24:14Z</time>
      </trkpt>
      <trkpt lat="44.21216" lon="6.15369">
        <ele>1244</ele>
        <time>2018-05-17T09:25:14Z</time>
      </trkpt>
      <trkpt lat="44.21243" lon="6.15378">
        <ele>1244</ele>
        <time>2018-05-17T09:26:14Z</time>
      </trkpt>
      <trkpt lat="44.2127" lon="6.15365">
        <ele>1247</ele>
        <time>2018-05-17T09:27:14Z</time>
      </trkpt>
      <trkpt lat="44.21316" lon="6.15367">
        <ele>1248</ele>
        <time>2018-05-17T09:28:14Z</time>
      </trkpt>
      <trkpt lat="44.21315" lon="6.15401">
        <ele>1245</ele>
        <time>2018-05-17T09:29:14Z</time>
      </trkpt>
      <trkpt lat="44.21288" lon="6.15426">
        <ele>1241</ele>
        <time>2018-05-17T09:30:14Z</time>
      </trkpt>
      <trkpt lat="44.21286" lon="6.15478">
        <ele>1242</ele>
        <time>2018-05-17T09:31:14Z</time>
      </trkpt>
      <trkpt lat="44.21282" lon="6.15511">
        <ele>1244</ele>
        <time>2018-05-17T09:32:14Z</time>
      </trkpt>
      <trkpt lat="44.2125" lon="6.15521">
        <ele>1243</ele>
        <time>2018-05-17T09:33:14Z</time>
      </trkpt>
      <trkpt lat="44.21141" lon="6.15462">
        <ele>1247</ele>
        <time>2018-05-17T09:34:14Z</time>
      </trkpt>
      <trkpt lat="44.21086" lon="6.15418">
        <ele>1239</ele>
        <time>2018-05-17T09:35:14Z</time>
      </trkpt>
      <trkpt lat="44.21067" lon="6.15413">
        <ele>1239</ele>
        <time>2018-05-17T09:36:14Z</time>
      </trkpt>
      <trkpt lat="44.21004" lon="6.15462">
        <ele>1247</ele>
        <time>2018-05-17T09:37:14Z</time>
      </trkpt>
      <trkpt lat="44.2101" lon="6.15504">
        <ele>1252</ele>
        <time>2018-05-17T09:38:14Z</time>
      </trkpt>
      <trkpt lat="44.21056" lon="6.15682">
        <ele>1262</ele>
        <time>2018-05-17T09:39:14Z</time>
      </trkpt>
      <trkpt lat="44.21047" lon="6.15738">
        <ele>1257</ele>
        <time>2018-05-17T09:40:14Z</time>
      </trkpt>
      <trkpt lat="44.21006" lon="6.15841">
        <ele>1248</ele>
        <time>2018-05-17T09:41:14Z</time>
      </trkpt>
      <trkpt lat="44.20988" lon="6.15892">
        <ele>1243</ele>
        <time>2018-05-17T09:42:14Z</time>
      </trkpt>
      <trkpt lat="44.20964" lon="6.15895">
        <ele>1237</ele>
        <time>2018-05-17T09:43:14Z</time>
      </trkpt>
      <trkpt lat="44.21001" lon="6.16002">
        <ele>1236</ele>
        <time>2018-05-17T09:44:14Z</time>
      </trkpt>
      <trkpt lat="44.21011" lon="6.16051">
        <ele>1230</ele>
        <time>2018-05-17T09:45:14Z</time>
      </trkpt>
      <trkpt lat="44.21039" lon="6.16101">
        <ele>1230</ele>
        <time>2018-05-17T09:46:14Z</time>
      </trkpt>
      <trkpt lat="44.21037" lon="6.1618">
        <ele>1221</ele>
        <time>2018-05-17T09:47:14Z</time>
      </trkpt>
      <trkpt lat="44.21042" lon="6.16285">
        <ele>1229</ele>
        <time>2018-05-17T09:48:14Z</time>
      </trkpt>
      <trkpt lat="44.21001" lon="6.1629">
        <ele>1227</ele>
        <time>2018-05-17T09:49:14Z</time>
      </trkpt>
      <trkpt lat="44.20977" lon="6.163">
        <ele>1228</ele>
        <time>2018-05-17T09:50:14Z</time>
      </trkpt>
      <trkpt lat="44.20955" lon="6.16306">
        <ele>1228</ele>
        <time>2018-05-17T09:51:14Z</time>
      </trkpt>
      <trkpt lat="44.20923" lon="6.16297">
        <ele>1223</ele>
        <time>2018-05-17T09:52:14Z</time>
      </trkpt>
      <trkpt lat="44.20907" lon="6.16303">
        <ele>1223</ele>
        <time>2018-05-17T09:53:14Z</time>
      </trkpt>
      <trkpt lat="44.20886" lon="6.16351">
        <ele>1231</ele>
        <time>2018-05-17T09:54:14Z</time>
      </trkpt>
      <trkpt lat="44.20862" lon="6.16357">
        <ele>1229</ele>
        <time>2018-05-17T09:55:14Z</time>
      </trkpt>
      <trkpt lat="44.20854" lon="6.16364">
        <ele>1229</ele>
        <time>2018-05-17T09:56:14Z</time>
      </trkpt>
      <trkpt lat="44.20834" lon="6.16382">
        <ele>1229</ele>
        <time>2018-05-17T09:57:14Z</time>
      </trkpt>
      <trkpt lat="44.20817" lon="6.16414">
        <ele>1229</ele>
        <time>2018-05-17T09:58:14Z</time>
      </trkpt>
      <trkpt lat="44.20826" lon="6.16467">
        <ele>1234</ele>
        <time>2018-05-17T09:59:14Z</time>
      </trkpt>
      <trkpt lat="44.20844" lon="6.1651">
        <ele>1240</ele>
        <time>2018-05-17T10:00:14Z</time>
      </trkpt>
      <trkpt lat="44.20848" lon="6.16547">
        <ele>1242</ele>
        <time>2018-05-17T10:01:14Z</time>
      </trkpt>
      <trkpt lat="44.20845" lon="6.16581">
        <ele>1241</ele>
        <time>2018-05-17T10:02:14Z</time>
      </trkpt>
      <trkpt lat="44.20841" lon="6.16622">
        <ele>1239</ele>
        <time>2018-05-17T10:03:14Z</time>
      </trkpt>
      <trkpt lat="44.20831" lon="6.16675">
        <ele>1236</ele>
        <time>2018-05-17T10:04:14Z</time>
      </trkpt>
      <trkpt lat="44.20828" lon="6.16743">
        <ele>1238</ele>
        <time>2018-05-17T10:05:14Z</time>
      </trkpt>
      <trkpt lat="44.20822" lon="6.16777">
        <ele>1239</ele>
        <time>2018-05-17T10:06:14Z</time>
      </trkpt>
      <trkpt lat="44.20811" lon="6.16807">
        <ele>1239</ele>
        <time>2018-05-17T10:07:14Z</time>
      </trkpt>
      <trkpt lat="44.20797" lon="6.1683">
        <ele>1238</ele>
        <time>2018-05-17T10:08:14Z</time>
      </trkpt>
      <trkpt lat="44.20786" lon="6.16859">
        <ele>1238</ele>
        <time>2018-05-17T10:09:14Z</time>
      </trkpt>
      <trkpt lat="44.20776" lon="6.16892">
        <ele>1239</ele>
        <time>2018-05-17T10:10:14Z</time>
      </trkpt>
      <trkpt lat="44.20772" lon="6.16915">
        <ele>1240</ele>
        <time>2018-05-17T10:11:14Z</time>
      </trkpt>
      <trkpt lat="44.20761" lon="6.16933">
        <ele>1239</ele>
        <time>2018-05-17T10:12:14Z</time>
      </trkpt>
      <trkpt lat="44.20745" lon="6.1693">
        <ele>1236</ele>
        <time>2018-05-17T10:13:14Z</time>
      </trkpt>
      <trkpt lat="44.20731" lon="6.1693">
        <ele>1233</ele>
        <time>2018-05-17T10:14:14Z</time>
      </trkpt>
      <trkpt lat="44.20722" lon="6.16942">
        <ele>1230</ele>
        <time>2018-05-17T10:15:14Z</time>
      </trkpt>
      <trkpt lat="44.20719" lon="6.16963">
        <ele>1230</ele>
        <time>2018-05-17T10:16:14Z</time>
      </trkpt>
      <trkpt lat="44.20721" lon="6.16989">
        <ele>1231</ele>
        <time>2018-05-17T10:17:14Z</time>
      </trkpt>
      <trkpt lat="44.20735" lon="6.17042">
        <ele>1236</ele>
        <time>2018-05-17T10:18:14Z</time>
      </trkpt>
      <trkpt lat="44.2074" lon="6.17089">
        <ele>1238</ele>
        <time>2018-05-17T10:19:14Z</time>
      </trkpt>
      <trkpt lat="44.20738" lon="6.17103">
        <ele>1239</ele>
        <time>2018-05-17T10:20:14Z</time>
      </trkpt>
      <trkpt lat="44.20746" lon="6.17108">
        <ele>1241</ele>
        <time>2018-05-17T10:21:14Z</time>
      </trkpt>
      <trkpt lat="44.20757" lon="6.17109">
        <ele>1243</ele>
        <time>2018-05-17T10:22:14Z</time>
      </trkpt>
      <trkpt lat="44.20766" lon="6.17106">
        <ele>1245</ele>
        <time>2018-05-17T10:23:14Z</time>
      </trkpt>
      <trkpt lat="44.20785" lon="6.17105">
        <ele>1249</ele>
        <time>2018-05-17T10:24:14Z</time>
      </trkpt>
      <trkpt lat="44.20804" lon="6.17118">
        <ele>1254</ele>
        <time>2018-05-17T10:25:14Z</time>
      </trkpt>
      <trkpt lat="44.20801" lon="6.17136">
        <ele>1253</ele>
        <time>2018-05-17T10:26:14Z</time>
      </trkpt>
      <trkpt lat="44.20795" lon="6.17148">
        <ele>1253</ele>
        <time>2018-05-17T10:27:14Z</time>
      </trkpt>
      <trkpt lat="44.20777" lon="6.17156">
        <ele>1250</ele>
        <time>2018-05-17T10:28:14Z</time>
      </trkpt>
      <trkpt lat="44.20761" lon="6.17154">
        <ele>1247</ele>
        <time>2018-05-17T10:29:14Z</time>
      </trkpt>
      <trkpt lat="44.20719" lon="6.17155">
        <ele>1241</ele>
        <time>2018-05-17T10:30:14Z</time>
      </trkpt>
      <trkpt lat="44.20687" lon="6.17151">
        <ele>1237</ele>
        <time>2018-05-17T10:31:14Z</time>
      </trkpt>
      <trkpt lat="44.20657" lon="6.17142">
        <ele>1232</ele>
        <time>2018-05-17T10:32:14Z</time>
      </trkpt>
      <trkpt lat="44.20647" lon="6.17148">
        <ele>1233</ele>
        <time>2018-05-17T10:33:14Z</time>
      </trkpt>
      <trkpt lat="44.20628" lon="6.17171">
        <ele>1236</ele>
        <time>2018-05-17T10:34:14Z</time>
      </trkpt>
      <trkpt lat="44.20587" lon="6.1719">
        <ele>1237</ele>
        <time>2018-05-17T10:35:14Z</time>
      </trkpt>
      <trkpt lat="44.20571" lon="6.17207">
        <ele>1236</ele>
        <time>2018-05-17T10:36:14Z</time>
      </trkpt>
      <trkpt lat="44.20571" lon="6.17232">
        <ele>1239</ele>
        <time>2018-05-17T10:37:14Z</time>
      </trkpt>
      <trkpt lat="44.2058" lon="6.17239">
        <ele>1241</ele>
        <time>2018-05-17T10:38:14Z</time>
      </trkpt>
      <trkpt lat="44.20594" lon="6.17237">
        <ele>1243</ele>
        <time>2018-05-17T10:39:14Z</time>
      </trkpt>
      <trkpt lat="44.20617" lon="6.17219">
        <ele>1243</ele>
        <time>2018-05-17T10:40:14Z</time>
      </trkpt>
      <trkpt lat="44.20671" lon="6.17176">
        <ele>1240</ele>
        <time>2018-05-17T10:41:14Z</time>
      </trkpt>
      <trkpt lat="44.2068" lon="6.17173">
        <ele>1240</ele>
        <time>2018-05-17T10:42:14Z</time>
      </trkpt>
      <trkpt lat="44.20687" lon="6.17177">
        <ele>1242</ele>
        <time>2018-05-17T10:43:14Z</time>
      </trkpt>
      <trkpt lat="44.20691" lon="6.17185">
        <ele>1244</ele>
        <time>2018-05-17T10:44:14Z</time>
      </trkpt>
      <trkpt lat="44.20688" lon="6.17194">
        <ele>1246</ele>
        <time>2018-05-17T10:45:14Z</time>
      </trkpt>
      <trkpt lat="44.20679" lon="6.17206">
        <ele>1248</ele>
        <time>2018-05-17T10:46:14Z</time>
      </trkpt>
      <trkpt lat="44.20671" lon="6.17222">
        <ele>1250</ele>
        <time>2018-05-17T10:47:14Z</time>
      </trkpt>
      <trkpt lat="44.20672" lon="6.17243">
        <ele>1255</ele>
        <time>2018-05-17T10:48:14Z</time>
      </trkpt>
      <trkpt lat="44.20692" lon="6.17261">
        <ele>1261</ele>
        <time>2018-05-17T10:49:14Z</time>
      </trkpt>
      <trkpt lat="44.20712" lon="6.17289">
        <ele>1268</ele>
        <time>2018-05-17T10:50:14Z</time>
      </trkpt>
      <trkpt lat="44.20724" lon="6.17322">
        <ele>1275</ele>
        <time>2018-05-17T10:51:14Z</time>
      </trkpt>
      <trkpt lat="44.20727" lon="6.17347">
        <ele>1277</ele>
        <time>2018-05-17T10:52:14Z</time>
      </trkpt>
      <trkpt lat="44.20737" lon="6.17385">
        <ele>1281</ele>
        <time>2018-05-17T10:53:14Z</time>
      </trkpt>
      <trkpt lat="44.20767" lon="6.1746">
        <ele>1291</ele>
        <time>2018-05-17T10:54:14Z</time>
      </trkpt>
      <trkpt lat="44.20774" lon="6.17497">
        <ele>1294</ele>
        <time>2018-05-17T10:55:14Z</time>
      </trkpt>
      <trkpt lat="44.20774" lon="6.17533">
        <ele>1297</ele>
        <time>2018-05-17T10:56:14Z</time>
      </trkpt>
      <trkpt lat="44.20772" lon="6.17568">
        <ele>1298</ele>
        <time>2018-05-17T10:57:14Z</time>
      </trkpt>
      <trkpt lat="44.20764" lon="6.17599">
        <ele>1299</ele>
        <time>2018-05-17T10:58:14Z</time>
      </trkpt>
      <trkpt lat="44.20757" lon="6.17627">
        <ele>1299</ele>
        <time>2018-05-17T10:59:14Z</time>
      </trkpt>
      <trkpt lat="44.20751" lon="6.17649">
        <ele>1300</ele>
        <time>2018-05-17T11:00:14Z</time>
      </trkpt>
      <trkpt lat="44.20758" lon="6.17664">
        <ele>1303</ele>
        <time>2018-05-17T11:01:14Z</time>
      </trkpt>
      <trkpt lat="44.20765" lon="6.17666">
        <ele>1304</ele>
        <time>2018-05-17T11:02:14Z</time>
      </trkpt>
      <trkpt lat="44.2078" lon="6.17658">
        <ele>1307</ele>
        <time>2018-05-17T11:03:14Z</time>
      </trkpt>
      <trkpt lat="44.20802" lon="6.17643">
        <ele>1311</ele>
        <time>2018-05-17T11:04:14Z</time>
      </trkpt>
      <trkpt lat="44.20811" lon="6.17638">
        <ele>1312</ele>
        <time>2018-05-17T11:05:14Z</time>
      </trkpt>
      <trkpt lat="44.20816" lon="6.17649">
        <ele>1314</ele>
        <time>2018-05-17T11:06:14Z</time>
      </trkpt>
      <trkpt lat="44.20815" lon="6.1767">
        <ele>1315</ele>
        <time>2018-05-17T11:07:14Z</time>
      </trkpt>
      <trkpt lat="44.20812" lon="6.177">
        <ele>1317</ele>
        <time>2018-05-17T11:08:14Z</time>
      </trkpt>
      <trkpt lat="44.2081" lon="6.17727">
        <ele>1319</ele>
        <time>2018-05-17T11:09:14Z</time>
      </trkpt>
      <trkpt lat="44.20815" lon="6.17746">
        <ele>1321</ele>
        <time>2018-05-17T11:10:14Z</time>
      </trkpt>
      <trkpt lat="44.20833" lon="6.17772">
        <ele>1328</ele>
        <time>2018-05-17T11:11:14Z</time>
      </trkpt>
      <trkpt lat="44.20846" lon="6.17793">
        <ele>1332</ele>
        <time>2018-05-17T11:12:14Z</time>
      </trkpt>
      <trkpt lat="44.20844" lon="6.17813">
        <ele>1333</ele>
        <time>2018-05-17T11:13:14Z</time>
      </trkpt>
      <trkpt lat="44.20845" lon="6.17832">
        <ele>1334</ele>
        <time>2018-05-17T11:14:14Z</time>
      </trkpt>
      <trkpt lat="44.20858" lon="6.17855">
        <ele>1340</ele>
        <time>2018-05-17T11:15:14Z</time>
      </trkpt>
      <trkpt lat="44.20863" lon="6.17869">
        <ele>1343</ele>
        <time>2018-05-17T11:16:14Z</time>
      </trkpt>
      <trkpt lat="44.2086" lon="6.17886">
        <ele>1343</ele>
        <time>2018-05-17T11:17:14Z</time>
      </trkpt>
      <trkpt lat="44.20863" lon="6.17911">
        <ele>1346</ele>
        <time>2018-05-17T11:18:14Z</time>
      </trkpt>
      <trkpt lat="44.20861" lon="6.17936">
        <ele>1348</ele>
        <time>2018-05-17T11:19:14Z</time>
      </trkpt>
      <trkpt lat="44.20854" lon="6.17948">
        <ele>1347</ele>
        <time>2018-05-17T11:20:14Z</time>
      </trkpt>
      <trkpt lat="44.20843" lon="6.17956">
        <ele>1345</ele>
        <time>2018-05-17T11:21:14Z</time>
      </trkpt>
      <trkpt lat="44.20835" lon="6.17966">
        <ele>1343</ele>
        <time>2018-05-17T11:22:14Z</time>
      </trkpt>
      <trkpt lat="44.2083" lon="6.1798">
        <ele>1344</ele>
        <time>2018-05-17T11:23:14Z</time>
      </trkpt>
      <trkpt lat="44.20825" lon="6.17987">
        <ele>1343</ele>
        <time>2018-05-17T11:24:14Z</time>
      </trkpt>
      <trkpt lat="44.20816" lon="6.17995">
        <ele>1342</ele>
        <time>2018-05-17T11:25:14Z</time>
      </trkpt>
      <trkpt lat="44.20809" lon="6.18004">
        <ele>1341</ele>
        <time>2018-05-17T11:26:14Z</time>
      </trkpt>
      <trkpt lat="44.20807" lon="6.18012">
        <ele>1342</ele>
        <time>2018-05-17T11:27:14Z</time>
      </trkpt>
      <trkpt lat="44.20801" lon="6.18043">
        <ele>1348</ele>
        <time>2018-05-17T11:28:14Z</time>
      </trkpt>
      <trkpt lat="44.20793" lon="6.18051">
        <ele>1348</ele>
        <time>2018-05-17T11:29:14Z</time>
      </trkpt>
      <trkpt lat="44.2078" lon="6.1807">
        <ele>1350</ele>
        <time>2018-05-17T11:30:14Z</time>
      </trkpt>
      <trkpt lat="44.20768" lon="6.18083">
        <ele>1351</ele>
        <time>2018-05-17T11:31:14Z</time>
      </trkpt>
      <trkpt lat="44.20755" lon="6.18088">
        <ele>1349</ele>
        <time>2018-05-17T11:32:14Z</time>
      </trkpt>
      <trkpt lat="44.20735" lon="6.18099">
        <ele>1348</ele>
        <time>2018-05-17T11:33:14Z</time>
      </trkpt>
      <trkpt lat="44.20727" lon="6.18115">
        <ele>1350</ele>
        <time>2018-05-17T11:34:14Z</time>
      </trkpt>
      <trkpt lat="44.2072" lon="6.18126">
        <ele>1351</ele>
        <time>2018-05-17T11:35:14Z</time>
      </trkpt>
      <trkpt lat="44.20712" lon="6.18131">
        <ele>1350</ele>
        <time>2018-05-17T11:36:14Z</time>
      </trkpt>
      <trkpt lat="44.2071" lon="6.18143">
        <ele>1352</ele>
        <time>2018-05-17T11:37:14Z</time>
      </trkpt>
      <trkpt lat="44.20709" lon="6.18166">
        <ele>1356</ele>
        <time>2018-05-17T11:38:14Z</time>
      </trkpt>
      <trkpt lat="44.20701" lon="6.18176">
        <ele>1355</ele>
        <time>2018-05-17T11:39:14Z</time>
      </trkpt>
      <trkpt lat="44.20681" lon="6.18178">
        <ele>1350</ele>
        <time>2018-05-17T11:40:14Z</time>
      </trkpt>
      <trkpt lat="44.20671" lon="6.18181">
        <ele>1348</ele>
        <time>2018-05-17T11:41:14Z</time>
      </trkpt>
      <trkpt lat="44.20666" lon="6.1819">
        <ele>1347</ele>
        <time>2018-05-17T11:42:14Z</time>
      </trkpt>
      <trkpt lat="44.2066" lon="6.18208">
        <ele>1348</ele>
        <time>2018-05-17T11:43:14Z</time>
      </trkpt>
      <trkpt lat="44.20654" lon="6.18231">
        <ele>1349</ele>
        <time>2018-05-17T11:44:14Z</time>
      </trkpt>
      <trkpt lat="44.20653" lon="6.18247">
        <ele>1351</ele>
        <time>2018-05-17T11:45:14Z</time>
      </trkpt>
      <trkpt lat="44.20659" lon="6.18257">
        <ele>1353</ele>
        <time>2018-05-17T11:46:14Z</time>
      </trkpt>
      <trkpt lat="44.20673" lon="6.18271">
        <ele>1356</ele>
        <time>2018-05-17T11:47:14Z</time>
      </trkpt>
      <trkpt lat="44.20693" lon="6.18282">
        <ele>1360</ele>
        <time>2018-05-17T11:48:14Z</time>
      </trkpt>
      <trkpt lat="44.2071" lon="6.18299">
        <ele>1363</ele>
        <time>2018-05-17T11:49:14Z</time>
      </trkpt>
      <trkpt lat="44.20725" lon="6.18309">
        <ele>1366</ele>
        <time>2018-05-17T11:50:14Z</time>
      </trkpt>
      <trkpt lat="44.20725" lon="6.18325">
        <ele>1365</ele>
        <time>2018-05-17T11:51:14Z</time>
      </trkpt>
      <trkpt lat="44.20728" lon="6.18346">
        <ele>1366</ele>
        <time>2018-05-17T11:52:14Z</time>
      </trkpt>
      <trkpt lat="44.20735" lon="6.18358">
        <ele>1367</ele>
        <time>2018-05-17T11:53:14Z</time>
      </trkpt>
      <trkpt lat="44.20738" lon="6.1838">
        <ele>1368</ele>
        <time>2018-05-17T11:54:14Z</time>
      </trkpt>
      <trkpt lat="44.20733" lon="6.18397">
        <ele>1368</ele>
        <time>2018-05-17T11:55:14Z</time>
      </trkpt>
      <trkpt lat="44.20728" lon="6.18417">
        <ele>1368</ele>
        <time>2018-05-17T11:56:14Z</time>
      </trkpt>
      <trkpt lat="44.2069" lon="6.18508">
        <ele>1370</ele>
        <time>2018-05-17T11:57:14Z</time>
      </trkpt>
      <trkpt lat="44.20685" lon="6.18525">
        <ele>1369</ele>
        <time>2018-05-17T11:58:14Z</time>
      </trkpt>
      <trkpt lat="44.20688" lon="6.18548">
        <ele>1370</ele>
        <time>2018-05-17T11:59:14Z</time>
      </trkpt>
      <trkpt lat="44.20699" lon="6.18574">
        <ele>1372</ele>
        <time>2018-05-17T12:00:14Z</time>
      </trkpt>
      <trkpt lat="44.20711" lon="6.18588">
        <ele>1374</ele>
        <time>2018-05-17T12:01:14Z</time>
      </trkpt>
      <trkpt lat="44.20731" lon="6.18604">
        <ele>1375</ele>
        <time>2018-05-17T12:02:14Z</time>
      </trkpt>
      <trkpt lat="44.20751" lon="6.18615">
        <ele>1377</ele>
        <time>2018-05-17T12:03:14Z</time>
      </trkpt>
      <trkpt lat="44.20764" lon="6.18626">
        <ele>1379</ele>
        <time>2018-05-17T12:04:14Z</time>
      </trkpt>
      <trkpt lat="44.20774" lon="6.18639">
        <ele>1381</ele>
        <time>2018-05-17T12:05:14Z</time>
      </trkpt>
      <trkpt lat="44.20775" lon="6.18653">
        <ele>1380</ele>
        <time>2018-05-17T12:06:14Z</time>
      </trkpt>
      <trkpt lat="44.20775" lon="6.18672">
        <ele>1378</ele>
        <time>2018-05-17T12:07:14Z</time>
      </trkpt>
      <trkpt lat="44.20785" lon="6.18697">
        <ele>1378</ele>
        <time>2018-05-17T12:08:14Z</time>
      </trkpt>
      <trkpt lat="44.208" lon="6.1874">
        <ele>1377</ele>
        <time>2018-05-17T12:09:14Z</time>
      </trkpt>
      <trkpt lat="44.20812" lon="6.18779">
        <ele>1376</ele>
        <time>2018-05-17T12:10:14Z</time>
      </trkpt>
      <trkpt lat="44.20821" lon="6.18819">
        <ele>1374</ele>
        <time>2018-05-17T12:11:14Z</time>
      </trkpt>
      <trkpt lat="44.2083" lon="6.18867">
        <ele>1373</ele>
        <time>2018-05-17T12:12:14Z</time>
      </trkpt>
      <trkpt lat="44.20836" lon="6.18909">
        <ele>1374</ele>
        <time>2018-05-17T12:13:14Z</time>
      </trkpt>
      <trkpt lat="44.2084" lon="6.18943">
        <ele>1373</ele>
        <time>2018-05-17T12:14:14Z</time>
      </trkpt>
      <trkpt lat="44.20845" lon="6.18961">
        <ele>1373</ele>
        <time>2018-05-17T12:15:14Z</time>
      </trkpt>
      <trkpt lat="44.20861" lon="6.18983">
        <ele>1374</ele>
        <time>2018-05-17T12:16:14Z</time>
      </trkpt>
      <trkpt lat="44.20889" lon="6.19016">
        <ele>1376</ele>
        <time>2018-05-17T12:17:14Z</time>
      </trkpt>
      <trkpt lat="44.20898" lon="6.19028">
        <ele>1375</ele>
        <time>2018-05-17T12:18:14Z</time>
      </trkpt>
      <trkpt lat="44.20898" lon="6.19048">
        <ele>1371</ele>
        <time>2018-05-17T12:19:14Z</time>
      </trkpt>
      <trkpt lat="44.20889" lon="6.1905">
        <ele>1370</ele>
        <time>2018-05-17T12:20:14Z</time>
      </trkpt>
      <trkpt lat="44.20878" lon="6.19046">
        <ele>1369</ele>
        <time>2018-05-17T12:21:14Z</time>
      </trkpt>
      <trkpt lat="44.20835" lon="6.19049">
        <ele>1362</ele>
        <time>2018-05-17T12:22:14Z</time>
      </trkpt>
      <trkpt lat="44.20808" lon="6.19051">
        <ele>1357</ele>
        <time>2018-05-17T12:23:14Z</time>
      </trkpt>
      <trkpt lat="44.20788" lon="6.19048">
        <ele>1354</ele>
        <time>2018-05-17T12:24:14Z</time>
      </trkpt>
      <trkpt lat="44.20773" lon="6.19065">
        <ele>1351</ele>
        <time>2018-05-17T12:25:14Z</time>
      </trkpt>
      <trkpt lat="44.20771" lon="6.19081">
        <ele>1350</ele>
        <time>2018-05-17T12:26:14Z</time>
      </trkpt>
      <trkpt lat="44.20777" lon="6.19091">
        <ele>1350</ele>
        <time>2018-05-17T12:27:14Z</time>
      </trkpt>
      <trkpt lat="44.20806" lon="6.19126">
        <ele>1351</ele>
        <time>2018-05-17T12:28:14Z</time>
      </trkpt>
      <trkpt lat="44.20822" lon="6.19156">
        <ele>1351</ele>
        <time>2018-05-17T12:29:14Z</time>
      </trkpt>
      <trkpt lat="44.20834" lon="6.19198">
        <ele>1347</ele>
        <time>2018-05-17T12:30:14Z</time>
      </trkpt>
      <trkpt lat="44.20823" lon="6.19233">
        <ele>1341</ele>
        <time>2018-05-17T12:31:14Z</time>
      </trkpt>
      <trkpt lat="44.20814" lon="6.19257">
        <ele>1338</ele>
        <time>2018-05-17T12:32:14Z</time>
      </trkpt>
      <trkpt lat="44.2082" lon="6.19306">
        <ele>1334</ele>
        <time>2018-05-17T12:33:14Z</time>
      </trkpt>
      <trkpt lat="44.20825" lon="6.19335">
        <ele>1332</ele>
        <time>2018-05-17T12:34:14Z</time>
      </trkpt>
      <trkpt lat="44.2083" lon="6.19356">
        <ele>1331</ele>
        <time>2018-05-17T12:35:14Z</time>
      </trkpt>
      <trkpt lat="44.20836" lon="6.19382">
        <ele>1329</ele>
        <time>2018-05-17T12:36:14Z</time>
      </trkpt>
      <trkpt lat="44.20838" lon="6.19408">
        <ele>1327</ele>
        <time>2018-05-17T12:37:14Z</time>
      </trkpt>
      <trkpt lat="44.20844" lon="6.19427">
        <ele>1325</ele>
        <time>2018-05-17T12:38:14Z</time>
      </trkpt>
      <trkpt lat="44.20846" lon="6.19447">
        <ele>1323</ele>
        <time>2018-05-17T12:39:14Z</time>
      </trkpt>
      <trkpt lat="44.20842" lon="6.19465">
        <ele>1320</ele>
        <time>2018-05-17T12:40:14Z</time>
      </trkpt>
      <trkpt lat="44.20839" lon="6.19482">
        <ele>1318</ele>
        <time>2018-05-17T12:41:14Z</time>
      </trkpt>
      <trkpt lat="44.20838" lon="6.19501">
        <ele>1315</ele>
        <time>2018-05-17T12:42:14Z</time>
      </trkpt>
      <trkpt lat="44.20851" lon="6.19518">
        <ele>1313</ele>
        <time>2018-05-17T12:43:14Z</time>
      </trkpt>
      <trkpt lat="44.2085" lon="6.19543">
        <ele>1310</ele>
        <time>2018-05-17T12:44:14Z</time>
      </trkpt>
      <trkpt lat="44.20862" lon="6.19553">
        <ele>1309</ele>
        <time>2018-05-17T12:45:14Z</time>
      </trkpt>
      <trkpt lat="44.20857" lon="6.19564">
        <ele>1307</ele>
        <time>2018-05-17T12:46:14Z</time>
      </trkpt>
      <trkpt lat="44.20849" lon="6.19575">
        <ele>1305</ele>
        <time>2018-05-17T12:47:14Z</time>
      </trkpt>
      <trkpt lat="44.20837" lon="6.19588">
        <ele>1302</ele>
        <time>2018-05-17T12:48:14Z</time>
      </trkpt>
      <trkpt lat="44.20813" lon="6.19598">
        <ele>1299</ele>
        <time>2018-05-17T12:49:14Z</time>
      </trkpt>
      <trkpt lat="44.20794" lon="6.19601">
        <ele>1296</ele>
        <time>2018-05-17T12:50:14Z</time>
      </trkpt>
      <trkpt lat="44.20786" lon="6.19593">
        <ele>1297</ele>
        <time>2018-05-17T12:51:14Z</time>
      </trkpt>
      <trkpt lat="44.20783" lon="6.19567">
        <ele>1300</ele>
        <time>2018-05-17T12:52:14Z</time>
      </trkpt>
      <trkpt lat="44.20776" lon="6.1956">
        <ele>1300</ele>
        <time>2018-05-17T12:53:14Z</time>
      </trkpt>
      <trkpt lat="44.20754" lon="6.19584">
        <ele>1294</ele>
        <time>2018-05-17T12:54:14Z</time>
      </trkpt>
      <trkpt lat="44.20744" lon="6.19601">
        <ele>1292</ele>
        <time>2018-05-17T12:55:14Z</time>
      </trkpt>
      <trkpt lat="44.20731" lon="6.19614">
        <ele>1290</ele>
        <time>2018-05-17T12:56:14Z</time>
      </trkpt>
      <trkpt lat="44.20722" lon="6.19628">
        <ele>1287</ele>
        <time>2018-05-17T12:57:14Z</time>
      </trkpt>
      <trkpt lat="44.20715" lon="6.19644">
        <ele>1285</ele>
        <time>2018-05-17T12:58:14Z</time>
      </trkpt>
      <trkpt lat="44.2071" lon="6.19658">
        <ele>1283</ele>
        <time>2018-05-17T12:59:14Z</time>
      </trkpt>
      <trkpt lat="44.20702" lon="6.19676">
        <ele>1279</ele>
        <time>2018-05-17T13:00:14Z</time>
      </trkpt>
      <trkpt lat="44.20693" lon="6.1968">
        <ele>1278</ele>
        <time>2018-05-17T13:01:14Z</time>
      </trkpt>
      <trkpt lat="44.20681" lon="6.19667">
        <ele>1278</ele>
        <time>2018-05-17T13:02:14Z</time>
      </trkpt>
      <trkpt lat="44.20669" lon="6.19655">
        <ele>1279</ele>
        <time>2018-05-17T13:03:14Z</time>
      </trkpt>
      <trkpt lat="44.20654" lon="6.19637">
        <ele>1280</ele>
        <time>2018-05-17T13:04:14Z</time>
      </trkpt>
      <trkpt lat="44.20642" lon="6.19636">
        <ele>1280</ele>
        <time>2018-05-17T13:05:14Z</time>
      </trkpt>
      <trkpt lat="44.20623" lon="6.19629">
        <ele>1280</ele>
        <time>2018-05-17T13:06:14Z</time>
      </trkpt>
      <trkpt lat="44.20616" lon="6.19635">
        <ele>1278</ele>
        <time>2018-05-17T13:07:14Z</time>
      </trkpt>
      <trkpt lat="44.20608" lon="6.19644">
        <ele>1276</ele>
        <time>2018-05-17T13:08:14Z</time>
      </trkpt>
      <trkpt lat="44.20603" lon="6.19658">
        <ele>1272</ele>
        <time>2018-05-17T13:09:14Z</time>
      </trkpt>
      <trkpt lat="44.20598" lon="6.19674">
        <ele>1267</ele>
        <time>2018-05-17T13:10:14Z</time>
      </trkpt>
      <trkpt lat="44.20595" lon="6.19689">
        <ele>1263</ele>
        <time>2018-05-17T13:11:14Z</time>
      </trkpt>
      <trkpt lat="44.20595" lon="6.19711">
        <ele>1258</ele>
        <time>2018-05-17T13:12:14Z</time>
      </trkpt>
      <trkpt lat="44.20592" lon="6.19726">
        <ele>1254</ele>
        <time>2018-05-17T13:13:14Z</time>
      </trkpt>
      <trkpt lat="44.20556" lon="6.19733">
        <ele>1251</ele>
        <time>2018-05-17T13:14:14Z</time>
      </trkpt>
      <trkpt lat="44.20536" lon="6.19741">
        <ele>1249</ele>
        <time>2018-05-17T13:15:14Z</time>
      </trkpt>
      <trkpt lat="44.20522" lon="6.1975">
        <ele>1246</ele>
        <time>2018-05-17T13:16:14Z</time>
      </trkpt>
      <trkpt lat="44.20495" lon="6.19751">
        <ele>1246</ele>
        <time>2018-05-17T13:17:14Z</time>
      </trkpt>
      <trkpt lat="44.20487" lon="6.19756">
        <ele>1244</ele>
        <time>2018-05-17T13:18:14Z</time>
      </trkpt>
      <trkpt lat="44.20481" lon="6.19775">
        <ele>1238</ele>
        <time>2018-05-17T13:19:14Z</time>
      </trkpt>
      <trkpt lat="44.20469" lon="6.19802">
        <ele>1230</ele>
        <time>2018-05-17T13:20:14Z</time>
      </trkpt>
      <trkpt lat="44.20456" lon="6.1981">
        <ele>1229</ele>
        <time>2018-05-17T13:21:14Z</time>
      </trkpt>
      <trkpt lat="44.20443" lon="6.19814">
        <ele>1230</ele>
        <time>2018-05-17T13:22:14Z</time>
      </trkpt>
      <trkpt lat="44.20425" lon="6.19816">
        <ele>1232</ele>
        <time>2018-05-17T13:23:14Z</time>
      </trkpt>
      <trkpt lat="44.20392" lon="6.19817">
        <ele>1229</ele>
        <time>2018-05-17T13:24:14Z</time>
      </trkpt>
      <trkpt lat="44.20382" lon="6.19815">
        <ele>1227</ele>
        <time>2018-05-17T13:25:14Z</time>
      </trkpt>
      <trkpt lat="44.20373" lon="6.19815">
        <ele>1226</ele>
        <time>2018-05-17T13:26:14Z</time>
      </trkpt>
      <trkpt lat="44.20367" lon="6.19809">
        <ele>1225</ele>
        <time>2018-05-17T13:27:14Z</time>
      </trkpt>
      <trkpt lat="44.2035" lon="6.19781">
        <ele>1220</ele>
        <time>2018-05-17T13:28:14Z</time>
      </trkpt>
      <trkpt lat="44.2034" lon="6.19745">
        <ele>1214</ele>
        <time>2018-05-17T13:29:14Z</time>
      </trkpt>
      <trkpt lat="44.2034" lon="6.19694">
        <ele>1209</ele>
        <time>2018-05-17T13:30:14Z</time>
      </trkpt>
      <trkpt lat="44.20349" lon="6.19616">
        <ele>1205</ele>
        <time>2018-05-17T13:31:14Z</time>
      </trkpt>
      <trkpt lat="44.20358" lon="6.19575">
        <ele>1206</ele>
        <time>2018-05-17T13:32:14Z</time>
      </trkpt>
      <trkpt lat="44.20373" lon="6.19545">
        <ele>1211</ele>
        <time>2018-05-17T13:33:14Z</time>
      </trkpt>
      <trkpt lat="44.20386" lon="6.19511">
        <ele>1215</ele>
        <time>2018-05-17T13:34:14Z</time>
      </trkpt>
      <trkpt lat="44.20386" lon="6.19496">
        <ele>1214</ele>
        <time>2018-05-17T13:35:14Z</time>
      </trkpt>
      <trkpt lat="44.20375" lon="6.19451">
        <ele>1207</ele>
        <time>2018-05-17T13:36:14Z</time>
      </trkpt>
      <trkpt lat="44.20358" lon="6.19396">
        <ele>1199</ele>
        <time>2018-05-17T13:37:14Z</time>
      </trkpt>
      <trkpt lat="44.20358" lon="6.19368">
        <ele>1201</ele>
        <time>2018-05-17T13:38:14Z</time>
      </trkpt>
      <trkpt lat="44.20356" lon="6.19347">
        <ele>1201</ele>
        <time>2018-05-17T13:39:14Z</time>
      </trkpt>
      <trkpt lat="44.20349" lon="6.19313">
        <ele>1201</ele>
        <time>2018-05-17T13:40:14Z</time>
      </trkpt>
      <trkpt lat="44.20339" lon="6.19288">
        <ele>1199</ele>
        <time>2018-05-17T13:41:14Z</time>
      </trkpt>
      <trkpt lat="44.20327" lon="6.19273">
        <ele>1194</ele>
        <time>2018-05-17T13:42:14Z</time>
      </trkpt>
      <trkpt lat="44.20318" lon="6.19258">
        <ele>1191</ele>
        <time>2018-05-17T13:43:14Z</time>
      </trkpt>
      <trkpt lat="44.20318" lon="6.19242">
        <ele>1194</ele>
        <time>2018-05-17T13:44:14Z</time>
      </trkpt>
      <trkpt lat="44.20317" lon="6.19225">
        <ele>1195</ele>
        <time>2018-05-17T13:45:14Z</time>
      </trkpt>
      <trkpt lat="44.20311" lon="6.19217">
        <ele>1193</ele>
        <time>2018-05-17T13:46:14Z</time>
      </trkpt>
      <trkpt lat="44.20299" lon="6.19207">
        <ele>1188</ele>
        <time>2018-05-17T13:47:14Z</time>
      </trkpt>
      <trkpt lat="44.20287" lon="6.19196">
        <ele>1183</ele>
        <time>2018-05-17T13:48:14Z</time>
      </trkpt>
      <trkpt lat="44.20277" lon="6.19186">
        <ele>1179</ele>
        <time>2018-05-17T13:49:14Z</time>
      </trkpt>
      <trkpt lat="44.20269" lon="6.19173">
        <ele>1177</ele>
        <time>2018-05-17T13:50:14Z</time>
      </trkpt>
      <trkpt lat="44.20264" lon="6.19162">
        <ele>1175</ele>
        <time>2018-05-17T13:51:14Z</time>
      </trkpt>
      <trkpt lat="44.20253" lon="6.19137">
        <ele>1170</ele>
        <time>2018-05-17T13:52:14Z</time>
      </trkpt>
      <trkpt lat="44.2024" lon="6.19113">
        <ele>1166</ele>
        <time>2018-05-17T13:53:14Z</time>
      </trkpt>
      <trkpt lat="44.2023" lon="6.19102">
        <ele>1163</ele>
        <time>2018-05-17T13:54:14Z</time>
      </trkpt>
      <trkpt lat="44.20229" lon="6.19107">
        <ele>1162</ele>
        <time>2018-05-17T13:55:14Z</time>
      </trkpt>
      <trkpt lat="44.20229" lon="6.19117">
        <ele>1162</ele>
        <time>2018-05-17T13:56:14Z</time>
      </trkpt>
      <trkpt lat="44.20233" lon="6.19162">
        <ele>1161</ele>
        <time>2018-05-17T13:57:14Z</time>
      </trkpt>
      <trkpt lat="44.20236" lon="6.19182">
        <ele>1160</ele>
        <time>2018-05-17T13:58:14Z</time>
      </trkpt>
      <trkpt lat="44.20231" lon="6.19193">
        <ele>1157</ele>
        <time>2018-05-17T13:59:14Z</time>
      </trkpt>
      <trkpt lat="44.20222" lon="6.19193">
        <ele>1154</ele>
        <time>2018-05-17T14:00:14Z</time>
      </trkpt>
      <trkpt lat="44.20191" lon="6.19181">
        <ele>1145</ele>
        <time>2018-05-17T14:01:14Z</time>
      </trkpt>
      <trkpt lat="44.20175" lon="6.19157">
        <ele>1141</ele>
        <time>2018-05-17T14:02:14Z</time>
      </trkpt>
      <trkpt lat="44.20156" lon="6.19131">
        <ele>1136</ele>
        <time>2018-05-17T14:03:14Z</time>
      </trkpt>
      <trkpt lat="44.20145" lon="6.1911">
        <ele>1133</ele>
        <time>2018-05-17T14:04:14Z</time>
      </trkpt>
      <trkpt lat="44.20136" lon="6.19082">
        <ele>1130</ele>
        <time>2018-05-17T14:05:14Z</time>
      </trkpt>
      <trkpt lat="44.20136" lon="6.19061">
        <ele>1129</ele>
        <time>2018-05-17T14:06:14Z</time>
      </trkpt>
      <trkpt lat="44.20138" lon="6.19049">
        <ele>1129</ele>
        <time>2018-05-17T14:07:14Z</time>
      </trkpt>
      <trkpt lat="44.20142" lon="6.19044">
        <ele>1129</ele>
        <time>2018-05-17T14:08:14Z</time>
      </trkpt>
      <trkpt lat="44.20153" lon="6.1904">
        <ele>1133</ele>
        <time>2018-05-17T14:09:14Z</time>
      </trkpt>
      <trkpt lat="44.20162" lon="6.19037">
        <ele>1135</ele>
        <time>2018-05-17T14:10:14Z</time>
      </trkpt>
      <trkpt lat="44.2017" lon="6.1903">
        <ele>1138</ele>
        <time>2018-05-17T14:11:14Z</time>
      </trkpt>
      <trkpt lat="44.20171" lon="6.19015">
        <ele>1138</ele>
        <time>2018-05-17T14:12:14Z</time>
      </trkpt>
      <trkpt lat="44.20164" lon="6.19001">
        <ele>1134</ele>
        <time>2018-05-17T14:13:14Z</time>
      </trkpt>
      <trkpt lat="44.20164" lon="6.18991">
        <ele>1135</ele>
        <time>2018-05-17T14:14:14Z</time>
      </trkpt>
      <trkpt lat="44.20165" lon="6.18973">
        <ele>1138</ele>
        <time>2018-05-17T14:15:14Z</time>
      </trkpt>
      <trkpt lat="44.20168" lon="6.18957">
        <ele>1141</ele>
        <time>2018-05-17T14:16:14Z</time>
      </trkpt>
      <trkpt lat="44.20165" lon="6.18948">
        <ele>1141</ele>
        <time>2018-05-17T14:17:14Z</time>
      </trkpt>
      <trkpt lat="44.2016" lon="6.18928">
        <ele>1142</ele>
        <time>2018-05-17T14:18:14Z</time>
      </trkpt>
      <trkpt lat="44.20147" lon="6.18901">
        <ele>1141</ele>
        <time>2018-05-17T14:19:14Z</time>
      </trkpt>
      <trkpt lat="44.20134" lon="6.18878">
        <ele>1140</ele>
        <time>2018-05-17T14:20:14Z</time>
      </trkpt>
      <trkpt lat="44.20131" lon="6.18862">
        <ele>1141</ele>
        <time>2018-05-17T14:21:14Z</time>
      </trkpt>
      <trkpt lat="44.20122" lon="6.18848">
        <ele>1139</ele>
        <time>2018-05-17T14:22:14Z</time>
      </trkpt>
      <trkpt lat="44.20111" lon="6.1883">
        <ele>1136</ele>
        <time>2018-05-17T14:23:14Z</time>
      </trkpt>
      <trkpt lat="44.20107" lon="6.18816">
        <ele>1135</ele>
        <time>2018-05-17T14:24:14Z</time>
      </trkpt>
      <trkpt lat="44.20105" lon="6.18775">
        <ele>1138</ele>
        <time>2018-05-17T14:25:14Z</time>
      </trkpt>
      <trkpt lat="44.20104" lon="6.18755">
        <ele>1139</ele>
        <time>2018-05-17T14:26:14Z</time>
      </trkpt>
      <trkpt lat="44.20098" lon="6.18744">
        <ele>1138</ele>
        <time>2018-05-17T14:27:14Z</time>
      </trkpt>
      <trkpt lat="44.20085" lon="6.18729">
        <ele>1133</ele>
        <time>2018-05-17T14:28:14Z</time>
      </trkpt>
      <trkpt lat="44.20078" lon="6.18718">
        <ele>1132</ele>
        <time>2018-05-17T14:29:14Z</time>
      </trkpt>
      <trkpt lat="44.20076" lon="6.18686">
        <ele>1137</ele>
        <time>2018-05-17T14:30:14Z</time>
      </trkpt>
      <trkpt lat="44.20072" lon="6.18668">
        <ele>1139</ele>
        <time>2018-05-17T14:31:14Z</time>
      </trkpt>
      <trkpt lat="44.20067" lon="6.18662">
        <ele>1139</ele>
        <time>2018-05-17T14:32:14Z</time>
      </trkpt>
      <trkpt lat="44.20011" lon="6.18611">
        <ele>1132</ele>
        <time>2018-05-17T14:33:14Z</time>
      </trkpt>
      <trkpt lat="44.19999" lon="6.18604">
        <ele>1130</ele>
        <time>2018-05-17T14:34:14Z</time>
      </trkpt>
      <trkpt lat="44.19993" lon="6.18592">
        <ele>1131</ele>
        <time>2018-05-17T14:35:14Z</time>
      </trkpt>
      <trkpt lat="44.1999" lon="6.18579">
        <ele>1134</ele>
        <time>2018-05-17T14:36:14Z</time>
      </trkpt>
      <trkpt lat="44.19985" lon="6.18566">
        <ele>1133</ele>
        <time>2018-05-17T14:37:14Z</time>
      </trkpt>
      <trkpt lat="44.19975" lon="6.18556">
        <ele>1130</ele>
        <time>2018-05-17T14:38:14Z</time>
      </trkpt>
      <trkpt lat="44.19963" lon="6.18546">
        <ele>1127</ele>
        <time>2018-05-17T14:39:14Z</time>
      </trkpt>
      <trkpt lat="44.19952" lon="6.18528">
        <ele>1125</ele>
        <time>2018-05-17T14:40:14Z</time>
      </trkpt>
      <trkpt lat="44.19945" lon="6.18502">
        <ele>1126</ele>
        <time>2018-05-17T14:41:14Z</time>
      </trkpt>
      <trkpt lat="44.19941" lon="6.1847">
        <ele>1125</ele>
        <time>2018-05-17T14:42:14Z</time>
      </trkpt>
      <trkpt lat="44.1994" lon="6.18422">
        <ele>1125</ele>
        <time>2018-05-17T14:43:14Z</time>
      </trkpt>
      <trkpt lat="44.19943" lon="6.18399">
        <ele>1123</ele>
        <time>2018-05-17T14:44:14Z</time>
      </trkpt>
      <trkpt lat="44.1995" lon="6.1839">
        <ele>1122</ele>
        <time>2018-05-17T14:45:14Z</time>
      </trkpt>
      <trkpt lat="44.19958" lon="6.18386">
        <ele>1123</ele>
        <time>2018-05-17T14:46:14Z</time>
      </trkpt>
      <trkpt lat="44.19976" lon="6.18381">
        <ele>1126</ele>
        <time>2018-05-17T14:47:14Z</time>
      </trkpt>
      <trkpt lat="44.19987" lon="6.18374">
        <ele>1127</ele>
        <time>2018-05-17T14:48:14Z</time>
      </trkpt>
      <trkpt lat="44.20002" lon="6.1836">
        <ele>1127</ele>
        <time>2018-05-17T14:49:14Z</time>
      </trkpt>
      <trkpt lat="44.20018" lon="6.18342">
        <ele>1126</ele>
        <time>2018-05-17T14:50:14Z</time>
      </trkpt>
      <trkpt lat="44.20039" lon="6.18317">
        <ele>1124</ele>
        <time>2018-05-17T14:51:14Z</time>
      </trkpt>
      <trkpt lat="44.20064" lon="6.1829">
        <ele>1122</ele>
        <time>2018-05-17T14:52:14Z</time>
      </trkpt>
      <trkpt lat="44.20083" lon="6.18275">
        <ele>1122</ele>
        <time>2018-05-17T14:53:14Z</time>
      </trkpt>
      <trkpt lat="44.20096" lon="6.18268">
        <ele>1122</ele>
        <time>2018-05-17T14:54:14Z</time>
      </trkpt>
      <trkpt lat="44.20155" lon="6.18247">
        <ele>1127</ele>
        <time>2018-05-17T14:55:14Z</time>
      </trkpt>
      <trkpt lat="44.20159" lon="6.18222">
        <ele>1125</ele>
        <time>2018-05-17T14:56:14Z</time>
      </trkpt>
      <trkpt lat="44.20161" lon="6.18203">
        <ele>1123</ele>
        <time>2018-05-17T14:57:14Z</time>
      </trkpt>
      <trkpt lat="44.20159" lon="6.18175">
        <ele>1120</ele>
        <time>2018-05-17T14:58:14Z</time>
      </trkpt>
      <trkpt lat="44.20163" lon="6.18144">
        <ele>1119</ele>
        <time>2018-05-17T14:59:14Z</time>
      </trkpt>
      <trkpt lat="44.20171" lon="6.18107">
        <ele>1120</ele>
        <time>2018-05-17T15:00:14Z</time>
      </trkpt>
      <trkpt lat="44.20182" lon="6.18068">
        <ele>1121</ele>
        <time>2018-05-17T15:01:14Z</time>
      </trkpt>
      <trkpt lat="44.20193" lon="6.18032">
        <ele>1123</ele>
        <time>2018-05-17T15:02:14Z</time>
      </trkpt>
      <trkpt lat="44.20194" lon="6.18004">
        <ele>1121</ele>
        <time>2018-05-17T15:03:14Z</time>
      </trkpt>
      <trkpt lat="44.20185" lon="6.17987">
        <ele>1118</ele>
        <time>2018-05-17T15:04:14Z</time>
      </trkpt>
      <trkpt lat="44.20172" lon="6.1798">
        <ele>1114</ele>
        <time>2018-05-17T15:05:14Z</time>
      </trkpt>
      <trkpt lat="44.20169" lon="6.17966">
        <ele>1113</ele>
        <time>2018-05-17T15:06:14Z</time>
      </trkpt>
      <trkpt lat="44.20163" lon="6.17951">
        <ele>1112</ele>
        <time>2018-05-17T15:07:14Z</time>
      </trkpt>
      <trkpt lat="44.20153" lon="6.1792">
        <ele>1109</ele>
        <time>2018-05-17T15:08:14Z</time>
      </trkpt>
      <trkpt lat="44.20148" lon="6.17886">
        <ele>1107</ele>
        <time>2018-05-17T15:09:14Z</time>
      </trkpt>
      <trkpt lat="44.20139" lon="6.1784">
        <ele>1103</ele>
        <time>2018-05-17T15:10:14Z</time>
      </trkpt>
      <trkpt lat="44.20129" lon="6.17776">
        <ele>1099</ele>
        <time>2018-05-17T15:11:14Z</time>
      </trkpt>
      <trkpt lat="44.2012" lon="6.17718">
        <ele>1100</ele>
        <time>2018-05-17T15:12:14Z</time>
      </trkpt>
      <trkpt lat="44.20108" lon="6.17684">
        <ele>1100</ele>
        <time>2018-05-17T15:13:14Z</time>
      </trkpt>
      <trkpt lat="44.20086" lon="6.17657">
        <ele>1099</ele>
        <time>2018-05-17T15:14:14Z</time>
      </trkpt>
      <trkpt lat="44.20053" lon="6.17629">
        <ele>1096</ele>
        <time>2018-05-17T15:15:14Z</time>
      </trkpt>
      <trkpt lat="44.20017" lon="6.17601">
        <ele>1093</ele>
        <time>2018-05-17T15:16:14Z</time>
      </trkpt>
      <trkpt lat="44.19974" lon="6.17564">
        <ele>1089</ele>
        <time>2018-05-17T15:17:14Z</time>
      </trkpt>
      <trkpt lat="44.1995" lon="6.17533">
        <ele>1089</ele>
        <time>2018-05-17T15:18:14Z</time>
      </trkpt>
      <trkpt lat="44.19938" lon="6.17507">
        <ele>1090</ele>
        <time>2018-05-17T15:19:14Z</time>
      </trkpt>
      <trkpt lat="44.19919" lon="6.1747">
        <ele>1090</ele>
        <time>2018-05-17T15:20:14Z</time>
      </trkpt>
      <trkpt lat="44.19896" lon="6.17453">
        <ele>1090</ele>
        <time>2018-05-17T15:21:14Z</time>
      </trkpt>
      <trkpt lat="44.19869" lon="6.17435">
        <ele>1089</ele>
        <time>2018-05-17T15:22:14Z</time>
      </trkpt>
      <trkpt lat="44.19857" lon="6.17435">
        <ele>1087</ele>
        <time>2018-05-17T15:23:14Z</time>
      </trkpt>
      <trkpt lat="44.19838" lon="6.17478">
        <ele>1079</ele>
        <time>2018-05-17T15:24:14Z</time>
      </trkpt>
      <trkpt lat="44.1983" lon="6.17486">
        <ele>1076</ele>
        <time>2018-05-17T15:25:14Z</time>
      </trkpt>
      <trkpt lat="44.19824" lon="6.17485">
        <ele>1076</ele>
        <time>2018-05-17T15:26:14Z</time>
      </trkpt>
      <trkpt lat="44.19811" lon="6.17478">
        <ele>1075</ele>
        <time>2018-05-17T15:27:14Z</time>
      </trkpt>
      <trkpt lat="44.19785" lon="6.17453">
        <ele>1074</ele>
        <time>2018-05-17T15:28:14Z</time>
      </trkpt>
      <trkpt lat="44.19762" lon="6.17439">
        <ele>1072</ele>
        <time>2018-05-17T15:29:14Z</time>
      </trkpt>
      <trkpt lat="44.19741" lon="6.17428">
        <ele>1068</ele>
        <time>2018-05-17T15:30:14Z</time>
      </trkpt>
      <trkpt lat="44.19733" lon="6.17409">
        <ele>1066</ele>
        <time>2018-05-17T15:31:14Z</time>
      </trkpt>
      <trkpt lat="44.19734" lon="6.17366">
        <ele>1071</ele>
        <time>2018-05-17T15:32:14Z</time>
      </trkpt>
      <trkpt lat="44.19726" lon="6.17351">
        <ele>1070</ele>
        <time>2018-05-17T15:33:14Z</time>
      </trkpt>
      <trkpt lat="44.19711" lon="6.17337">
        <ele>1066</ele>
        <time>2018-05-17T15:34:14Z</time>
      </trkpt>
      <trkpt lat="44.19699" lon="6.17332">
        <ele>1062</ele>
        <time>2018-05-17T15:35:14Z</time>
      </trkpt>
      <trkpt lat="44.19693" lon="6.17311">
        <ele>1060</ele>
        <time>2018-05-17T15:36:14Z</time>
      </trkpt>
      <trkpt lat="44.19691" lon="6.17259">
        <ele>1061</ele>
        <time>2018-05-17T15:37:14Z</time>
      </trkpt>
      <trkpt lat="44.19695" lon="6.17172">
        <ele>1057</ele>
        <time>2018-05-17T15:38:14Z</time>
      </trkpt>
      <trkpt lat="44.19698" lon="6.17104">
        <ele>1053</ele>
        <time>2018-05-17T15:39:14Z</time>
      </trkpt>
      <trkpt lat="44.19693" lon="6.17047">
        <ele>1048</ele>
        <time>2018-05-17T15:40:14Z</time>
      </trkpt>
      <trkpt lat="44.19686" lon="6.17003">
        <ele>1045</ele>
        <time>2018-05-17T15:41:14Z</time>
      </trkpt>
      <trkpt lat="44.19671" lon="6.16972">
        <ele>1040</ele>
        <time>2018-05-17T15:42:14Z</time>
      </trkpt>
      <trkpt lat="44.1966" lon="6.1695">
        <ele>1037</ele>
        <time>2018-05-17T15:43:14Z</time>
      </trkpt>
      <trkpt lat="44.19649" lon="6.16924">
        <ele>1034</ele>
        <time>2018-05-17T15:44:14Z</time>
      </trkpt>
      <trkpt lat="44.19629" lon="6.16917">
        <ele>1028</ele>
        <time>2018-05-17T15:45:14Z</time>
      </trkpt>
      <trkpt lat="44.19608" lon="6.16866">
        <ele>1022</ele>
        <time>2018-05-17T15:46:14Z</time>
      </trkpt>
      <trkpt lat="44.19595" lon="6.16841">
        <ele>1021</ele>
        <time>2018-05-17T15:47:14Z</time>
      </trkpt>
      <trkpt lat="44.19569" lon="6.1682">
        <ele>1016</ele>
        <time>2018-05-17T15:48:14Z</time>
      </trkpt>
      <trkpt lat="44.19557" lon="6.16816">
        <ele>1013</ele>
        <time>2018-05-17T15:49:14Z</time>
      </trkpt>
      <trkpt lat="44.19551" lon="6.16818">
        <ele>1012</ele>
        <time>2018-05-17T15:50:14Z</time>
      </trkpt>
      <trkpt lat="44.1954" lon="6.1684">
        <ele>1009</ele>
        <time>2018-05-17T15:51:14Z</time>
      </trkpt>
      <trkpt lat="44.19578" lon="6.16873">
        <ele>1015</ele>
        <time>2018-05-17T15:52:14Z</time>
      </trkpt>
      <trkpt lat="44.19586" lon="6.16908">
        <ele>1015</ele>
        <time>2018-05-17T15:53:14Z</time>
      </trkpt>
      <trkpt lat="44.1959" lon="6.16962">
        <ele>1012</ele>
        <time>2018-05-17T15:54:14Z</time>
      </trkpt>
      <trkpt lat="44.196" lon="6.16995">
        <ele>1014</ele>
        <time>2018-05-17T15:55:14Z</time>
      </trkpt>
      <trkpt lat="44.19603" lon="6.17019">
        <ele>1016</ele>
        <time>2018-05-17T15:56:14Z</time>
      </trkpt>
      <trkpt lat="44.19596" lon="6.17051">
        <ele>1015</ele>
        <time>2018-05-17T15:57:14Z</time>
      </trkpt>
      <trkpt lat="44.1957" lon="6.17057">
        <ele>1008</ele>
        <time>2018-05-17T15:58:14Z</time>
      </trkpt>
      <trkpt lat="44.19558" lon="6.17039">
        <ele>1004</ele>
        <time>2018-05-17T15:59:14Z</time>
      </trkpt>
      <trkpt lat="44.19551" lon="6.17022">
        <ele>1000</ele>
        <time>2018-05-17T16:00:14Z</time>
      </trkpt>
      <trkpt lat="44.19534" lon="6.17">
        <ele>993</ele>
        <time>2018-05-17T16:01:14Z</time>
      </trkpt>
      <trkpt lat="44.19526" lon="6.17002">
        <ele>991</ele>
        <time>2018-05-17T16:02:14Z</time>
      </trkpt>
      <trkpt lat="44.19522" lon="6.1705">
        <ele>996</ele>
        <time>2018-05-17T16:03:14Z</time>
      </trkpt>
      <trkpt lat="44.19514" lon="6.17068">
        <ele>997</ele>
        <time>2018-05-17T16:04:14Z</time>
      </trkpt>
      <trkpt lat="44.19464" lon="6.17088">
        <ele>988</ele>
        <time>2018-05-17T16:05:14Z</time>
      </trkpt>
      <trkpt lat="44.19413" lon="6.17115">
        <ele>977</ele>
        <time>2018-05-17T16:06:14Z</time>
      </trkpt>
      <trkpt lat="44.19398" lon="6.17099">
        <ele>975</ele>
        <time>2018-05-17T16:07:14Z</time>
      </trkpt>
      <trkpt lat="44.19381" lon="6.17072">
        <ele>974</ele>
        <time>2018-05-17T16:08:14Z</time>
      </trkpt>
      <trkpt lat="44.19371" lon="6.17081">
        <ele>973</ele>
        <time>2018-05-17T16:09:14Z</time>
      </trkpt>
      <trkpt lat="44.19355" lon="6.17086">
        <ele>971</ele>
        <time>2018-05-17T16:10:14Z</time>
      </trkpt>
      <trkpt lat="44.19337" lon="6.17068">
        <ele>970</ele>
        <time>2018-05-17T16:11:14Z</time>
      </trkpt>
      <trkpt lat="44.1931" lon="6.17046">
        <ele>969</ele>
        <time>2018-05-17T16:12:14Z</time>
      </trkpt>
      <trkpt lat="44.19297" lon="6.17038">
        <ele>968</ele>
        <time>2018-05-17T16:13:14Z</time>
      </trkpt>
      <trkpt lat="44.19282" lon="6.17057">
        <ele>967</ele>
        <time>2018-05-17T16:14:14Z</time>
      </trkpt>
      <trkpt lat="44.19267" lon="6.1707">
        <ele>966</ele>
        <time>2018-05-17T16:15:14Z</time>
      </trkpt>
      <trkpt lat="44.19242" lon="6.17083">
        <ele>962</ele>
        <time>2018-05-17T16:16:14Z</time>
      </trkpt>
      <trkpt lat="44.19238" lon="6.17139">
        <ele>955</ele>
        <time>2018-05-17T16:17:14Z</time>
      </trkpt>
      <trkpt lat="44.19235" lon="6.17173">
        <ele>951</ele>
        <time>2018-05-17T16:18:14Z</time>
      </trkpt>
      <trkpt lat="44.19223" lon="6.17176">
        <ele>948</ele>
        <time>2018-05-17T16:19:14Z</time>
      </trkpt>
      <trkpt lat="44.19187" lon="6.17078">
        <ele>951</ele>
        <time>2018-05-17T16:20:14Z</time>
      </trkpt>
      <trkpt lat="44.19175" lon="6.1704">
        <ele>954</ele>
        <time>2018-05-17T16:21:14Z</time>
      </trkpt>
      <trkpt lat="44.19153" lon="6.1703">
        <ele>952</ele>
        <time>2018-05-17T16:22:14Z</time>
      </trkpt>
      <trkpt lat="44.19128" lon="6.17013">
        <ele>950</ele>
        <time>2018-05-17T16:23:14Z</time>
      </trkpt>
      <trkpt lat="44.19123" lon="6.17002">
        <ele>951</ele>
        <time>2018-05-17T16:24:14Z</time>
      </trkpt>
      <trkpt lat="44.19119" lon="6.16966">
        <ele>954</ele>
        <time>2018-05-17T16:25:14Z</time>
      </trkpt>
      <trkpt lat="44.19104" lon="6.16967">
        <ele>952</ele>
        <time>2018-05-17T16:26:14Z</time>
      </trkpt>
      <trkpt lat="44.19077" lon="6.17021">
        <ele>940</ele>
        <time>2018-05-17T16:27:14Z</time>
      </trkpt>
      <trkpt lat="44.19041" lon="6.17102">
        <ele>924</ele>
        <time>2018-05-17T16:28:14Z</time>
      </trkpt>
      <trkpt lat="44.19022" lon="6.17099">
        <ele>923</ele>
        <time>2018-05-17T16:29:14Z</time>
      </trkpt>
      <trkpt lat="44.19013" lon="6.17091">
        <ele>924</ele>
        <time>2018-05-17T16:30:14Z</time>
      </trkpt>
      <trkpt lat="44.19011" lon="6.17065">
        <ele>926</ele>
        <time>2018-05-17T16:31:14Z</time>
      </trkpt>
      <trkpt lat="44.19014" lon="6.1705">
        <ele>928</ele>
        <time>2018-05-17T16:32:14Z</time>
      </trkpt>
      <trkpt lat="44.18985" lon="6.17024">
        <ele>924</ele>
        <time>2018-05-17T16:33:14Z</time>
      </trkpt>
      <trkpt lat="44.18966" lon="6.16993">
        <ele>919</ele>
        <time>2018-05-17T16:34:14Z</time>
      </trkpt>
      <trkpt lat="44.18959" lon="6.16983">
        <ele>917</ele>
        <time>2018-05-17T16:35:14Z</time>
      </trkpt>
      <trkpt lat="44.18964" lon="6.16942">
        <ele>920</ele>
        <time>2018-05-17T16:36:14Z</time>
      </trkpt>
      <trkpt lat="44.18966" lon="6.16881">
        <ele>920</ele>
        <time>2018-05-17T16:37:14Z</time>
      </trkpt>
      <trkpt lat="44.18957" lon="6.16867">
        <ele>918</ele>
        <time>2018-05-17T16:38:14Z</time>
      </trkpt>
      <trkpt lat="44.1889" lon="6.16872">
        <ele>900</ele>
        <time>2018-05-17T16:39:14Z</time>
      </trkpt>
      <trkpt lat="44.18871" lon="6.16862">
        <ele>896</ele>
        <time>2018-05-17T16:40:14Z</time>
      </trkpt>
      <trkpt lat="44.18874" lon="6.16838">
        <ele>898</ele>
        <time>2018-05-17T16:41:14Z</time>
      </trkpt>
      <trkpt lat="44.18884" lon="6.16827">
        <ele>900</ele>
        <time>2018-05-17T16:42:14Z</time>
      </trkpt>
      <trkpt lat="44.18885" lon="6.16797">
        <ele>899</ele>
        <time>2018-05-17T16:43:14Z</time>
      </trkpt>
      <trkpt lat="44.18881" lon="6.16767">
        <ele>896</ele>
        <time>2018-05-17T16:44:14Z</time>
      </trkpt>
      <trkpt lat="44.18911" lon="6.16744">
        <ele>900</ele>
        <time>2018-05-17T16:45:14Z</time>
      </trkpt>
      <trkpt lat="44.18917" lon="6.16728">
        <ele>901</ele>
        <time>2018-05-17T16:46:14Z</time>
      </trkpt>
      <trkpt lat="44.18919" lon="6.16702">
        <ele>902</ele>
        <time>2018-05-17T16:47:14Z</time>
      </trkpt>
      <trkpt lat="44.18881" lon="6.16713">
        <ele>896</ele>
        <time>2018-05-17T16:48:14Z</time>
      </trkpt>
      <trkpt lat="44.18846" lon="6.16718">
        <ele>891</ele>
        <time>2018-05-17T16:49:14Z</time>
      </trkpt>
      <trkpt lat="44.18809" lon="6.16688">
        <ele>887</ele>
        <time>2018-05-17T16:50:14Z</time>
      </trkpt>
      <trkpt lat="44.18768" lon="6.16643">
        <ele>885</ele>
        <time>2018-05-17T16:51:14Z</time>
      </trkpt>
      <trkpt lat="44.18737" lon="6.16593">
        <ele>884</ele>
        <time>2018-05-17T16:52:14Z</time>
      </trkpt>
      <trkpt lat="44.18735" lon="6.1657">
        <ele>884</ele>
        <time>2018-05-17T16:53:14Z</time>
      </trkpt>
      <trkpt lat="44.18699" lon="6.16572">
        <ele>875</ele>
        <time>2018-05-17T16:54:14Z</time>
      </trkpt>
      <trkpt lat="44.18688" lon="6.16582">
        <ele>872</ele>
        <time>2018-05-17T16:55:14Z</time>
      </trkpt>
      <trkpt lat="44.18694" lon="6.16549">
        <ele>874</ele>
        <time>2018-05-17T16:56:14Z</time>
      </trkpt>
      <trkpt lat="44.18692" lon="6.16491">
        <ele>874</ele>
        <time>2018-05-17T16:57:14Z</time>
      </trkpt>
      <trkpt lat="44.18697" lon="6.16467">
        <ele>873</ele>
        <time>2018-05-17T16:58:14Z</time>
      </trkpt>
      <trkpt lat="44.18701" lon="6.1642">
        <ele>869</ele>
        <time>2018-05-17T16:59:14Z</time>
      </trkpt>
      <trkpt lat="44.18728" lon="6.16356">
        <ele>867</ele>
        <time>2018-05-17T17:00:14Z</time>
      </trkpt>
      <trkpt lat="44.18707" lon="6.16344">
        <ele>862</ele>
        <time>2018-05-17T17:01:14Z</time>
      </trkpt>
      <trkpt lat="44.18695" lon="6.16386">
        <ele>864</ele>
        <time>2018-05-17T17:02:14Z</time>
      </trkpt>
      <trkpt lat="44.18624" lon="6.16414">
        <ele>854</ele>
        <time>2018-05-17T17:03:14Z</time>
      </trkpt>
      <trkpt lat="44.18585" lon="6.16416">
        <ele>847</ele>
        <time>2018-05-17T17:04:14Z</time>
      </trkpt>
      <trkpt lat="44.18569" lon="6.16415">
        <ele>845</ele>
        <time>2018-05-17T17:05:14Z</time>
      </trkpt>
      <trkpt lat="44.18561" lon="6.16371">
        <ele>842</ele>
        <time>2018-05-17T17:06:14Z</time>
      </trkpt>
      <trkpt lat="44.18553" lon="6.16341">
        <ele>840</ele>
        <time>2018-05-17T17:07:14Z</time>
      </trkpt>
      <trkpt lat="44.18539" lon="6.16321">
        <ele>839</ele>
        <time>2018-05-17T17:08:14Z</time>
      </trkpt>
      <trkpt lat="44.18529" lon="6.16313">
        <ele>838</ele>
        <time>2018-05-17T17:09:14Z</time>
      </trkpt>
      <trkpt lat="44.18515" lon="6.16314">
        <ele>837</ele>
        <time>2018-05-17T17:10:14Z</time>
      </trkpt>
      <trkpt lat="44.18499" lon="6.16317">
        <ele>836</ele>
        <time>2018-05-17T17:11:14Z</time>
      </trkpt>
      <trkpt lat="44.18488" lon="6.16313">
        <ele>836</ele>
        <time>2018-05-17T17:12:14Z</time>
      </trkpt>
      <trkpt lat="44.1847" lon="6.16299">
        <ele>836</ele>
        <time>2018-05-17T17:13:14Z</time>
      </trkpt>
      <trkpt lat="44.18438" lon="6.16263">
        <ele>836</ele>
        <time>2018-05-17T17:14:14Z</time>
      </trkpt>
      <trkpt lat="44.18393" lon="6.16199">
        <ele>837</ele>
        <time>2018-05-17T17:15:14Z</time>
      </trkpt>
      <trkpt lat="44.18373" lon="6.1614">
        <ele>838</ele>
        <time>2018-05-17T17:16:14Z</time>
      </trkpt>
      <trkpt lat="44.1836" lon="6.16102">
        <ele>839</ele>
        <time>2018-05-17T17:17:14Z</time>
      </trkpt>
      <trkpt lat="44.18294" lon="6.16074">
        <ele>835</ele>
        <time>2018-05-17T17:18:14Z</time>
      </trkpt>
      <trkpt lat="44.18261" lon="6.16049">
        <ele>833</ele>
        <time>2018-05-17T17:19:14Z</time>
      </trkpt>
      <trkpt lat="44.18218" lon="6.15976">
        <ele>831</ele>
        <time>2018-05-17T17:20:14Z</time>
      </trkpt>
      <trkpt lat="44.18124" lon="6.15819">
        <ele>823</ele>
        <time>2018-05-17T17:21:14Z</time>
      </trkpt>
      <trkpt lat="44.18091" lon="6.15755">
        <ele>822</ele>
        <time>2018-05-17T17:22:14Z</time>
      </trkpt>
      <trkpt lat="44.18064" lon="6.15731">
        <ele>822</ele>
        <time>2018-05-17T17:23:14Z</time>
      </trkpt>
      <trkpt lat="44.1802" lon="6.15718">
        <ele>821</ele>
        <time>2018-05-17T17:24:14Z</time>
      </trkpt>
      <trkpt lat="44.17958" lon="6.15684">
        <ele>818</ele>
        <time>2018-05-17T17:25:14Z</time>
      </trkpt>
      <trkpt lat="44.1793" lon="6.15675">
        <ele>817</ele>
        <time>2018-05-17T17:26:14Z</time>
      </trkpt>
      <trkpt lat="44.17913" lon="6.15667">
        <ele>816</ele>
        <time>2018-05-17T17:27:14Z</time>
      </trkpt>
      <trkpt lat="44.17898" lon="6.15604">
        <ele>822</ele>
        <time>2018-05-17T17:28:14Z</time>
      </trkpt>
      <trkpt lat="44.17884" lon="6.15592">
        <ele>821</ele>
        <time>2018-05-17T17:29:14Z</time>
      </trkpt>
      <trkpt lat="44.17842" lon="6.15594">
        <ele>815</ele>
        <time>2018-05-17T17:30:14Z</time>
      </trkpt>
      <trkpt lat="44.17797" lon="6.15522">
        <ele>819</ele>
        <time>2018-05-17T17:31:14Z</time>
      </trkpt>
      <trkpt lat="44.17761" lon="6.15468">
        <ele>825</ele>
        <time>2018-05-17T17:32:14Z</time>
      </trkpt>
      <trkpt lat="44.17731" lon="6.1546">
        <ele>822</ele>
        <time>2018-05-17T17:33:14Z</time>
      </trkpt>
      <trkpt lat="44.17717" lon="6.15456">
        <ele>820</ele>
        <time>2018-05-17T17:34:14Z</time>
      </trkpt>
      <trkpt lat="44.17698" lon="6.15412">
        <ele>826</ele>
        <time>2018-05-17T17:35:14Z</time>
      </trkpt>
      <trkpt lat="44.17675" lon="6.15397">
        <ele>825</ele>
        <time>2018-05-17T17:36:14Z</time>
      </trkpt>
      <trkpt lat="44.17641" lon="6.15382">
        <ele>823</ele>
        <time>2018-05-17T17:37:14Z</time>
      </trkpt>
      <trkpt lat="44.17584" lon="6.15383">
        <ele>812</ele>
        <time>2018-05-17T17:38:14Z</time>
      </trkpt>
      <trkpt lat="44.17564" lon="6.15367">
        <ele>812</ele>
        <time>2018-05-17T17:39:14Z</time>
      </trkpt>
      <trkpt lat="44.17528" lon="6.15324">
        <ele>810</ele>
        <time>2018-05-17T17:40:14Z</time>
      </trkpt>
      <trkpt lat="44.17502" lon="6.15281">
        <ele>811</ele>
        <time>2018-05-17T17:41:14Z</time>
      </trkpt>
      <trkpt lat="44.17482" lon="6.15272">
        <ele>809</ele>
        <time>2018-05-17T17:42:14Z</time>
      </trkpt>
      <trkpt lat="44.17446" lon="6.15255">
        <ele>805</ele>
        <time>2018-05-17T17:43:14Z</time>
      </trkpt>
      <trkpt lat="44.17421" lon="6.15254">
        <ele>800</ele>
        <time>2018-05-17T17:44:14Z</time>
      </trkpt>
      <trkpt lat="44.17389" lon="6.15241">
        <ele>797</ele>
        <time>2018-05-17T17:45:14Z</time>
      </trkpt>
      <trkpt lat="44.17372" lon="6.15214">
        <ele>797</ele>
        <time>2018-05-17T17:46:14Z</time>
      </trkpt>
      <trkpt lat="44.17362" lon="6.15178">
        <ele>797</ele>
        <time>2018-05-17T17:47:14Z</time>
      </trkpt>
      <trkpt lat="44.17355" lon="6.15159">
        <ele>798</ele>
        <time>2018-05-17T17:48:14Z</time>
      </trkpt>
      <trkpt lat="44.17334" lon="6.15146">
        <ele>797</ele>
        <time>2018-05-17T17:49:14Z</time>
      </trkpt>
      <trkpt lat="44.17323" lon="6.15142">
        <ele>798</ele>
        <time>2018-05-17T17:50:14Z</time>
      </trkpt>
      <trkpt lat="44.173" lon="6.15133">
        <ele>799</ele>
        <time>2018-05-17T17:51:14Z</time>
      </trkpt>
      <trkpt lat="44.17256" lon="6.15127">
        <ele>798</ele>
        <time>2018-05-17T17:52:14Z</time>
      </trkpt>
      <trkpt lat="44.17227" lon="6.1511">
        <ele>798</ele>
        <time>2018-05-17T17:53:14Z</time>
      </trkpt>
      <trkpt lat="44.17199" lon="6.15054">
        <ele>801</ele>
        <time>2018-05-17T17:54:14Z</time>
      </trkpt>
      <trkpt lat="44.17165" lon="6.15006">
        <ele>798</ele>
        <time>2018-05-17T17:55:14Z</time>
      </trkpt>
      <trkpt lat="44.17143" lon="6.1498">
        <ele>798</ele>
        <time>2018-05-17T17:56:14Z</time>
      </trkpt>
      <trkpt lat="44.17123" lon="6.1497">
        <ele>796</ele>
        <time>2018-05-17T17:57:14Z</time>
      </trkpt>
      <trkpt lat="44.17094" lon="6.14964">
        <ele>794</ele>
        <time>2018-05-17T17:58:14Z</time>
      </trkpt>
      <trkpt lat="44.17076" lon="6.14956">
        <ele>793</ele>
        <time>2018-05-17T17:59:14Z</time>
      </trkpt>
      <trkpt lat="44.1706" lon="6.14931">
        <ele>795</ele>
        <time>2018-05-17T18:00:14Z</time>
      </trkpt>
      <trkpt lat="44.17051" lon="6.14908">
        <ele>798</ele>
        <time>2018-05-17T18:01:14Z</time>
      </trkpt>
      <trkpt lat="44.17047" lon="6.14891">
        <ele>800</ele>
        <time>2018-05-17T18:02:14Z</time>
      </trkpt>
      <trkpt lat="44.17019" lon="6.14889">
        <ele>800</ele>
        <time>2018-05-17T18:03:14Z</time>
      </trkpt>
      <trkpt lat="44.16944" lon="6.14894">
        <ele>797</ele>
        <time>2018-05-17T18:04:14Z</time>
      </trkpt>
      <trkpt lat="44.16898" lon="6.14882">
        <ele>797</ele>
        <time>2018-05-17T18:05:14Z</time>
      </trkpt>
      <trkpt lat="44.16871" lon="6.14873">
        <ele>797</ele>
        <time>2018-05-17T18:06:14Z</time>
      </trkpt>
      <trkpt lat="44.16849" lon="6.14863">
        <ele>797</ele>
        <time>2018-05-17T18:07:14Z</time>
      </trkpt>
      <trkpt lat="44.16833" lon="6.14855">
        <ele>797</ele>
        <time>2018-05-17T18:08:14Z</time>
      </trkpt>
      <trkpt lat="44.16821" lon="6.14835">
        <ele>799</ele>
        <time>2018-05-17T18:09:14Z</time>
      </trkpt>
      <trkpt lat="44.16796" lon="6.14824">
        <ele>798</ele>
        <time>2018-05-17T18:10:14Z</time>
      </trkpt>
      <trkpt lat="44.16746" lon="6.14786">
        <ele>796</ele>
        <time>2018-05-17T18:11:14Z</time>
      </trkpt>
      <trkpt lat="44.16734" lon="6.14772">
        <ele>796</ele>
        <time>2018-05-17T18:12:14Z</time>
      </trkpt>
      <trkpt lat="44.16706" lon="6.14729">
        <ele>794</ele>
        <time>2018-05-17T18:13:14Z</time>
      </trkpt>
      <trkpt lat="44.16695" lon="6.14669">
        <ele>794</ele>
        <time>2018-05-17T18:14:14Z</time>
      </trkpt>
      <trkpt lat="44.16691" lon="6.14599">
        <ele>792</ele>
        <time>2018-05-17T18:15:14Z</time>
      </trkpt>
      <trkpt lat="44.1669" lon="6.14579">
        <ele>791</ele>
        <time>2018-05-17T18:16:14Z</time>
      </trkpt>
      <trkpt lat="44.16654" lon="6.14502">
        <ele>785</ele>
        <time>2018-05-17T18:17:14Z</time>
      </trkpt>
      <trkpt lat="44.16643" lon="6.1447">
        <ele>786</ele>
        <time>2018-05-17T18:18:14Z</time>
      </trkpt>
      <trkpt lat="44.16636" lon="6.14445">
        <ele>787</ele>
        <time>2018-05-17T18:19:14Z</time>
      </trkpt>
      <trkpt lat="44.16614" lon="6.14455">
        <ele>786</ele>
        <time>2018-05-17T18:20:14Z</time>
      </trkpt>
      <trkpt lat="44.16547" lon="6.14494">
        <ele>782</ele>
        <time>2018-05-17T18:21:14Z</time>
      </trkpt>
      <trkpt lat="44.16525" lon="6.14516">
        <ele>781</ele>
        <time>2018-05-17T18:22:14Z</time>
      </trkpt>
      <trkpt lat="44.16506" lon="6.14586">
        <ele>778</ele>
        <time>2018-05-17T18:23:14Z</time>
      </trkpt>
      <trkpt lat="44.16477" lon="6.14616">
        <ele>775</ele>
        <time>2018-05-17T18:24:14Z</time>
      </trkpt>
      <trkpt lat="44.16401" lon="6.14612">
        <ele>774</ele>
        <time>2018-05-17T18:25:14Z</time>
      </trkpt>
      <trkpt lat="44.16313" lon="6.14577">
        <ele>772</ele>
        <time>2018-05-17T18:26:14Z</time>
      </trkpt>
      <trkpt lat="44.16253" lon="6.14562">
        <ele>770</ele>
        <time>2018-05-17T18:27:14Z</time>
      </trkpt>
      <trkpt lat="44.16189" lon="6.1457">
        <ele>765</ele>
        <time>2018-05-17T18:28:14Z</time>
      </trkpt>
      <trkpt lat="44.16155" lon="6.14566">
        <ele>764</ele>
        <time>2018-05-17T18:29:14Z</time>
      </trkpt>
      <trkpt lat="44.16034" lon="6.14528">
        <ele>759</ele>
        <time>2018-05-17T18:30:14Z</time>
      </trkpt>
      <trkpt lat="44.15908" lon="6.14476">
        <ele>758</ele>
        <time>2018-05-17T18:31:14Z</time>
      </trkpt>
      <trkpt lat="44.15873" lon="6.14459">
        <ele>757</ele>
        <time>2018-05-17T18:32:14Z</time>
      </trkpt>
      <trkpt lat="44.15832" lon="6.14462">
        <ele>754</ele>
        <time>2018-05-17T18:33:14Z</time>
      </trkpt>
      <trkpt lat="44.15826" lon="6.14562">
        <ele>751</ele>
        <time>2018-05-17T18:34:14Z</time>
      </trkpt>
      <trkpt lat="44.15831" lon="6.14613">
        <ele>752</ele>
        <time>2018-05-17T18:35:14Z</time>
      </trkpt>
      <trkpt lat="44.1584" lon="6.14662">
        <ele>753</ele>
        <time>2018-05-17T18:36:14Z</time>
      </trkpt>
      <trkpt lat="44.15838" lon="6.14688">
        <ele>755</ele>
        <time>2018-05-17T18:37:14Z</time>
      </trkpt>
      <trkpt lat="44.15824" lon="6.14706">
        <ele>755</ele>
        <time>2018-05-17T18:38:14Z</time>
      </trkpt>
      <trkpt lat="44.15754" lon="6.14739">
        <ele>755</ele>
        <time>2018-05-17T18:39:14Z</time>
      </trkpt>
      <trkpt lat="44.15736" lon="6.14759">
        <ele>755</ele>
        <time>2018-05-17T18:40:14Z</time>
      </trkpt>
      <trkpt lat="44.15715" lon="6.1481">
        <ele>757</ele>
        <time>2018-05-17T18:41:14Z</time>
      </trkpt>
      <trkpt lat="44.1569" lon="6.14878">
        <ele>759</ele>
        <time>2018-05-17T18:42:14Z</time>
      </trkpt>
      <trkpt lat="44.15678" lon="6.14902">
        <ele>760</ele>
        <time>2018-05-17T18:43:14Z</time>
      </trkpt>
      <trkpt lat="44.15648" lon="6.14945">
        <ele>761</ele>
        <time>2018-05-17T18:44:14Z</time>
      </trkpt>
      <trkpt lat="44.15631" lon="6.14982">
        <ele>764</ele>
        <time>2018-05-17T18:45:14Z</time>
      </trkpt>
      <trkpt lat="44.15617" lon="6.14992">
        <ele>764</ele>
        <time>2018-05-17T18:46:14Z</time>
      </trkpt>
      <trkpt lat="44.15583" lon="6.14991">
        <ele>761</ele>
        <time>2018-05-17T18:47:14Z</time>
      </trkpt>
      <trkpt lat="44.15559" lon="6.1501">
        <ele>763</ele>
        <time>2018-05-17T18:48:14Z</time>
      </trkpt>
      <trkpt lat="44.15544" lon="6.15032">
        <ele>765</ele>
        <time>2018-05-17T18:49:14Z</time>
      </trkpt>
      <trkpt lat="44.15526" lon="6.15042">
        <ele>766</ele>
        <time>2018-05-17T18:50:14Z</time>
      </trkpt>
      <trkpt lat="44.15446" lon="6.15032">
        <ele>766</ele>
        <time>2018-05-17T18:51:14Z</time>
      </trkpt>
      <trkpt lat="44.15346" lon="6.15014">
        <ele>772</ele>
        <time>2018-05-17T18:52:14Z</time>
      </trkpt>
      <trkpt lat="44.15241" lon="6.14993">
        <ele>779</ele>
        <time>2018-05-17T18:53:14Z</time>
      </trkpt>
      <trkpt lat="44.15206" lon="6.14978">
        <ele>781</ele>
        <time>2018-05-17T18:54:14Z</time>
      </trkpt>
      <trkpt lat="44.15147" lon="6.14941">
        <ele>782</ele>
        <time>2018-05-17T18:55:14Z</time>
      </trkpt>
      <trkpt lat="44.15078" lon="6.14896">
        <ele>787</ele>
        <time>2018-05-17T18:56:14Z</time>
      </trkpt>
      <trkpt lat="44.15055" lon="6.14896">
        <ele>787</ele>
        <time>2018-05-17T18:57:14Z</time>
      </trkpt>
      <trkpt lat="44.15034" lon="6.14898">
        <ele>788</ele>
        <time>2018-05-17T18:58:14Z</time>
      </trkpt>
      <trkpt lat="44.14931" lon="6.14879">
        <ele>789</ele>
        <time>2018-05-17T18:59:14Z</time>
      </trkpt>
      <trkpt lat="44.14909" lon="6.14873">
        <ele>789</ele>
        <time>2018-05-17T19:00:14Z</time>
      </trkpt>
      <trkpt lat="44.14896" lon="6.14847">
        <ele>788</ele>
        <time>2018-05-17T19:01:14Z</time>
      </trkpt>
      <trkpt lat="44.14877" lon="6.14812">
        <ele>787</ele>
        <time>2018-05-17T19:02:14Z</time>
      </trkpt>
      <trkpt lat="44.14835" lon="6.14762">
        <ele>782</ele>
        <time>2018-05-17T19:03:14Z</time>
      </trkpt>
      <trkpt lat="44.14816" lon="6.14754">
        <ele>783</ele>
        <time>2018-05-17T19:04:14Z</time>
      </trkpt>
      <trkpt lat="44.14818" lon="6.14731">
        <ele>780</ele>
        <time>2018-05-17T19:05:14Z</time>
      </trkpt>
      <trkpt lat="44.14827" lon="6.1465">
        <ele>771</ele>
        <time>2018-05-17T19:06:14Z</time>
      </trkpt>
      <trkpt lat="44.14825" lon="6.14524">
        <ele>763</ele>
        <time>2018-05-17T19:07:14Z</time>
      </trkpt>
      <trkpt lat="44.1482" lon="6.14414">
        <ele>756</ele>
        <time>2018-05-17T19:08:14Z</time>
      </trkpt>
      <trkpt lat="44.14804" lon="6.14361">
        <ele>751</ele>
        <time>2018-05-17T19:09:14Z</time>
      </trkpt>
      <trkpt lat="44.14775" lon="6.14343">
        <ele>752</ele>
        <time>2018-05-17T19:10:14Z</time>
      </trkpt>
      <trkpt lat="44.14731" lon="6.14326">
        <ele>752</ele>
        <time>2018-05-17T19:11:14Z</time>
      </trkpt>
      <trkpt lat="44.14707" lon="6.14301">
        <ele>747</ele>
        <time>2018-05-17T19:12:14Z</time>
      </trkpt>
      <trkpt lat="44.14676" lon="6.14235">
        <ele>738</ele>
        <time>2018-05-17T19:13:14Z</time>
      </trkpt>
      <trkpt lat="44.14632" lon="6.14199">
        <ele>731</ele>
        <time>2018-05-17T19:14:14Z</time>
      </trkpt>
      <trkpt lat="44.14607" lon="6.14198">
        <ele>731</ele>
        <time>2018-05-17T19:15:14Z</time>
      </trkpt>
      <trkpt lat="44.14586" lon="6.14208">
        <ele>732</ele>
        <time>2018-05-17T19:16:14Z</time>
      </trkpt>
      <trkpt lat="44.14549" lon="6.14199">
        <ele>731</ele>
        <time>2018-05-17T19:17:14Z</time>
      </trkpt>
      <trkpt lat="44.14542" lon="6.14164">
        <ele>728</ele>
        <time>2018-05-17T19:18:14Z</time>
      </trkpt>
      <trkpt lat="44.14545" lon="6.14102">
        <ele>723</ele>
        <time>2018-05-17T19:19:14Z</time>
      </trkpt>
      <trkpt lat="44.14552" lon="6.13983">
        <ele>722</ele>
        <time>2018-05-17T19:20:14Z</time>
      </trkpt>
      <trkpt lat="44.14543" lon="6.13953">
        <ele>721</ele>
        <time>2018-05-17T19:21:14Z</time>
      </trkpt>
      <trkpt lat="44.14519" lon="6.13836">
        <ele>724</ele>
        <time>2018-05-17T19:22:14Z</time>
      </trkpt>
      <trkpt lat="44.14498" lon="6.13819">
        <ele>723</ele>
        <time>2018-05-17T19:23:14Z</time>
      </trkpt>
      <trkpt lat="44.1447" lon="6.13804">
        <ele>723</ele>
        <time>2018-05-17T19:24:14Z</time>
      </trkpt>
      <trkpt lat="44.14456" lon="6.1379">
        <ele>724</ele>
        <time>2018-05-17T19:25:14Z</time>
      </trkpt>
      <trkpt lat="44.14457" lon="6.1374">
        <ele>727</ele>
        <time>2018-05-17T19:26:14Z</time>
      </trkpt>
      <trkpt lat="44.14473" lon="6.13667">
        <ele>733</ele>
        <time>2018-05-17T19:27:14Z</time>
      </trkpt>
      <trkpt lat="44.14508" lon="6.13548">
        <ele>743</ele>
        <time>2018-05-17T19:28:14Z</time>
      </trkpt>
      <trkpt lat="44.14537" lon="6.13443">
        <ele>752</ele>
        <time>2018-05-17T19:29:14Z</time>
      </trkpt>
      <trkpt lat="44.14539" lon="6.13413">
        <ele>754</ele>
        <time>2018-05-17T19:30:14Z</time>
      </trkpt>
      <trkpt lat="44.14513" lon="6.13354">
        <ele>760</ele>
        <time>2018-05-17T19:31:14Z</time>
      </trkpt>
      <trkpt lat="44.1451" lon="6.13322">
        <ele>763</ele>
        <time>2018-05-17T19:32:14Z</time>
      </trkpt>
      <trkpt lat="44.14531" lon="6.13254">
        <ele>769</ele>
        <time>2018-05-17T19:33:14Z</time>
      </trkpt>
      <trkpt lat="44.14558" lon="6.13206">
        <ele>773</ele>
        <time>2018-05-17T19:34:14Z</time>
      </trkpt>
      <trkpt lat="44.14565" lon="6.13186">
        <ele>774</ele>
        <time>2018-05-17T19:35:14Z</time>
      </trkpt>
      <trkpt lat="44.1456" lon="6.13178">
        <ele>776</ele>
        <time>2018-05-17T19:36:14Z</time>
      </trkpt>
      <trkpt lat="44.14539" lon="6.13186">
        <ele>777</ele>
        <time>2018-05-17T19:37:14Z</time>
      </trkpt>
      <trkpt lat="44.14519" lon="6.13219">
        <ele>775</ele>
        <time>2018-05-17T19:38:14Z</time>
      </trkpt>
      <trkpt lat="44.14484" lon="6.13244">
        <ele>774</ele>
        <time>2018-05-17T19:39:14Z</time>
      </trkpt>
      <trkpt lat="44.14447" lon="6.13248">
        <ele>777</ele>
        <time>2018-05-17T19:40:14Z</time>
      </trkpt>
      <trkpt lat="44.14413" lon="6.13226">
        <ele>782</ele>
        <time>2018-05-17T19:41:14Z</time>
      </trkpt>
      <trkpt lat="44.14386" lon="6.132">
        <ele>783</ele>
        <time>2018-05-17T19:42:14Z</time>
      </trkpt>
      <trkpt lat="44.14384" lon="6.13184">
        <ele>785</ele>
        <time>2018-05-17T19:43:14Z</time>
      </trkpt>
      <trkpt lat="44.14392" lon="6.13176">
        <ele>787</ele>
        <time>2018-05-17T19:44:14Z</time>
      </trkpt>
      <trkpt lat="44.14409" lon="6.13196">
        <ele>786</ele>
        <time>2018-05-17T19:45:14Z</time>
      </trkpt>
      <trkpt lat="44.14428" lon="6.13203">
        <ele>784</ele>
        <time>2018-05-17T19:46:14Z</time>
      </trkpt>
      <trkpt lat="44.14449" lon="6.13205">
        <ele>783</ele>
        <time>2018-05-17T19:47:14Z</time>
      </trkpt>
      <trkpt lat="44.1446" lon="6.13183">
        <ele>785</ele>
        <time>2018-05-17T19:48:14Z</time>
      </trkpt>
      <trkpt lat="44.14464" lon="6.13126">
        <ele>792</ele>
        <time>2018-05-17T19:49:14Z</time>
      </trkpt>
      <trkpt lat="44.14448" lon="6.13061">
        <ele>799</ele>
        <time>2018-05-17T19:50:14Z</time>
      </trkpt>
      <trkpt lat="44.14427" lon="6.13032">
        <ele>802</ele>
        <time>2018-05-17T19:51:14Z</time>
      </trkpt>
      <trkpt lat="44.14405" lon="6.13027">
        <ele>802</ele>
        <time>2018-05-17T19:52:14Z</time>
      </trkpt>
      <trkpt lat="44.14328" lon="6.13025">
        <ele>802</ele>
        <time>2018-05-17T19:53:14Z</time>
      </trkpt>
      <trkpt lat="44.14277" lon="6.12999">
        <ele>805</ele>
        <time>2018-05-17T19:54:14Z</time>
      </trkpt>
      <trkpt lat="44.14217" lon="6.12969">
        <ele>810</ele>
        <time>2018-05-17T19:55:14Z</time>
      </trkpt>
      <trkpt lat="44.14184" lon="6.12967">
        <ele>810</ele>
        <time>2018-05-17T19:56:14Z</time>
      </trkpt>
      <trkpt lat="44.14149" lon="6.1297">
        <ele>808</ele>
        <time>2018-05-17T19:57:14Z</time>
      </trkpt>
      <trkpt lat="44.14119" lon="6.12939">
        <ele>812</ele>
        <time>2018-05-17T19:58:14Z</time>
      </trkpt>
      <trkpt lat="44.14071" lon="6.12832">
        <ele>823</ele>
        <time>2018-05-17T19:59:14Z</time>
      </trkpt>
      <trkpt lat="44.13994" lon="6.12709">
        <ele>826</ele>
        <time>2018-05-17T20:00:14Z</time>
      </trkpt>
      <trkpt lat="44.13952" lon="6.12638">
        <ele>824</ele>
        <time>2018-05-17T20:01:14Z</time>
      </trkpt>
      <trkpt lat="44.1395" lon="6.12559">
        <ele>825</ele>
        <time>2018-05-17T20:02:14Z</time>
      </trkpt>
      <trkpt lat="44.13956" lon="6.12443">
        <ele>825</ele>
        <time>2018-05-17T20:03:14Z</time>
      </trkpt>
      <trkpt lat="44.13948" lon="6.12357">
        <ele>823</ele>
        <time>2018-05-17T20:04:14Z</time>
      </trkpt>
      <trkpt lat="44.13934" lon="6.12315">
        <ele>821</ele>
        <time>2018-05-17T20:05:14Z</time>
      </trkpt>
      <trkpt lat="44.13903" lon="6.12266">
        <ele>819</ele>
        <time>2018-05-17T20:06:14Z</time>
      </trkpt>
      <trkpt lat="44.13834" lon="6.12192">
        <ele>816</ele>
        <time>2018-05-17T20:07:14Z</time>
      </trkpt>
      <trkpt lat="44.13819" lon="6.12172">
        <ele>816</ele>
        <time>2018-05-17T20:08:14Z</time>
      </trkpt>
      <trkpt lat="44.13797" lon="6.12138">
        <ele>820</ele>
        <time>2018-05-17T20:09:14Z</time>
      </trkpt>
      <trkpt lat="44.1375" lon="6.12116">
        <ele>824</ele>
        <time>2018-05-17T20:10:14Z</time>
      </trkpt>
      <trkpt lat="44.13739" lon="6.12113">
        <ele>824</ele>
        <time>2018-05-17T20:11:14Z</time>
      </trkpt>
      <trkpt lat="44.13746" lon="6.12107">
        <ele>826</ele>
        <time>2018-05-17T20:12:14Z</time>
      </trkpt>
      <trkpt lat="44.13828" lon="6.12074">
        <ele>832</ele>
        <time>2018-05-17T20:13:14Z</time>
      </trkpt>
      <trkpt lat="44.13914" lon="6.12031">
        <ele>843</ele>
        <time>2018-05-17T20:14:14Z</time>
      </trkpt>
      <trkpt lat="44.14" lon="6.11958">
        <ele>855</ele>
        <time>2018-05-17T20:15:14Z</time>
      </trkpt>
      <trkpt lat="44.14071" lon="6.11917">
        <ele>861</ele>
        <time>2018-05-17T20:16:14Z</time>
      </trkpt>
      <trkpt lat="44.14123" lon="6.11889">
        <ele>863</ele>
        <time>2018-05-17T20:17:14Z</time>
      </trkpt>
      <trkpt lat="44.14155" lon="6.11889">
        <ele>866</ele>
        <time>2018-05-17T20:18:14Z</time>
      </trkpt>
      <trkpt lat="44.1421" lon="6.11831">
        <ele>872</ele>
        <time>2018-05-17T20:19:14Z</time>
      </trkpt>
      <trkpt lat="44.14247" lon="6.11782">
        <ele>876</ele>
        <time>2018-05-17T20:20:14Z</time>
      </trkpt>
      <trkpt lat="44.1432" lon="6.11729">
        <ele>886</ele>
        <time>2018-05-17T20:21:14Z</time>
      </trkpt>
      <trkpt lat="44.14366" lon="6.11693">
        <ele>895</ele>
        <time>2018-05-17T20:22:14Z</time>
      </trkpt>
      <trkpt lat="44.14442" lon="6.11687">
        <ele>908</ele>
        <time>2018-05-17T20:23:14Z</time>
      </trkpt>
      <trkpt lat="44.14496" lon="6.11669">
        <ele>917</ele>
        <time>2018-05-17T20:24:14Z</time>
      </trkpt>
      <trkpt lat="44.14675" lon="6.11614">
        <ele>952</ele>
        <time>2018-05-17T20:25:14Z</time>
      </trkpt>
      <trkpt lat="44.14768" lon="6.11589">
        <ele>966</ele>
        <time>2018-05-17T20:26:14Z</time>
      </trkpt>
      <trkpt lat="44.14825" lon="6.11551">
        <ele>967</ele>
        <time>2018-05-17T20:27:14Z</time>
      </trkpt>
      <trkpt lat="44.14888" lon="6.11537">
        <ele>974</ele>
        <time>2018-05-17T20:28:14Z</time>
      </trkpt>
      <trkpt lat="44.14999" lon="6.11509">
        <ele>993</ele>
        <time>2018-05-17T20:29:14Z</time>
      </trkpt>
      <trkpt lat="44.15063" lon="6.11486">
        <ele>1004</ele>
        <time>2018-05-17T20:30:14Z</time>
      </trkpt>
      <trkpt lat="44.15122" lon="6.11448">
        <ele>1014</ele>
        <time>2018-05-17T20:31:14Z</time>
      </trkpt>
      <trkpt lat="44.15162" lon="6.11404">
        <ele>1025</ele>
        <time>2018-05-17T20:32:14Z</time>
      </trkpt>
      <trkpt lat="44.15235" lon="6.11313">
        <ele>1039</ele>
        <time>2018-05-17T20:33:14Z</time>
      </trkpt>
      <trkpt lat="44.15288" lon="6.11246">
        <ele>1051</ele>
        <time>2018-05-17T20:34:14Z</time>
      </trkpt>
      <trkpt lat="44.15398" lon="6.11177">
        <ele>1073</ele>
        <time>2018-05-17T20:35:14Z</time>
      </trkpt>
      <trkpt lat="44.15476" lon="6.11126">
        <ele>1090</ele>
        <time>2018-05-17T20:36:14Z</time>
      </trkpt>
      <trkpt lat="44.15521" lon="6.11087">
        <ele>1101</ele>
        <time>2018-05-17T20:37:14Z</time>
      </trkpt>
      <trkpt lat="44.15618" lon="6.10974">
        <ele>1117</ele>
        <time>2018-05-17T20:38:14Z</time>
      </trkpt>
      <trkpt lat="44.15682" lon="6.10915">
        <ele>1122</ele>
        <time>2018-05-17T20:39:14Z</time>
      </trkpt>
      <trkpt lat="44.15762" lon="6.10854">
        <ele>1125</ele>
        <time>2018-05-17T20:40:14Z</time>
      </trkpt>
      <trkpt lat="44.15872" lon="6.10772">
        <ele>1119</ele>
        <time>2018-05-17T20:41:14Z</time>
      </trkpt>
      <trkpt lat="44.15978" lon="6.10757">
        <ele>1133</ele>
        <time>2018-05-17T20:42:14Z</time>
      </trkpt>
      <trkpt lat="44.16055" lon="6.10733">
        <ele>1150</ele>
        <time>2018-05-17T20:43:14Z</time>
      </trkpt>
      <trkpt lat="44.16119" lon="6.10714">
        <ele>1159</ele>
        <time>2018-05-17T20:44:14Z</time>
      </trkpt>
      <trkpt lat="44.16241" lon="6.10617">
        <ele>1172</ele>
        <time>2018-05-17T20:45:14Z</time>
      </trkpt>
      <trkpt lat="44.16271" lon="6.10597">
        <ele>1177</ele>
        <time>2018-05-17T20:46:14Z</time>
      </trkpt>
      <trkpt lat="44.1631" lon="6.10593">
        <ele>1180</ele>
        <time>2018-05-17T20:47:14Z</time>
      </trkpt>
      <trkpt lat="44.16383" lon="6.10635">
        <ele>1193</ele>
        <time>2018-05-17T20:48:14Z</time>
      </trkpt>
      <trkpt lat="44.16415" lon="6.1065">
        <ele>1201</ele>
        <time>2018-05-17T20:49:14Z</time>
      </trkpt>
      <trkpt lat="44.16458" lon="6.10638">
        <ele>1208</ele>
        <time>2018-05-17T20:50:14Z</time>
      </trkpt>
      <trkpt lat="44.16491" lon="6.10628">
        <ele>1213</ele>
        <time>2018-05-17T20:51:14Z</time>
      </trkpt>
      <trkpt lat="44.16532" lon="6.10653">
        <ele>1215</ele>
        <time>2018-05-17T20:52:14Z</time>
      </trkpt>
      <trkpt lat="44.16558" lon="6.10653">
        <ele>1216</ele>
        <time>2018-05-17T20:53:14Z</time>
      </trkpt>
      <trkpt lat="44.16577" lon="6.10632">
        <ele>1219</ele>
        <time>2018-05-17T20:54:14Z</time>
      </trkpt>
      <trkpt lat="44.16591" lon="6.10536">
        <ele>1225</ele>
        <time>2018-05-17T20:55:14Z</time>
      </trkpt>
      <trkpt lat="44.16612" lon="6.10439">
        <ele>1210</ele>
        <time>2018-05-17T20:56:14Z</time>
      </trkpt>
      <trkpt lat="44.16662" lon="6.103">
        <ele>1200</ele>
        <time>2018-05-17T20:57:14Z</time>
      </trkpt>
      <trkpt lat="44.16678" lon="6.10244">
        <ele>1200</ele>
        <time>2018-05-17T20:58:14Z</time>
      </trkpt>
      <trkpt lat="44.16688" lon="6.10178">
        <ele>1200</ele>
        <time>2018-05-17T20:59:14Z</time>
      </trkpt>
      <trkpt lat="44.16742" lon="6.10108">
        <ele>1221</ele>
        <time>2018-05-17T21:00:14Z</time>
      </trkpt>
      <trkpt lat="44.16945" lon="6.09929">
        <ele>1278</ele>
        <time>2018-05-17T21:01:14Z</time>
      </trkpt>
      <trkpt lat="44.17102" lon="6.09831">
        <ele>1306</ele>
        <time>2018-05-17T21:02:14Z</time>
      </trkpt>
      <trkpt lat="44.17164" lon="6.09769">
        <ele>1316</ele>
        <time>2018-05-17T21:03:14Z</time>
      </trkpt>
      <trkpt lat="44.17245" lon="6.09674">
        <ele>1334</ele>
        <time>2018-05-17T21:04:14Z</time>
      </trkpt>
      <trkpt lat="44.17336" lon="6.09585">
        <ele>1350</ele>
        <time>2018-05-17T21:05:14Z</time>
      </trkpt>
      <trkpt lat="44.17339" lon="6.09572">
        <ele>1351</ele>
        <time>2018-05-17T21:06:14Z</time>
      </trkpt>
      <trkpt lat="44.17338" lon="6.0954">
        <ele>1353</ele>
        <time>2018-05-17T21:07:14Z</time>
      </trkpt>
      <trkpt lat="44.17341" lon="6.0937">
        <ele>1368</ele>
        <time>2018-05-17T21:08:14Z</time>
      </trkpt>
      <trkpt lat="44.17338" lon="6.09236">
        <ele>1389</ele>
        <time>2018-05-17T21:09:14Z</time>
      </trkpt>
      <trkpt lat="44.17304" lon="6.09094">
        <ele>1394</ele>
        <time>2018-05-17T21:10:14Z</time>
      </trkpt>
      <trkpt lat="44.1729" lon="6.08958">
        <ele>1391</ele>
        <time>2018-05-17T21:11:14Z</time>
      </trkpt>
      <trkpt lat="44.17325" lon="6.09003">
        <ele>1398</ele>
        <time>2018-05-17T21:12:14Z</time>
      </trkpt>
      <trkpt lat="44.17408" lon="6.09122">
        <ele>1422</ele>
        <time>2018-05-17T21:13:14Z</time>
      </trkpt>
      <trkpt lat="44.17454" lon="6.09151">
        <ele>1424</ele>
        <time>2018-05-17T21:14:14Z</time>
      </trkpt>
      <trkpt lat="44.17502" lon="6.09202">
        <ele>1423</ele>
        <time>2018-05-17T21:15:14Z</time>
      </trkpt>
      <trkpt lat="44.17548" lon="6.09235">
        <ele>1413</ele>
        <time>2018-05-17T21:16:14Z</time>
      </trkpt>
      <trkpt lat="44.17632" lon="6.09258">
        <ele>1401</ele>
        <time>2018-05-17T21:17:14Z</time>
      </trkpt>
      <trkpt lat="44.17703" lon="6.093">
        <ele>1400</ele>
        <time>2018-05-17T21:18:14Z</time>
      </trkpt>
      <trkpt lat="44.17767" lon="6.09348">
        <ele>1404</ele>
        <time>2018-05-17T21:19:14Z</time>
      </trkpt>
      <trkpt lat="44.17916" lon="6.095">
        <ele>1404</ele>
        <time>2018-05-17T21:20:14Z</time>
      </trkpt>
      <trkpt lat="44.1799" lon="6.09558">
        <ele>1392</ele>
        <time>2018-05-17T21:21:14Z</time>
      </trkpt>
      <trkpt lat="44.1803" lon="6.09584">
        <ele>1377</ele>
        <time>2018-05-17T21:22:14Z</time>
      </trkpt>
      <trkpt lat="44.18071" lon="6.09644">
        <ele>1365</ele>
        <time>2018-05-17T21:23:14Z</time>
      </trkpt>
      <trkpt lat="44.1814" lon="6.09687">
        <ele>1359</ele>
        <time>2018-05-17T21:24:14Z</time>
      </trkpt>
      <trkpt lat="44.18221" lon="6.09735">
        <ele>1358</ele>
        <time>2018-05-17T21:25:14Z</time>
      </trkpt>
      <trkpt lat="44.18337" lon="6.09776">
        <ele>1353</ele>
        <time>2018-05-17T21:26:14Z</time>
      </trkpt>
      <trkpt lat="44.18418" lon="6.09785">
        <ele>1332</ele>
        <time>2018-05-17T21:27:14Z</time>
      </trkpt>
      <trkpt lat="44.1854" lon="6.09765">
        <ele>1312</ele>
        <time>2018-05-17T21:28:14Z</time>
      </trkpt>
      <trkpt lat="44.1864" lon="6.09743">
        <ele>1303</ele>
        <time>2018-05-17T21:29:14Z</time>
      </trkpt>
      <trkpt lat="44.18677" lon="6.09755">
        <ele>1303</ele>
        <time>2018-05-17T21:30:14Z</time>
      </trkpt>
      <trkpt lat="44.18739" lon="6.09771">
        <ele>1294</ele>
        <time>2018-05-17T21:31:14Z</time>
      </trkpt>
      <trkpt lat="44.18782" lon="6.0977">
        <ele>1293</ele>
        <time>2018-05-17T21:32:14Z</time>
      </trkpt>
      <trkpt lat="44.18823" lon="6.09762">
        <ele>1295</ele>
        <time>2018-05-17T21:33:14Z</time>
      </trkpt>
      <trkpt lat="44.18904" lon="6.09763">
        <ele>1303</ele>
        <time>2018-05-17T21:34:14Z</time>
      </trkpt>
      <trkpt lat="44.19007" lon="6.09745">
        <ele>1308</ele>
        <time>2018-05-17T21:35:14Z</time>
      </trkpt>
      <trkpt lat="44.19082" lon="6.0974">
        <ele>1309</ele>
        <time>2018-05-17T21:36:14Z</time>
      </trkpt>
      <trkpt lat="44.19158" lon="6.09744">
        <ele>1314</ele>
        <time>2018-05-17T21:37:14Z</time>
      </trkpt>
      <trkpt lat="44.19239" lon="6.09763">
        <ele>1319</ele>
        <time>2018-05-17T21:38:14Z</time>
      </trkpt>
      <trkpt lat="44.19268" lon="6.09757">
        <ele>1321</ele>
        <time>2018-05-17T21:39:14Z</time>
      </trkpt>
      <trkpt lat="44.19316" lon="6.09733">
        <ele>1323</ele>
        <time>2018-05-17T21:40:14Z</time>
      </trkpt>
      <trkpt lat="44.19361" lon="6.09722">
        <ele>1325</ele>
        <time>2018-05-17T21:41:14Z</time>
      </trkpt>
      <trkpt lat="44.194" lon="6.09723">
        <ele>1326</ele>
        <time>2018-05-17T21:42:14Z</time>
      </trkpt>
      <trkpt lat="44.1947" lon="6.09747">
        <ele>1332</ele>
        <time>2018-05-17T21:43:14Z</time>
      </trkpt>
      <trkpt lat="44.1953" lon="6.0975">
        <ele>1334</ele>
        <time>2018-05-17T21:44:14Z</time>
      </trkpt>
      <trkpt lat="44.19586" lon="6.09763">
        <ele>1331</ele>
        <time>2018-05-17T21:45:14Z</time>
      </trkpt>
      <trkpt lat="44.19642" lon="6.09765">
        <ele>1332</ele>
        <time>2018-05-17T21:46:14Z</time>
      </trkpt>
      <trkpt lat="44.1969" lon="6.09755">
        <ele>1336</ele>
        <time>2018-05-17T21:47:14Z</time>
      </trkpt>
      <trkpt lat="44.19752" lon="6.09745">
        <ele>1340</ele>
        <time>2018-05-17T21:48:14Z</time>
      </trkpt>
      <trkpt lat="44.19798" lon="6.09728">
        <ele>1340</ele>
        <time>2018-05-17T21:49:14Z</time>
      </trkpt>
      <trkpt lat="44.19838" lon="6.0973">
        <ele>1341</ele>
        <time>2018-05-17T21:50:14Z</time>
      </trkpt>
      <trkpt lat="44.19881" lon="6.09743">
        <ele>1343</ele>
        <time>2018-05-17T21:51:14Z</time>
      </trkpt>
      <trkpt lat="44.1994" lon="6.09765">
        <ele>1338</ele>
        <time>2018-05-17T21:52:14Z</time>
      </trkpt>
      <trkpt lat="44.20007" lon="6.09804">
        <ele>1325</ele>
        <time>2018-05-17T21:53:14Z</time>
      </trkpt>
      <trkpt lat="44.20062" lon="6.09858">
        <ele>1324</ele>
        <time>2018-05-17T21:54:14Z</time>
      </trkpt>
      <trkpt lat="44.20089" lon="6.09873">
        <ele>1325</ele>
        <time>2018-05-17T21:55:14Z</time>
      </trkpt>
      <trkpt lat="44.20114" lon="6.09883">
        <ele>1322</ele>
        <time>2018-05-17T21:56:14Z</time>
      </trkpt>
      <trkpt lat="44.20149" lon="6.09913">
        <ele>1319</ele>
        <time>2018-05-17T21:57:14Z</time>
      </trkpt>
      <trkpt lat="44.20214" lon="6.09911">
        <ele>1318</ele>
        <time>2018-05-17T21:58:14Z</time>
      </trkpt>
      <trkpt lat="44.2029" lon="6.0992">
        <ele>1326</ele>
        <time>2018-05-17T21:59:14Z</time>
      </trkpt>
      <trkpt lat="44.20372" lon="6.09927">
        <ele>1338</ele>
        <time>2018-05-17T22:00:14Z</time>
      </trkpt>
      <trkpt lat="44.20427" lon="6.09942">
        <ele>1342</ele>
        <time>2018-05-17T22:01:14Z</time>
      </trkpt>
      <trkpt lat="44.20454" lon="6.09975">
        <ele>1341</ele>
        <time>2018-05-17T22:02:14Z</time>
      </trkpt>
      <trkpt lat="44.20486" lon="6.10034">
        <ele>1342</ele>
        <time>2018-05-17T22:03:14Z</time>
      </trkpt>
      <trkpt lat="44.20515" lon="6.10069">
        <ele>1342</ele>
        <time>2018-05-17T22:04:14Z</time>
      </trkpt>
      <trkpt lat="44.20554" lon="6.10088">
        <ele>1344</ele>
        <time>2018-05-17T22:05:14Z</time>
      </trkpt>
      <trkpt lat="44.20578" lon="6.1011">
        <ele>1344</ele>
        <time>2018-05-17T22:06:14Z</time>
      </trkpt>
      <trkpt lat="44.20613" lon="6.10181">
        <ele>1333</ele>
        <time>2018-05-17T22:07:14Z</time>
      </trkpt>
      <trkpt lat="44.20657" lon="6.10277">
        <ele>1327</ele>
        <time>2018-05-17T22:08:14Z</time>
      </trkpt>
      <trkpt lat="44.20678" lon="6.10344">
        <ele>1317</ele>
        <time>2018-05-17T22:09:14Z</time>
      </trkpt>
      <trkpt lat="44.20686" lon="6.10435">
        <ele>1301</ele>
        <time>2018-05-17T22:10:14Z</time>
      </trkpt>
      <trkpt lat="44.20696" lon="6.105">
        <ele>1291</ele>
        <time>2018-05-17T22:11:14Z</time>
      </trkpt>
      <trkpt lat="44.20735" lon="6.10602">
        <ele>1284</ele>
        <time>2018-05-17T22:12:14Z</time>
      </trkpt>
      <trkpt lat="44.20777" lon="6.10679">
        <ele>1282</ele>
        <time>2018-05-17T22:13:14Z</time>
      </trkpt>
      <trkpt lat="44.20806" lon="6.10755">
        <ele>1283</ele>
        <time>2018-05-17T22:14:14Z</time>
      </trkpt>
      <trkpt lat="44.20803" lon="6.10798">
        <ele>1278</ele>
        <time>2018-05-17T22:15:14Z</time>
      </trkpt>
      <trkpt lat="44.20789" lon="6.10858">
        <ele>1272</ele>
        <time>2018-05-17T22:16:14Z</time>
      </trkpt>
      <trkpt lat="44.20785" lon="6.10929">
        <ele>1262</ele>
        <time>2018-05-17T22:17:14Z</time>
      </trkpt>
      <trkpt lat="44.20789" lon="6.11057">
        <ele>1249</ele>
        <time>2018-05-17T22:18:14Z</time>
      </trkpt>
      <trkpt lat="44.20788" lon="6.11115">
        <ele>1245</ele>
        <time>2018-05-17T22:19:14Z</time>
      </trkpt>
      <trkpt lat="44.20783" lon="6.11218">
        <ele>1241</ele>
        <time>2018-05-17T22:20:14Z</time>
      </trkpt>
      <trkpt lat="44.20781" lon="6.11355">
        <ele>1236</ele>
        <time>2018-05-17T22:21:14Z</time>
      </trkpt>
      <trkpt lat="44.20778" lon="6.11491">
        <ele>1233</ele>
        <time>2018-05-17T22:22:14Z</time>
      </trkpt>
      <trkpt lat="44.20773" lon="6.11622">
        <ele>1225</ele>
        <time>2018-05-17T22:23:14Z</time>
      </trkpt>
      <trkpt lat="44.20771" lon="6.11847">
        <ele>1235</ele>
        <time>2018-05-17T22:24:14Z</time>
      </trkpt>
      <trkpt lat="44.20783" lon="6.11844">
        <ele>1235</ele>
        <time>2018-05-17T22:25:14Z</time>
      </trkpt>
      <trkpt lat="44.20797" lon="6.11833">
        <ele>1234</ele>
        <time>2018-05-17T22:26:14Z</time>
      </trkpt>
      <trkpt lat="44.20798" lon="6.11854">
        <ele>1238</ele>
        <time>2018-05-17T22:27:14Z</time>
      </trkpt>
      <trkpt lat="44.20807" lon="6.11866">
        <ele>1241</ele>
        <time>2018-05-17T22:28:14Z</time>
      </trkpt>
      <trkpt lat="44.20815" lon="6.11872">
        <ele>1243</ele>
        <time>2018-05-17T22:29:14Z</time>
      </trkpt>
      <trkpt lat="44.20828" lon="6.11874">
        <ele>1244</ele>
        <time>2018-05-17T22:30:14Z</time>
      </trkpt>
      <trkpt lat="44.2083" lon="6.11857">
        <ele>1241</ele>
        <time>2018-05-17T22:31:14Z</time>
      </trkpt>
      <trkpt lat="44.20829" lon="6.11838">
        <ele>1237</ele>
        <time>2018-05-17T22:32:14Z</time>
      </trkpt>
      <trkpt lat="44.20837" lon="6.11826">
        <ele>1236</ele>
        <time>2018-05-17T22:33:14Z</time>
      </trkpt>
      <trkpt lat="44.20835" lon="6.11794">
        <ele>1230</ele>
        <time>2018-05-17T22:34:14Z</time>
      </trkpt>
      <trkpt lat="44.2084" lon="6.11764">
        <ele>1226</ele>
        <time>2018-05-17T22:35:14Z</time>
      </trkpt>
      <trkpt lat="44.20876" lon="6.11743">
        <ele>1228</ele>
        <time>2018-05-17T22:36:14Z</time>
      </trkpt>
      <trkpt lat="44.20937" lon="6.11715">
        <ele>1233</ele>
        <time>2018-05-17T22:37:14Z</time>
      </trkpt>
      <trkpt lat="44.20976" lon="6.11686">
        <ele>1236</ele>
        <time>2018-05-17T22:38:14Z</time>
      </trkpt>
      <trkpt lat="44.21005" lon="6.11678">
        <ele>1241</ele>
        <time>2018-05-17T22:39:14Z</time>
      </trkpt>
      <trkpt lat="44.21033" lon="6.11682">
        <ele>1245</ele>
        <time>2018-05-17T22:40:14Z</time>
      </trkpt>
      <trkpt lat="44.21071" lon="6.11651">
        <ele>1240</ele>
        <time>2018-05-17T22:41:14Z</time>
      </trkpt>
      <trkpt lat="44.21111" lon="6.11594">
        <ele>1223</ele>
        <time>2018-05-17T22:42:14Z</time>
      </trkpt>
      <trkpt lat="44.21143" lon="6.11635">
        <ele>1232</ele>
        <time>2018-05-17T22:43:14Z</time>
      </trkpt>
      <trkpt lat="44.21162" lon="6.11646">
        <ele>1233</ele>
        <time>2018-05-17T22:44:14Z</time>
      </trkpt>
      <trkpt lat="44.21186" lon="6.11687">
        <ele>1242</ele>
        <time>2018-05-17T22:45:14Z</time>
      </trkpt>
      <trkpt lat="44.21192" lon="6.11707">
        <ele>1248</ele>
        <time>2018-05-17T22:46:14Z</time>
      </trkpt>
      <trkpt lat="44.21204" lon="6.11697">
        <ele>1245</ele>
        <time>2018-05-17T22:47:14Z</time>
      </trkpt>
      <trkpt lat="44.21208" lon="6.11686">
        <ele>1242</ele>
        <time>2018-05-17T22:48:14Z</time>
      </trkpt>
      <trkpt lat="44.2122" lon="6.11645">
        <ele>1230</ele>
        <time>2018-05-17T22:49:14Z</time>
      </trkpt>
      <trkpt lat="44.21255" lon="6.11603">
        <ele>1217</ele>
        <time>2018-05-17T22:50:14Z</time>
      </trkpt>
      <trkpt lat="44.21282" lon="6.11579">
        <ele>1214</ele>
        <time>2018-05-17T22:51:14Z</time>
      </trkpt>
      <trkpt lat="44.21354" lon="6.11554">
        <ele>1215</ele>
        <time>2018-05-17T22:52:14Z</time>
      </trkpt>
      <trkpt lat="44.21398" lon="6.11534">
        <ele>1215</ele>
        <time>2018-05-17T22:53:14Z</time>
      </trkpt>
      <trkpt lat="44.21431" lon="6.11521">
        <ele>1216</ele>
        <time>2018-05-17T22:54:14Z</time>
      </trkpt>
      <trkpt lat="44.21504" lon="6.11459">
        <ele>1208</ele>
        <time>2018-05-17T22:55:14Z</time>
      </trkpt>
      <trkpt lat="44.21559" lon="6.11407">
        <ele>1203</ele>
        <time>2018-05-17T22:56:14Z</time>
      </trkpt>
      <trkpt lat="44.21566" lon="6.11391">
        <ele>1199</ele>
        <time>2018-05-17T22:57:14Z</time>
      </trkpt>
      <trkpt lat="44.2156" lon="6.11383">
        <ele>1195</ele>
        <time>2018-05-17T22:58:14Z</time>
      </trkpt>
      <trkpt lat="44.21531" lon="6.11372">
        <ele>1185</ele>
        <time>2018-05-17T22:59:14Z</time>
      </trkpt>
      <trkpt lat="44.21477" lon="6.11356">
        <ele>1169</ele>
        <time>2018-05-17T23:00:14Z</time>
      </trkpt>
      <trkpt lat="44.2147" lon="6.11347">
        <ele>1164</ele>
        <time>2018-05-17T23:01:14Z</time>
      </trkpt>
      <trkpt lat="44.21481" lon="6.11336">
        <ele>1162</ele>
        <time>2018-05-17T23:02:14Z</time>
      </trkpt>
      <trkpt lat="44.21506" lon="6.11319">
        <ele>1161</ele>
        <time>2018-05-17T23:03:14Z</time>
      </trkpt>
      <trkpt lat="44.21524" lon="6.1129">
        <ele>1156</ele>
        <time>2018-05-17T23:04:14Z</time>
      </trkpt>
      <trkpt lat="44.21547" lon="6.11228">
        <ele>1141</ele>
        <time>2018-05-17T23:05:14Z</time>
      </trkpt>
      <trkpt lat="44.21555" lon="6.11192">
        <ele>1132</ele>
        <time>2018-05-17T23:06:14Z</time>
      </trkpt>
      <trkpt lat="44.21548" lon="6.11187">
        <ele>1130</ele>
        <time>2018-05-17T23:07:14Z</time>
      </trkpt>
      <trkpt lat="44.21536" lon="6.11188">
        <ele>1130</ele>
        <time>2018-05-17T23:08:14Z</time>
      </trkpt>
      <trkpt lat="44.21522" lon="6.11186">
        <ele>1129</ele>
        <time>2018-05-17T23:09:14Z</time>
      </trkpt>
      <trkpt lat="44.21529" lon="6.11176">
        <ele>1127</ele>
        <time>2018-05-17T23:10:14Z</time>
      </trkpt>
      <trkpt lat="44.21538" lon="6.11168">
        <ele>1125</ele>
        <time>2018-05-17T23:11:14Z</time>
      </trkpt>
      <trkpt lat="44.21546" lon="6.11154">
        <ele>1122</ele>
        <time>2018-05-17T23:12:14Z</time>
      </trkpt>
      <trkpt lat="44.21534" lon="6.11143">
        <ele>1120</ele>
        <time>2018-05-17T23:13:14Z</time>
      </trkpt>
      <trkpt lat="44.21524" lon="6.11142">
        <ele>1119</ele>
        <time>2018-05-17T23:14:14Z</time>
      </trkpt>
      <trkpt lat="44.21516" lon="6.11132">
        <ele>1117</ele>
        <time>2018-05-17T23:15:14Z</time>
      </trkpt>
      <trkpt lat="44.21519" lon="6.11119">
        <ele>1114</ele>
        <time>2018-05-17T23:16:14Z</time>
      </trkpt>
      <trkpt lat="44.21532" lon="6.11115">
        <ele>1114</ele>
        <time>2018-05-17T23:17:14Z</time>
      </trkpt>
      <trkpt lat="44.21542" lon="6.11113">
        <ele>1113</ele>
        <time>2018-05-17T23:18:14Z</time>
      </trkpt>
      <trkpt lat="44.21554" lon="6.11108">
        <ele>1113</ele>
        <time>2018-05-17T23:19:14Z</time>
      </trkpt>
      <trkpt lat="44.21552" lon="6.11097">
        <ele>1110</ele>
        <time>2018-05-17T23:20:14Z</time>
      </trkpt>
      <trkpt lat="44.21544" lon="6.11087">
        <ele>1108</ele>
        <time>2018-05-17T23:21:14Z</time>
      </trkpt>
      <trkpt lat="44.21544" lon="6.11076">
        <ele>1105</ele>
        <time>2018-05-17T23:22:14Z</time>
      </trkpt>
      <trkpt lat="44.21552" lon="6.11075">
        <ele>1105</ele>
        <time>2018-05-17T23:23:14Z</time>
      </trkpt>
      <trkpt lat="44.21569" lon="6.11077">
        <ele>1106</ele>
        <time>2018-05-17T23:24:14Z</time>
      </trkpt>
      <trkpt lat="44.21577" lon="6.11074">
        <ele>1106</ele>
        <time>2018-05-17T23:25:14Z</time>
      </trkpt>
      <trkpt lat="44.21576" lon="6.11063">
        <ele>1104</ele>
        <time>2018-05-17T23:26:14Z</time>
      </trkpt>
      <trkpt lat="44.21564" lon="6.11056">
        <ele>1102</ele>
        <time>2018-05-17T23:27:14Z</time>
      </trkpt>
      <trkpt lat="44.21558" lon="6.11049">
        <ele>1100</ele>
        <time>2018-05-17T23:28:14Z</time>
      </trkpt>
      <trkpt lat="44.21563" lon="6.11038">
        <ele>1098</ele>
        <time>2018-05-17T23:29:14Z</time>
      </trkpt>
      <trkpt lat="44.21572" lon="6.11034">
        <ele>1098</ele>
        <time>2018-05-17T23:30:14Z</time>
      </trkpt>
      <trkpt lat="44.21579" lon="6.11031">
        <ele>1098</ele>
        <time>2018-05-17T23:31:14Z</time>
      </trkpt>
      <trkpt lat="44.21582" lon="6.11023">
        <ele>1097</ele>
        <time>2018-05-17T23:32:14Z</time>
      </trkpt>
      <trkpt lat="44.21572" lon="6.11013">
        <ele>1094</ele>
        <time>2018-05-17T23:33:14Z</time>
      </trkpt>
      <trkpt lat="44.21559" lon="6.1101">
        <ele>1091</ele>
        <time>2018-05-17T23:34:14Z</time>
      </trkpt>
      <trkpt lat="44.21544" lon="6.11009">
        <ele>1088</ele>
        <time>2018-05-17T23:35:14Z</time>
      </trkpt>
      <trkpt lat="44.2154" lon="6.11007">
        <ele>1087</ele>
        <time>2018-05-17T23:36:14Z</time>
      </trkpt>
      <trkpt lat="44.21541" lon="6.10994">
        <ele>1084</ele>
        <time>2018-05-17T23:37:14Z</time>
      </trkpt>
      <trkpt lat="44.21549" lon="6.10964">
        <ele>1076</ele>
        <time>2018-05-17T23:38:14Z</time>
      </trkpt>
      <trkpt lat="44.21553" lon="6.10926">
        <ele>1064</ele>
        <time>2018-05-17T23:39:14Z</time>
      </trkpt>
      <trkpt lat="44.21549" lon="6.10898">
        <ele>1052</ele>
        <time>2018-05-17T23:40:14Z</time>
      </trkpt>
      <trkpt lat="44.21542" lon="6.1089">
        <ele>1048</ele>
        <time>2018-05-17T23:41:14Z</time>
      </trkpt>
      <trkpt lat="44.21532" lon="6.10895">
        <ele>1049</ele>
        <time>2018-05-17T23:42:14Z</time>
      </trkpt>
      <trkpt lat="44.21518" lon="6.10904">
        <ele>1051</ele>
        <time>2018-05-17T23:43:14Z</time>
      </trkpt>
      <trkpt lat="44.21507" lon="6.10915">
        <ele>1054</ele>
        <time>2018-05-17T23:44:14Z</time>
      </trkpt>
      <trkpt lat="44.21495" lon="6.10925">
        <ele>1054</ele>
        <time>2018-05-17T23:45:14Z</time>
      </trkpt>
      <trkpt lat="44.21484" lon="6.10925">
        <ele>1052</ele>
        <time>2018-05-17T23:46:14Z</time>
      </trkpt>
      <trkpt lat="44.21483" lon="6.10916">
        <ele>1049</ele>
        <time>2018-05-17T23:47:14Z</time>
      </trkpt>
      <trkpt lat="44.21488" lon="6.10895">
        <ele>1044</ele>
        <time>2018-05-17T23:48:14Z</time>
      </trkpt>
      <trkpt lat="44.21507" lon="6.10869">
        <ele>1038</ele>
        <time>2018-05-17T23:49:14Z</time>
      </trkpt>
      <trkpt lat="44.21515" lon="6.10839">
        <ele>1027</ele>
        <time>2018-05-17T23:50:14Z</time>
      </trkpt>
      <trkpt lat="44.21502" lon="6.10799">
        <ele>1020</ele>
        <time>2018-05-17T23:51:14Z</time>
      </trkpt>
      <trkpt lat="44.21496" lon="6.10743">
        <ele>1010</ele>
        <time>2018-05-17T23:52:14Z</time>
      </trkpt>
      <trkpt lat="44.21489" lon="6.10694">
        <ele>1004</ele>
        <time>2018-05-17T23:53:14Z</time>
      </trkpt>
      <trkpt lat="44.21475" lon="6.10653">
        <ele>995</ele>
        <time>2018-05-17T23:54:14Z</time>
      </trkpt>
      <trkpt lat="44.21476" lon="6.10621">
        <ele>989</ele>
        <time>2018-05-17T23:55:14Z</time>
      </trkpt>
      <trkpt lat="44.21497" lon="6.10601">
        <ele>988</ele>
        <time>2018-05-17T23:56:14Z</time>
      </trkpt>
      <trkpt lat="44.21505" lon="6.10593">
        <ele>985</ele>
        <time>2018-05-17T23:57:14Z</time>
      </trkpt>
      <trkpt lat="44.21505" lon="6.10563">
        <ele>976</ele>
        <time>2018-05-17T23:58:14Z</time>
      </trkpt>
      <trkpt lat="44.21501" lon="6.10551">
        <ele>974</ele>
        <time>2018-05-17T23:59:14Z</time>
      </trkpt>
      <trkpt lat="44.21502" lon="6.10537">
        <ele>970</ele>
        <time>2018-05-18T00:00:14Z</time>
      </trkpt>
      <trkpt lat="44.215" lon="6.10524">
        <ele>966</ele>
        <time>2018-05-18T00:01:14Z</time>
      </trkpt>
      <trkpt lat="44.215" lon="6.10517">
        <ele>964</ele>
        <time>2018-05-18T00:02:14Z</time>
      </trkpt>
      <trkpt lat="44.21506" lon="6.10503">
        <ele>958</ele>
        <time>2018-05-18T00:03:14Z</time>
      </trkpt>
      <trkpt lat="44.215" lon="6.10493">
        <ele>957</ele>
        <time>2018-05-18T00:04:14Z</time>
      </trkpt>
      <trkpt lat="44.21492" lon="6.10482">
        <ele>953</ele>
        <time>2018-05-18T00:05:14Z</time>
      </trkpt>
      <trkpt lat="44.21487" lon="6.10468">
        <ele>948</ele>
        <time>2018-05-18T00:06:14Z</time>
      </trkpt>
      <trkpt lat="44.21499" lon="6.10458">
        <ele>945</ele>
        <time>2018-05-18T00:07:14Z</time>
      </trkpt>
      <trkpt lat="44.21507" lon="6.10453">
        <ele>943</ele>
        <time>2018-05-18T00:08:14Z</time>
      </trkpt>
      <trkpt lat="44.21501" lon="6.10438">
        <ele>939</ele>
        <time>2018-05-18T00:09:14Z</time>
      </trkpt>
      <trkpt lat="44.21482" lon="6.10412">
        <ele>930</ele>
        <time>2018-05-18T00:10:14Z</time>
      </trkpt>
      <trkpt lat="44.21464" lon="6.10394">
        <ele>925</ele>
        <time>2018-05-18T00:11:14Z</time>
      </trkpt>
      <trkpt lat="44.21459" lon="6.10395">
        <ele>925</ele>
        <time>2018-05-18T00:12:14Z</time>
      </trkpt>
      <trkpt lat="44.21458" lon="6.10388">
        <ele>924</ele>
        <time>2018-05-18T00:13:14Z</time>
      </trkpt>
      <trkpt lat="44.21463" lon="6.10378">
        <ele>923</ele>
        <time>2018-05-18T00:14:14Z</time>
      </trkpt>
      <trkpt lat="44.21459" lon="6.10366">
        <ele>921</ele>
        <time>2018-05-18T00:15:14Z</time>
      </trkpt>
      <trkpt lat="44.2145" lon="6.10357">
        <ele>919</ele>
        <time>2018-05-18T00:16:14Z</time>
      </trkpt>
      <trkpt lat="44.21445" lon="6.10351">
        <ele>918</ele>
        <time>2018-05-18T00:17:14Z</time>
      </trkpt>
      <trkpt lat="44.21451" lon="6.10339">
        <ele>916</ele>
        <time>2018-05-18T00:18:14Z</time>
      </trkpt>
      <trkpt lat="44.2146" lon="6.10329">
        <ele>915</ele>
        <time>2018-05-18T00:19:14Z</time>
      </trkpt>
      <trkpt lat="44.21453" lon="6.10319">
        <ele>914</ele>
        <time>2018-05-18T00:20:14Z</time>
      </trkpt>
      <trkpt lat="44.21445" lon="6.1031">
        <ele>913</ele>
        <time>2018-05-18T00:21:14Z</time>
      </trkpt>
      <trkpt lat="44.21443" lon="6.10299">
        <ele>912</ele>
        <time>2018-05-18T00:22:14Z</time>
      </trkpt>
      <trkpt lat="44.21448" lon="6.1029">
        <ele>910</ele>
        <time>2018-05-18T00:23:14Z</time>
      </trkpt>
      <trkpt lat="44.21447" lon="6.10282">
        <ele>909</ele>
        <time>2018-05-18T00:24:14Z</time>
      </trkpt>
      <trkpt lat="44.21421" lon="6.1023">
        <ele>904</ele>
        <time>2018-05-18T00:25:14Z</time>
      </trkpt>
      <trkpt lat="44.21421" lon="6.10208">
        <ele>900</ele>
        <time>2018-05-18T00:26:14Z</time>
      </trkpt>
      <trkpt lat="44.21428" lon="6.10189">
        <ele>898</ele>
        <time>2018-05-18T00:27:14Z</time>
      </trkpt>
      <trkpt lat="44.21435" lon="6.10165">
        <ele>895</ele>
        <time>2018-05-18T00:28:14Z</time>
      </trkpt>
      <trkpt lat="44.21424" lon="6.10133">
        <ele>889</ele>
        <time>2018-05-18T00:29:14Z</time>
      </trkpt>
      <trkpt lat="44.21418" lon="6.10097">
        <ele>883</ele>
        <time>2018-05-18T00:30:14Z</time>
      </trkpt>
      <trkpt lat="44.21413" lon="6.10068">
        <ele>880</ele>
        <time>2018-05-18T00:31:14Z</time>
      </trkpt>
      <trkpt lat="44.21416" lon="6.10022">
        <ele>874</ele>
        <time>2018-05-18T00:32:14Z</time>
      </trkpt>
      <trkpt lat="44.21401" lon="6.0999">
        <ele>872</ele>
        <time>2018-05-18T00:33:14Z</time>
      </trkpt>
      <trkpt lat="44.21395" lon="6.09924">
        <ele>867</ele>
        <time>2018-05-18T00:34:14Z</time>
      </trkpt>
      <trkpt lat="44.21405" lon="6.09832">
        <ele>859</ele>
        <time>2018-05-18T00:35:14Z</time>
      </trkpt>
      <trkpt lat="44.21425" lon="6.09666">
        <ele>843</ele>
        <time>2018-05-18T00:36:14Z</time>
      </trkpt>
      <trkpt lat="44.2144" lon="6.0956">
        <ele>832</ele>
        <time>2018-05-18T00:37:14Z</time>
      </trkpt>
      <trkpt lat="44.21459" lon="6.09506">
        <ele>829</ele>
        <time>2018-05-18T00:38:14Z</time>
      </trkpt>
      <trkpt lat="44.21445" lon="6.09479">
        <ele>825</ele>
        <time>2018-05-18T00:39:14Z</time>
      </trkpt>
      <trkpt lat="44.21404" lon="6.09498">
        <ele>826</ele>
        <time>2018-05-18T00:40:14Z</time>
      </trkpt>
      <trkpt lat="44.21368" lon="6.09491">
        <ele>827</ele>
        <time>2018-05-18T00:41:14Z</time>
      </trkpt>
      <trkpt lat="44.21358" lon="6.09405">
        <ele>819</ele>
        <time>2018-05-18T00:42:14Z</time>
      </trkpt>
      <trkpt lat="44.21332" lon="6.09276">
        <ele>807</ele>
        <time>2018-05-18T00:43:14Z</time>
      </trkpt>
      <trkpt lat="44.2134" lon="6.09248">
        <ele>804</ele>
        <time>2018-05-18T00:44:14Z</time>
      </trkpt>
      <trkpt lat="44.21334" lon="6.09148">
        <ele>794</ele>
        <time>2018-05-18T00:45:14Z</time>
      </trkpt>
      <trkpt lat="44.21314" lon="6.0913">
        <ele>794</ele>
        <time>2018-05-18T00:46:14Z</time>
      </trkpt>
      <trkpt lat="44.21304" lon="6.09048">
        <ele>788</ele>
        <time>2018-05-18T00:47:14Z</time>
      </trkpt>
      <trkpt lat="44.21294" lon="6.09023">
        <ele>786</ele>
        <time>2018-05-18T00:48:14Z</time>
      </trkpt>
      <trkpt lat="44.2127" lon="6.08931">
        <ele>781</ele>
        <time>2018-05-18T00:49:14Z</time>
      </trkpt>
      <trkpt lat="44.21271" lon="6.08898">
        <ele>779</ele>
        <time>2018-05-18T00:50:14Z</time>
      </trkpt>
      <trkpt lat="44.21283" lon="6.08767">
        <ele>774</ele>
        <time>2018-05-18T00:51:14Z</time>
      </trkpt>
      <trkpt lat="44.21317" lon="6.08655">
        <ele>769</ele>
        <time>2018-05-18T00:52:14Z</time>
      </trkpt>
      <trkpt lat="44.21322" lon="6.08609">
        <ele>764</ele>
        <time>2018-05-18T00:53:14Z</time>
      </trkpt>
      <trkpt lat="44.21354" lon="6.08539">
        <ele>760</ele>
        <time>2018-05-18T00:54:14Z</time>
      </trkpt>
      <trkpt lat="44.2142" lon="6.08466">
        <ele>755</ele>
        <time>2018-05-18T00:55:14Z</time>
      </trkpt>
      <trkpt lat="44.21456" lon="6.08447">
        <ele>754</ele>
        <time>2018-05-18T00:56:14Z</time>
      </trkpt>
      <trkpt lat="44.21478" lon="6.08402">
        <ele>750</ele>
        <time>2018-05-18T00:57:14Z</time>
      </trkpt>
      <trkpt lat="44.21529" lon="6.08386">
        <ele>749</ele>
        <time>2018-05-18T00:58:14Z</time>
      </trkpt>
      <trkpt lat="44.2155" lon="6.08365">
        <ele>749</ele>
        <time>2018-05-18T00:59:14Z</time>
      </trkpt>
      <trkpt lat="44.21571" lon="6.08305">
        <ele>747</ele>
        <time>2018-05-18T01:00:14Z</time>
      </trkpt>
      <trkpt lat="44.21596" lon="6.08179">
        <ele>743</ele>
        <time>2018-05-18T01:01:14Z</time>
      </trkpt>
      <trkpt lat="44.21614" lon="6.0813">
        <ele>746</ele>
        <time>2018-05-18T01:02:14Z</time>
      </trkpt>
      <trkpt lat="44.21692" lon="6.08052">
        <ele>727</ele>
        <time>2018-05-18T01:03:14Z</time>
      </trkpt>
      <trkpt lat="44.2176" lon="6.08008">
        <ele>715</ele>
        <time>2018-05-18T01:04:14Z</time>
      </trkpt>
      <trkpt lat="44.21797" lon="6.07951">
        <ele>724</ele>
        <time>2018-05-18T01:05:14Z</time>
      </trkpt>
      <trkpt lat="44.21812" lon="6.07993">
        <ele>724</ele>
        <time>2018-05-18T01:06:14Z</time>
      </trkpt>
      <trkpt lat="44.21837" lon="6.08028">
        <ele>727</ele>
        <time>2018-05-18T01:07:14Z</time>
      </trkpt>
      <trkpt lat="44.21847" lon="6.08066">
        <ele>727</ele>
        <time>2018-05-18T01:08:14Z</time>
      </trkpt>
      <trkpt lat="44.21881" lon="6.08126">
        <ele>731</ele>
        <time>2018-05-18T01:09:14Z</time>
      </trkpt>
      <trkpt lat="44.21887" lon="6.08199">
        <ele>727</ele>
        <time>2018-05-18T01:10:14Z</time>
      </trkpt>
      <trkpt lat="44.21917" lon="6.08234">
        <ele>727</ele>
        <time>2018-05-18T01:11:14Z</time>
      </trkpt>
      <trkpt lat="44.21923" lon="6.08251">
        <ele>728</ele>
        <time>2018-05-18T01:12:14Z</time>
      </trkpt>
      <trkpt lat="44.21961" lon="6.0825">
        <ele>741</ele>
        <time>2018-05-18T01:13:14Z</time>
      </trkpt>
      <trkpt lat="44.21993" lon="6.08289">
        <ele>744</ele>
        <time>2018-05-18T01:14:14Z</time>
      </trkpt>
      <trkpt lat="44.22012" lon="6.08321">
        <ele>744</ele>
        <time>2018-05-18T01:15:14Z</time>
      </trkpt>
      <trkpt lat="44.22059" lon="6.08388">
        <ele>751</ele>
        <time>2018-05-18T01:16:14Z</time>
      </trkpt>
      <trkpt lat="44.22089" lon="6.08438">
        <ele>752</ele>
        <time>2018-05-18T01:17:14Z</time>
      </trkpt>
      <trkpt lat="44.22163" lon="6.08498">
        <ele>765</ele>
        <time>2018-05-18T01:18:14Z</time>
      </trkpt>
      <trkpt lat="44.22189" lon="6.08546">
        <ele>761</ele>
        <time>2018-05-18T01:19:14Z</time>
      </trkpt>
      <trkpt lat="44.22227" lon="6.08553">
        <ele>767</ele>
        <time>2018-05-18T01:20:14Z</time>
      </trkpt>
      <trkpt lat="44.22278" lon="6.08545">
        <ele>779</ele>
        <time>2018-05-18T01:21:14Z</time>
      </trkpt>
      <trkpt lat="44.2234" lon="6.08584">
        <ele>783</ele>
        <time>2018-05-18T01:22:14Z</time>
      </trkpt>
      <trkpt lat="44.22396" lon="6.08656">
        <ele>797</ele>
        <time>2018-05-18T01:23:14Z</time>
      </trkpt>
      <trkpt lat="44.22438" lon="6.08752">
        <ele>787</ele>
        <time>2018-05-18T01:24:14Z</time>
      </trkpt>
      <trkpt lat="44.22474" lon="6.08809">
        <ele>777</ele>
        <time>2018-05-18T01:25:14Z</time>
      </trkpt>
      <trkpt lat="44.225" lon="6.08795">
        <ele>790</ele>
        <time>2018-05-18T01:26:14Z</time>
      </trkpt>
      <trkpt lat="44.22541" lon="6.08754">
        <ele>810</ele>
        <time>2018-05-18T01:27:14Z</time>
      </trkpt>
      <trkpt lat="44.22547" lon="6.08728">
        <ele>820</ele>
        <time>2018-05-18T01:28:14Z</time>
      </trkpt>
      <trkpt lat="44.22559" lon="6.08689">
        <ele>836</ele>
        <time>2018-05-18T01:29:14Z</time>
      </trkpt>
      <trkpt lat="44.22582" lon="6.0866">
        <ele>850</ele>
        <time>2018-05-18T01:30:14Z</time>
      </trkpt>
      <trkpt lat="44.22629" lon="6.08681">
        <ele>842</ele>
        <time>2018-05-18T01:31:14Z</time>
      </trkpt>
      <trkpt lat="44.22664" lon="6.08661">
        <ele>849</ele>
        <time>2018-05-18T01:32:14Z</time>
      </trkpt>
      <trkpt lat="44.22633" lon="6.08646">
        <ele>854</ele>
        <time>2018-05-18T01:33:14Z</time>
      </trkpt>
      <trkpt lat="44.22666" lon="6.08617">
        <ele>861</ele>
        <time>2018-05-18T01:34:14Z</time>
      </trkpt>
      <trkpt lat="44.2262" lon="6.0861">
        <ele>867</ele>
        <time>2018-05-18T01:35:14Z</time>
      </trkpt>
      <trkpt lat="44.22629" lon="6.08588">
        <ele>873</ele>
        <time>2018-05-18T01:36:14Z</time>
      </trkpt>
      <trkpt lat="44.22654" lon="6.08537">
        <ele>886</ele>
        <time>2018-05-18T01:37:14Z</time>
      </trkpt>
      <trkpt lat="44.22669" lon="6.08468">
        <ele>903</ele>
        <time>2018-05-18T01:38:14Z</time>
      </trkpt>
      <trkpt lat="44.22698" lon="6.0836">
        <ele>931</ele>
        <time>2018-05-18T01:39:14Z</time>
      </trkpt>
      <trkpt lat="44.22666" lon="6.08327">
        <ele>940</ele>
        <time>2018-05-18T01:40:14Z</time>
      </trkpt>
      <trkpt lat="44.22659" lon="6.08327">
        <ele>940</ele>
        <time>2018-05-18T01:41:14Z</time>
      </trkpt>
      <trkpt lat="44.22635" lon="6.08323">
        <ele>942</ele>
        <time>2018-05-18T01:42:14Z</time>
      </trkpt>
      <trkpt lat="44.22592" lon="6.08318">
        <ele>946</ele>
        <time>2018-05-18T01:43:14Z</time>
      </trkpt>
      <trkpt lat="44.22554" lon="6.083">
        <ele>947</ele>
        <time>2018-05-18T01:44:14Z</time>
      </trkpt>
      <trkpt lat="44.22515" lon="6.08269">
        <ele>946</ele>
        <time>2018-05-18T01:45:14Z</time>
      </trkpt>
      <trkpt lat="44.22499" lon="6.08217">
        <ele>952</ele>
        <time>2018-05-18T01:46:14Z</time>
      </trkpt>
      <trkpt lat="44.22436" lon="6.08173">
        <ele>942</ele>
        <time>2018-05-18T01:47:14Z</time>
      </trkpt>
      <trkpt lat="44.22425" lon="6.08122">
        <ele>948</ele>
        <time>2018-05-18T01:48:14Z</time>
      </trkpt>
      <trkpt lat="44.22403" lon="6.08092">
        <ele>949</ele>
        <time>2018-05-18T01:49:14Z</time>
      </trkpt>
      <trkpt lat="44.22363" lon="6.0805">
        <ele>950</ele>
        <time>2018-05-18T01:50:14Z</time>
      </trkpt>
      <trkpt lat="44.22361" lon="6.07975">
        <ele>962</ele>
        <time>2018-05-18T01:51:14Z</time>
      </trkpt>
      <trkpt lat="44.2231" lon="6.07939">
        <ele>962</ele>
        <time>2018-05-18T01:52:14Z</time>
      </trkpt>
      <trkpt lat="44.22331" lon="6.07911">
        <ele>970</ele>
        <time>2018-05-18T01:53:14Z</time>
      </trkpt>
      <trkpt lat="44.22366" lon="6.07881">
        <ele>983</ele>
        <time>2018-05-18T01:54:14Z</time>
      </trkpt>
      <trkpt lat="44.22405" lon="6.07877">
        <ele>993</ele>
        <time>2018-05-18T01:55:14Z</time>
      </trkpt>
      <trkpt lat="44.22477" lon="6.07866">
        <ele>1009</ele>
        <time>2018-05-18T01:56:14Z</time>
      </trkpt>
      <trkpt lat="44.22508" lon="6.0789">
        <ele>1009</ele>
        <time>2018-05-18T01:57:14Z</time>
      </trkpt>
      <trkpt lat="44.22583" lon="6.07957">
        <ele>1014</ele>
        <time>2018-05-18T01:58:14Z</time>
      </trkpt>
      <trkpt lat="44.22609" lon="6.08005">
        <ele>1012</ele>
        <time>2018-05-18T01:59:14Z</time>
      </trkpt>
      <trkpt lat="44.22674" lon="6.08022">
        <ele>1027</ele>
        <time>2018-05-18T02:00:14Z</time>
      </trkpt>
      <trkpt lat="44.2271" lon="6.08035">
        <ele>1027</ele>
        <time>2018-05-18T02:01:14Z</time>
      </trkpt>
      <trkpt lat="44.22746" lon="6.08038">
        <ele>1030</ele>
        <time>2018-05-18T02:02:14Z</time>
      </trkpt>
      <trkpt lat="44.22777" lon="6.08">
        <ele>1043</ele>
        <time>2018-05-18T02:03:14Z</time>
      </trkpt>
      <trkpt lat="44.22816" lon="6.07974">
        <ele>1050</ele>
        <time>2018-05-18T02:04:14Z</time>
      </trkpt>
      <trkpt lat="44.22904" lon="6.07941">
        <ele>1060</ele>
        <time>2018-05-18T02:05:14Z</time>
      </trkpt>
      <trkpt lat="44.22959" lon="6.07949">
        <ele>1064</ele>
        <time>2018-05-18T02:06:14Z</time>
      </trkpt>
      <trkpt lat="44.23012" lon="6.07976">
        <ele>1064</ele>
        <time>2018-05-18T02:07:14Z</time>
      </trkpt>
      <trkpt lat="44.23096" lon="6.08021">
        <ele>1066</ele>
        <time>2018-05-18T02:08:14Z</time>
      </trkpt>
      <trkpt lat="44.23161" lon="6.08065">
        <ele>1069</ele>
        <time>2018-05-18T02:09:14Z</time>
      </trkpt>
      <trkpt lat="44.23226" lon="6.08085">
        <ele>1082</ele>
        <time>2018-05-18T02:10:14Z</time>
      </trkpt>
      <trkpt lat="44.23274" lon="6.08154">
        <ele>1082</ele>
        <time>2018-05-18T02:11:14Z</time>
      </trkpt>
      <trkpt lat="44.23273" lon="6.08189">
        <ele>1072</ele>
        <time>2018-05-18T02:12:14Z</time>
      </trkpt>
      <trkpt lat="44.23283" lon="6.08219">
        <ele>1065</ele>
        <time>2018-05-18T02:13:14Z</time>
      </trkpt>
      <trkpt lat="44.23364" lon="6.08217">
        <ele>1083</ele>
        <time>2018-05-18T02:14:14Z</time>
      </trkpt>
      <trkpt lat="44.23391" lon="6.08221">
        <ele>1085</ele>
        <time>2018-05-18T02:15:14Z</time>
      </trkpt>
      <trkpt lat="44.23449" lon="6.08241">
        <ele>1088</ele>
        <time>2018-05-18T02:16:14Z</time>
      </trkpt>
      <trkpt lat="44.23505" lon="6.08286">
        <ele>1081</ele>
        <time>2018-05-18T02:17:14Z</time>
      </trkpt>
      <trkpt lat="44.23537" lon="6.0829">
        <ele>1080</ele>
        <time>2018-05-18T02:18:14Z</time>
      </trkpt>
      <trkpt lat="44.23645" lon="6.08262">
        <ele>1077</ele>
        <time>2018-05-18T02:19:14Z</time>
      </trkpt>
      <trkpt lat="44.23693" lon="6.08259">
        <ele>1071</ele>
        <time>2018-05-18T02:20:14Z</time>
      </trkpt>
      <trkpt lat="44.23746" lon="6.08194">
        <ele>1100</ele>
        <time>2018-05-18T02:21:14Z</time>
      </trkpt>
      <trkpt lat="44.23814" lon="6.08146">
        <ele>1100</ele>
        <time>2018-05-18T02:22:14Z</time>
      </trkpt>
      <trkpt lat="44.23826" lon="6.08123">
        <ele>1102</ele>
        <time>2018-05-18T02:23:14Z</time>
      </trkpt>
      <trkpt lat="44.23819" lon="6.08096">
        <ele>1110</ele>
        <time>2018-05-18T02:24:14Z</time>
      </trkpt>
      <trkpt lat="44.23842" lon="6.08047">
        <ele>1114</ele>
        <time>2018-05-18T02:25:14Z</time>
      </trkpt>
      <trkpt lat="44.23845" lon="6.08023">
        <ele>1118</ele>
        <time>2018-05-18T02:26:14Z</time>
      </trkpt>
      <trkpt lat="44.23847" lon="6.07959">
        <ele>1130</ele>
        <time>2018-05-18T02:27:14Z</time>
      </trkpt>
      <trkpt lat="44.23911" lon="6.07948">
        <ele>1128</ele>
        <time>2018-05-18T02:28:14Z</time>
      </trkpt>
      <trkpt lat="44.23917" lon="6.0794">
        <ele>1129</ele>
        <time>2018-05-18T02:29:14Z</time>
      </trkpt>
      <trkpt lat="44.23884" lon="6.07885">
        <ele>1141</ele>
        <time>2018-05-18T02:30:14Z</time>
      </trkpt>
      <trkpt lat="44.23888" lon="6.07826">
        <ele>1148</ele>
        <time>2018-05-18T02:31:14Z</time>
      </trkpt>
      <trkpt lat="44.23911" lon="6.07783">
        <ele>1147</ele>
        <time>2018-05-18T02:32:14Z</time>
      </trkpt>
      <trkpt lat="44.23919" lon="6.07744">
        <ele>1147</ele>
        <time>2018-05-18T02:33:14Z</time>
      </trkpt>
      <trkpt lat="44.23938" lon="6.07695">
        <ele>1148</ele>
        <time>2018-05-18T02:34:14Z</time>
      </trkpt>
      <trkpt lat="44.23948" lon="6.07643">
        <ele>1148</ele>
        <time>2018-05-18T02:35:14Z</time>
      </trkpt>
      <trkpt lat="44.23954" lon="6.07518">
        <ele>1145</ele>
        <time>2018-05-18T02:36:14Z</time>
      </trkpt>
      <trkpt lat="44.23954" lon="6.07467">
        <ele>1144</ele>
        <time>2018-05-18T02:37:14Z</time>
      </trkpt>
      <trkpt lat="44.2397" lon="6.07398">
        <ele>1143</ele>
        <time>2018-05-18T02:38:14Z</time>
      </trkpt>
      <trkpt lat="44.23966" lon="6.07332">
        <ele>1143</ele>
        <time>2018-05-18T02:39:14Z</time>
      </trkpt>
      <trkpt lat="44.23971" lon="6.07231">
        <ele>1137</ele>
        <time>2018-05-18T02:40:14Z</time>
      </trkpt>
      <trkpt lat="44.23986" lon="6.07159">
        <ele>1135</ele>
        <time>2018-05-18T02:41:14Z</time>
      </trkpt>
      <trkpt lat="44.24003" lon="6.0713">
        <ele>1133</ele>
        <time>2018-05-18T02:42:14Z</time>
      </trkpt>
      <trkpt lat="44.24036" lon="6.07062">
        <ele>1132</ele>
        <time>2018-05-18T02:43:14Z</time>
      </trkpt>
      <trkpt lat="44.24043" lon="6.07036">
        <ele>1131</ele>
        <time>2018-05-18T02:44:14Z</time>
      </trkpt>
      <trkpt lat="44.24044" lon="6.06965">
        <ele>1130</ele>
        <time>2018-05-18T02:45:14Z</time>
      </trkpt>
      <trkpt lat="44.24028" lon="6.06791">
        <ele>1125</ele>
        <time>2018-05-18T02:46:14Z</time>
      </trkpt>
      <trkpt lat="44.24047" lon="6.06598">
        <ele>1122</ele>
        <time>2018-05-18T02:47:14Z</time>
      </trkpt>
      <trkpt lat="44.2405" lon="6.06541">
        <ele>1120</ele>
        <time>2018-05-18T02:48:14Z</time>
      </trkpt>
      <trkpt lat="44.24065" lon="6.06514">
        <ele>1120</ele>
        <time>2018-05-18T02:49:14Z</time>
      </trkpt>
      <trkpt lat="44.24106" lon="6.06437">
        <ele>1121</ele>
        <time>2018-05-18T02:50:14Z</time>
      </trkpt>
      <trkpt lat="44.24124" lon="6.06329">
        <ele>1119</ele>
        <time>2018-05-18T02:51:14Z</time>
      </trkpt>
      <trkpt lat="44.24163" lon="6.06096">
        <ele>1117</ele>
        <time>2018-05-18T02:52:14Z</time>
      </trkpt>
      <trkpt lat="44.24171" lon="6.0596">
        <ele>1111</ele>
        <time>2018-05-18T02:53:14Z</time>
      </trkpt>
      <trkpt lat="44.24183" lon="6.05935">
        <ele>1110</ele>
        <time>2018-05-18T02:54:14Z</time>
      </trkpt>
      <trkpt lat="44.24232" lon="6.05764">
        <ele>1106</ele>
        <time>2018-05-18T02:55:14Z</time>
      </trkpt>
      <trkpt lat="44.24273" lon="6.05723">
        <ele>1108</ele>
        <time>2018-05-18T02:56:14Z</time>
      </trkpt>
      <trkpt lat="44.24272" lon="6.05639">
        <ele>1105</ele>
        <time>2018-05-18T02:57:14Z</time>
      </trkpt>
      <trkpt lat="44.24298" lon="6.05571">
        <ele>1102</ele>
        <time>2018-05-18T02:58:14Z</time>
      </trkpt>
      <trkpt lat="44.2431" lon="6.05492">
        <ele>1100</ele>
        <time>2018-05-18T02:59:14Z</time>
      </trkpt>
      <trkpt lat="44.24365" lon="6.05461">
        <ele>1104</ele>
        <time>2018-05-18T03:00:14Z</time>
      </trkpt>
      <trkpt lat="44.24388" lon="6.05432">
        <ele>1105</ele>
        <time>2018-05-18T03:01:14Z</time>
      </trkpt>
      <trkpt lat="44.24368" lon="6.05296">
        <ele>1100</ele>
        <time>2018-05-18T03:02:14Z</time>
      </trkpt>
      <trkpt lat="44.2441" lon="6.05281">
        <ele>1104</ele>
        <time>2018-05-18T03:03:14Z</time>
      </trkpt>
      <trkpt lat="44.24447" lon="6.05275">
        <ele>1110</ele>
        <time>2018-05-18T03:04:14Z</time>
      </trkpt>
      <trkpt lat="44.24513" lon="6.05269">
        <ele>1120</ele>
        <time>2018-05-18T03:05:14Z</time>
      </trkpt>
    </trkseg>
  </trk>
</gpx>